Time,TemperatureF,DewpointF,PressureIn,WindDirection,WindDirectionDegrees,WindSpeedMPH,WindSpeedGustMPH,Humidity,HourlyPrecipIn,Conditions,Clouds,dailyrainin,SoftwareType,DateUTC
2013-05-30 00:00:00,75.1,64.2,29.78,SSE,150,19.0,23.0,69,0.00,,---,0.00,VWS V14.00,2013-05-30 05:00:00,
2013-05-30 00:01:00,75.1,63.8,29.78,SSE,159,9.0,11.0,68,0.00,,---,0.00,VWS V14.00,2013-05-30 05:01:00,
2013-05-30 00:02:00,75.1,64.2,29.79,SSE,168,11.0,17.0,69,0.00,,---,0.00,VWS V14.00,2013-05-30 05:02:00,
2013-05-30 00:03:00,75.1,63.8,29.79,South,184,7.0,19.0,68,0.00,,---,0.00,VWS V14.00,2013-05-30 05:03:00,
2013-05-30 00:04:00,75.1,63.8,29.79,SSE,158,12.0,14.0,68,0.00,,---,0.00,VWS V14.00,2013-05-30 05:04:00,
2013-05-30 00:05:00,75.1,63.8,29.79,South,179,9.0,12.0,68,0.00,,---,0.00,VWS V14.00,2013-05-30 05:05:00,
2013-05-30 00:06:00,75.1,63.8,29.79,SSE,159,9.0,12.0,68,0.00,,---,0.00,VWS V14.00,2013-05-30 05:06:00,
2013-05-30 00:07:00,75.1,64.2,29.79,SSE,159,5.0,12.0,69,0.00,,---,0.00,VWS V14.00,2013-05-30 05:07:00,
2013-05-30 00:08:00,75.1,64.2,29.79,South,171,4.0,10.0,69,0.00,,---,0.00,VWS V14.00,2013-05-30 05:08:00,
2013-05-30 00:09:00,75.1,64.2,29.78,South,179,10.0,13.0,69,0.00,,---,0.00,VWS V14.00,2013-05-30 05:09:00,
2013-05-30 00:10:00,75.1,64.2,29.79,SSE,165,9.0,15.0,69,0.00,,---,0.00,VWS V14.00,2013-05-30 05:10:00,
2013-05-30 00:11:00,75.1,64.2,29.79,SSE,165,7.0,15.0,69,0.00,,---,0.00,VWS V14.00,2013-05-30 05:11:00,
2013-05-30 00:12:00,75.1,64.2,29.79,SSW,196,6.0,12.0,69,0.00,,---,0.00,VWS V14.00,2013-05-30 05:12:00,
2013-05-30 00:13:00,75.1,64.2,29.78,SSE,148,10.0,12.0,69,0.00,,---,0.00,VWS V14.00,2013-05-30 05:13:00,
2013-05-30 00:14:00,75.1,64.2,29.78,SSE,165,9.0,10.0,69,0.00,,---,0.00,VWS V14.00,2013-05-30 05:14:00,
2013-05-30 00:15:00,75.1,64.2,29.78,South,171,6.0,14.0,69,0.00,,---,0.00,VWS V14.00,2013-05-30 05:15:00,
2013-05-30 00:16:00,75.1,64.2,29.78,SSE,167,12.0,14.0,69,0.00,,---,0.00,VWS V14.00,2013-05-30 05:16:00,
2013-05-30 00:17:00,75.1,64.2,29.78,SSE,147,12.0,12.0,69,0.00,,---,0.00,VWS V14.00,2013-05-30 05:17:00,
2013-05-30 00:18:00,75.1,64.2,29.78,SE,131,15.0,19.0,69,0.00,,---,0.00,VWS V14.00,2013-05-30 05:18:00,
2013-05-30 00:19:00,75.1,64.2,29.78,SSE,165,7.0,16.0,69,0.00,,---,0.00,VWS V14.00,2013-05-30 05:19:00,
2013-05-30 00:20:00,75.1,64.2,29.78,SSE,162,9.0,11.0,69,0.00,,---,0.00,VWS V14.00,2013-05-30 05:20:00,
2013-05-30 00:21:00,75.1,64.2,29.78,SSE,160,2.0,10.0,69,0.00,,---,0.00,VWS V14.00,2013-05-30 05:21:00,
2013-05-30 00:22:00,75.1,64.2,29.78,SSE,166,7.0,13.0,69,0.00,,---,0.00,VWS V14.00,2013-05-30 05:22:00,
2013-05-30 00:23:00,75.1,64.2,29.78,SSE,162,5.0,11.0,69,0.00,,---,0.00,VWS V14.00,2013-05-30 05:23:00,
2013-05-30 00:24:00,74.9,64.1,29.79,South,172,9.0,17.0,69,0.00,,---,0.00,VWS V14.00,2013-05-30 05:24:00,
2013-05-30 00:25:00,74.9,64.1,29.78,SSE,161,5.0,13.0,69,0.00,,---,0.00,VWS V14.00,2013-05-30 05:25:00,
2013-05-30 00:26:00,74.9,64.1,29.78,South,187,7.0,12.0,69,0.00,,---,0.00,VWS V14.00,2013-05-30 05:26:00,
2013-05-30 00:27:00,75.1,64.2,29.78,South,174,8.0,11.0,69,0.00,,---,0.00,VWS V14.00,2013-05-30 05:27:00,
2013-05-30 00:28:00,75.1,64.2,29.78,SSE,168,8.0,19.0,69,0.00,,---,0.00,VWS V14.00,2013-05-30 05:28:00,
2013-05-30 00:29:00,75.1,64.2,29.78,South,182,6.0,8.0,69,0.00,,---,0.00,VWS V14.00,2013-05-30 05:29:00,
2013-05-30 00:30:00,75.1,64.2,29.78,SSE,162,13.0,14.0,69,0.00,,---,0.00,VWS V14.00,2013-05-30 05:30:00,
2013-05-30 00:31:00,75.1,64.2,29.78,South,178,6.0,9.0,69,0.00,,---,0.00,VWS V14.00,2013-05-30 05:31:00,
2013-05-30 00:32:00,75.1,64.2,29.78,SSE,166,3.0,10.0,69,0.00,,---,0.00,VWS V14.00,2013-05-30 05:32:00,
2013-05-30 00:33:00,74.9,64.1,29.78,SSE,168,4.0,7.0,69,0.00,,---,0.00,VWS V14.00,2013-05-30 05:33:00,
2013-05-30 00:34:00,74.9,64.1,29.78,SSE,153,6.0,14.0,69,0.00,,---,0.00,VWS V14.00,2013-05-30 05:34:00,
2013-05-30 00:35:00,74.9,64.1,29.78,SSE,168,7.0,9.0,69,0.00,,---,0.00,VWS V14.00,2013-05-30 05:35:00,
2013-05-30 00:36:00,74.9,64.1,29.78,SSE,161,5.0,7.0,69,0.00,,---,0.00,VWS V14.00,2013-05-30 05:36:00,
2013-05-30 00:37:00,74.9,64.1,29.78,South,181,8.0,8.0,69,0.00,,---,0.00,VWS V14.00,2013-05-30 05:37:00,
2013-05-30 00:38:00,74.9,64.1,29.78,South,175,5.0,13.0,69,0.00,,---,0.00,VWS V14.00,2013-05-30 05:38:00,
2013-05-30 00:39:00,74.9,64.1,29.78,SSE,160,4.0,13.0,69,0.00,,---,0.00,VWS V14.00,2013-05-30 05:39:00,
2013-05-30 00:40:00,74.9,64.1,29.78,SSE,156,12.0,13.0,69,0.00,,---,0.00,VWS V14.00,2013-05-30 05:40:00,
2013-05-30 00:41:00,74.9,64.1,29.78,SSE,160,4.0,5.0,69,0.00,,---,0.00,VWS V14.00,2013-05-30 05:41:00,
2013-05-30 00:42:00,74.9,64.1,29.78,SSW,194,6.0,12.0,69,0.00,,---,0.00,VWS V14.00,2013-05-30 05:42:00,
2013-05-30 00:43:00,74.9,64.1,29.78,SSW,192,7.0,19.0,69,0.00,,---,0.00,VWS V14.00,2013-05-30 05:43:00,
2013-05-30 00:44:00,74.9,64.1,29.78,South,185,7.0,10.0,69,0.00,,---,0.00,VWS V14.00,2013-05-30 05:44:00,
2013-05-30 00:45:00,74.9,64.1,29.78,SSE,165,10.0,13.0,69,0.00,,---,0.00,VWS V14.00,2013-05-30 05:45:00,
2013-05-30 00:46:00,74.9,64.1,29.78,South,170,10.0,13.0,69,0.00,,---,0.00,VWS V14.00,2013-05-30 05:46:00,
2013-05-30 00:47:00,74.9,64.1,29.78,SSE,157,15.0,16.0,69,0.00,,---,0.00,VWS V14.00,2013-05-30 05:47:00,
2013-05-30 00:48:00,74.9,64.1,29.78,South,185,9.0,15.0,69,0.00,,---,0.00,VWS V14.00,2013-05-30 05:48:00,
2013-05-30 00:49:00,74.9,64.1,29.77,South,171,6.0,14.0,69,0.00,,---,0.00,VWS V14.00,2013-05-30 05:49:00,
2013-05-30 00:50:00,74.9,64.1,29.77,South,188,6.0,18.0,69,0.00,,---,0.00,VWS V14.00,2013-05-30 05:50:00,
2013-05-30 00:51:00,74.9,64.1,29.77,South,169,10.0,10.0,69,0.00,,---,0.00,VWS V14.00,2013-05-30 05:51:00,
2013-05-30 00:52:00,74.9,64.1,29.77,SSE,168,10.0,18.0,69,0.00,,---,0.00,VWS V14.00,2013-05-30 05:52:00,
2013-05-30 00:53:00,74.9,64.1,29.77,SSE,160,15.0,16.0,69,0.00,,---,0.00,VWS V14.00,2013-05-30 05:53:00,
2013-05-30 00:54:00,74.9,64.1,29.77,SSE,162,5.0,15.0,69,0.00,,---,0.00,VWS V14.00,2013-05-30 05:54:00,
2013-05-30 00:55:00,74.9,64.1,29.77,South,180,9.0,15.0,69,0.00,,---,0.00,VWS V14.00,2013-05-30 05:55:00,
2013-05-30 00:56:00,74.9,64.1,29.77,SSE,162,1.0,5.0,69,0.00,,---,0.00,VWS V14.00,2013-05-30 05:56:00,
2013-05-30 00:57:00,74.9,64.1,29.78,SSE,153,19.0,19.0,69,0.00,,---,0.00,VWS V14.00,2013-05-30 05:57:00,
2013-05-30 00:58:00,74.9,64.1,29.78,SSE,161,7.0,19.0,69,0.00,,---,0.00,VWS V14.00,2013-05-30 05:58:00,
2013-05-30 00:59:00,74.9,64.1,29.78,SSE,165,4.0,13.0,69,0.00,,---,0.00,VWS V14.00,2013-05-30 05:59:00,
2013-05-30 01:00:00,74.9,64.1,29.78,South,175,5.0,14.0,69,0.00,,---,0.00,VWS V14.00,2013-05-30 06:00:00,
2013-05-30 01:01:00,74.9,64.1,29.78,South,176,12.0,14.0,69,0.00,,---,0.00,VWS V14.00,2013-05-30 06:01:00,
2013-05-30 01:02:00,74.7,63.9,29.78,SSE,159,10.0,10.0,69,0.00,,---,0.00,VWS V14.00,2013-05-30 06:02:00,
2013-05-30 01:03:00,74.7,63.9,29.78,South,187,7.0,13.0,69,0.00,,---,0.00,VWS V14.00,2013-05-30 06:03:00,
2013-05-30 01:04:00,74.7,63.9,29.78,SSE,167,17.0,17.0,69,0.00,,---,0.00,VWS V14.00,2013-05-30 06:04:00,
2013-05-30 01:05:00,74.7,63.9,29.78,SSE,158,11.0,23.0,69,0.00,,---,0.00,VWS V14.00,2013-05-30 06:05:00,
2013-05-30 01:06:00,74.7,63.9,29.78,South,171,14.0,17.0,69,0.00,,---,0.00,VWS V14.00,2013-05-30 06:06:00,
2013-05-30 01:07:00,74.7,63.9,29.77,SSE,163,5.0,15.0,69,0.00,,---,0.00,VWS V14.00,2013-05-30 06:07:00,
2013-05-30 01:08:00,74.7,63.9,29.77,SSE,159,14.0,20.0,69,0.00,,---,0.00,VWS V14.00,2013-05-30 06:08:00,
2013-05-30 01:09:00,74.7,63.9,29.77,SSE,167,5.0,15.0,69,0.00,,---,0.00,VWS V14.00,2013-05-30 06:09:00,
2013-05-30 01:10:00,74.7,63.9,29.77,South,182,6.0,13.0,69,0.00,,---,0.00,VWS V14.00,2013-05-30 06:10:00,
2013-05-30 01:11:00,74.7,63.9,29.77,SSE,164,9.0,9.0,69,0.00,,---,0.00,VWS V14.00,2013-05-30 06:11:00,
2013-05-30 01:12:00,74.6,63.8,29.77,SSE,154,13.0,16.0,69,0.00,,---,0.00,VWS V14.00,2013-05-30 06:12:00,
2013-05-30 01:13:00,74.6,63.8,29.77,SSE,163,13.0,17.0,69,0.00,,---,0.00,VWS V14.00,2013-05-30 06:13:00,
2013-05-30 01:14:00,74.6,63.8,29.77,SSE,163,3.0,16.0,69,0.00,,---,0.00,VWS V14.00,2013-05-30 06:14:00,
2013-05-30 01:15:00,74.6,63.8,29.77,SSE,166,6.0,9.0,69,0.00,,---,0.00,VWS V14.00,2013-05-30 06:15:00,
2013-05-30 01:16:00,74.6,63.8,29.77,SSE,165,8.0,9.0,69,0.00,,---,0.00,VWS V14.00,2013-05-30 06:16:00,
2013-05-30 01:17:00,74.6,63.8,29.77,South,184,4.0,13.0,69,0.00,,---,0.00,VWS V14.00,2013-05-30 06:17:00,
2013-05-30 01:18:00,74.4,63.6,29.77,SSE,165,13.0,13.0,69,0.00,,---,0.00,VWS V14.00,2013-05-30 06:18:00,
2013-05-30 01:19:00,74.4,63.6,29.77,SSE,159,13.0,13.0,69,0.00,,---,0.00,VWS V14.00,2013-05-30 06:19:00,
2013-05-30 01:20:00,74.4,63.6,29.77,South,184,10.0,13.0,69,0.00,,---,0.00,VWS V14.00,2013-05-30 06:20:00,
2013-05-30 01:21:00,74.4,63.6,29.77,SSE,166,4.0,13.0,69,0.00,,---,0.00,VWS V14.00,2013-05-30 06:21:00,
2013-05-30 01:22:00,74.4,63.6,29.77,South,187,3.0,14.0,69,0.00,,---,0.00,VWS V14.00,2013-05-30 06:22:00,
2013-05-30 01:23:00,74.4,63.6,29.77,SSE,156,9.0,16.0,69,0.00,,---,0.00,VWS V14.00,2013-05-30 06:23:00,
2013-05-30 01:24:00,74.4,63.6,29.77,SSE,155,10.0,10.0,69,0.00,,---,0.00,VWS V14.00,2013-05-30 06:24:00,
2013-05-30 01:25:00,74.4,63.6,29.77,SSE,161,5.0,14.0,69,0.00,,---,0.00,VWS V14.00,2013-05-30 06:25:00,
2013-05-30 01:26:00,74.4,63.6,29.77,SSE,162,12.0,14.0,69,0.00,,---,0.00,VWS V14.00,2013-05-30 06:26:00,
2013-05-30 01:27:00,74.4,64.0,29.77,SSE,167,7.0,20.0,70,0.00,,---,0.00,VWS V14.00,2013-05-30 06:27:00,
2013-05-30 01:28:00,74.4,64.0,29.77,SSE,163,10.0,16.0,70,0.00,,---,0.00,VWS V14.00,2013-05-30 06:28:00,
2013-05-30 01:29:00,74.4,63.6,29.77,SSE,162,11.0,15.0,69,0.00,,---,0.00,VWS V14.00,2013-05-30 06:29:00,
2013-05-30 01:30:00,74.4,63.6,29.77,South,179,2.0,12.0,69,0.00,,---,0.00,VWS V14.00,2013-05-30 06:30:00,
2013-05-30 01:31:00,74.4,63.6,29.77,SSE,156,7.0,11.0,69,0.00,,---,0.00,VWS V14.00,2013-05-30 06:31:00,
2013-05-30 01:32:00,74.4,63.6,29.77,SSE,167,12.0,13.0,69,0.00,,---,0.00,VWS V14.00,2013-05-30 06:32:00,
2013-05-30 01:33:00,74.4,63.6,29.76,SSE,163,10.0,14.0,69,0.00,,---,0.00,VWS V14.00,2013-05-30 06:33:00,
2013-05-30 01:34:00,74.4,64.0,29.76,SSE,159,9.0,14.0,70,0.00,,---,0.00,VWS V14.00,2013-05-30 06:34:00,
2013-05-30 01:35:00,74.4,63.6,29.76,South,176,5.0,10.0,69,0.00,,---,0.00,VWS V14.00,2013-05-30 06:35:00,
2013-05-30 01:36:00,74.4,64.0,29.76,SSE,159,6.0,9.0,70,0.00,,---,0.00,VWS V14.00,2013-05-30 06:36:00,
2013-05-30 01:37:00,74.4,64.0,29.77,South,169,2.0,12.0,70,0.00,,---,0.00,VWS V14.00,2013-05-30 06:37:00,
2013-05-30 01:38:00,74.4,64.0,29.76,SSE,159,12.0,15.0,70,0.00,,---,0.00,VWS V14.00,2013-05-30 06:38:00,
2013-05-30 01:39:00,74.4,64.0,29.77,South,177,4.0,13.0,70,0.00,,---,0.00,VWS V14.00,2013-05-30 06:39:00,
2013-05-30 01:40:00,74.4,64.0,29.76,South,182,8.0,11.0,70,0.00,,---,0.00,VWS V14.00,2013-05-30 06:40:00,
2013-05-30 01:41:00,74.4,64.0,29.76,SSW,198,4.0,5.0,70,0.00,,---,0.00,VWS V14.00,2013-05-30 06:41:00,
2013-05-30 01:42:00,74.4,64.0,29.77,SSE,161,8.0,11.0,70,0.00,,---,0.00,VWS V14.00,2013-05-30 06:42:00,
2013-05-30 01:43:00,74.4,64.0,29.77,SSE,166,9.0,15.0,70,0.00,,---,0.00,VWS V14.00,2013-05-30 06:43:00,
2013-05-30 01:44:00,74.4,64.0,29.77,South,189,13.0,13.0,70,0.00,,---,0.00,VWS V14.00,2013-05-30 06:44:00,
2013-05-30 01:45:00,74.4,64.0,29.77,SSE,161,10.0,13.0,70,0.00,,---,0.00,VWS V14.00,2013-05-30 06:45:00,
2013-05-30 01:46:00,74.4,64.0,29.77,South,186,5.0,13.0,70,0.00,,---,0.00,VWS V14.00,2013-05-30 06:46:00,
2013-05-30 01:47:00,74.4,64.0,29.77,SSE,159,9.0,10.0,70,0.00,,---,0.00,VWS V14.00,2013-05-30 06:47:00,
2013-05-30 01:48:00,74.2,63.8,29.77,SSE,161,9.0,9.0,70,0.00,,---,0.00,VWS V14.00,2013-05-30 06:48:00,
2013-05-30 01:49:00,74.2,63.8,29.77,SE,136,12.0,13.0,70,0.00,,---,0.00,VWS V14.00,2013-05-30 06:49:00,
2013-05-30 01:50:00,74.2,63.8,29.76,SSE,163,6.0,15.0,70,0.00,,---,0.00,VWS V14.00,2013-05-30 06:50:00,
2013-05-30 01:51:00,74.2,63.8,29.76,SSE,155,5.0,15.0,70,0.00,,---,0.00,VWS V14.00,2013-05-30 06:51:00,
2013-05-30 01:52:00,74.2,63.8,29.76,South,175,4.0,12.0,70,0.00,,---,0.00,VWS V14.00,2013-05-30 06:52:00,
2013-05-30 01:53:00,74.2,63.8,29.76,SSE,155,12.0,15.0,70,0.00,,---,0.00,VWS V14.00,2013-05-30 06:53:00,
2013-05-30 01:54:00,74.2,63.8,29.76,SSE,167,13.0,13.0,70,0.00,,---,0.00,VWS V14.00,2013-05-30 06:54:00,
2013-05-30 01:55:00,74.2,63.8,29.76,South,178,7.0,13.0,70,0.00,,---,0.00,VWS V14.00,2013-05-30 06:55:00,
2013-05-30 01:56:00,74.2,63.8,29.76,SSE,167,9.0,13.0,70,0.00,,---,0.00,VWS V14.00,2013-05-30 06:56:00,
2013-05-30 01:57:00,74.2,63.8,29.76,SSE,157,12.0,15.0,70,0.00,,---,0.00,VWS V14.00,2013-05-30 06:57:00,
2013-05-30 01:58:00,74.2,63.8,29.76,South,173,10.0,15.0,70,0.00,,---,0.00,VWS V14.00,2013-05-30 06:58:00,
2013-05-30 01:59:00,74.2,63.8,29.76,South,169,6.0,10.0,70,0.00,,---,0.00,VWS V14.00,2013-05-30 06:59:00,
2013-05-30 02:00:00,74.2,63.8,29.76,SSW,209,5.0,16.0,70,0.00,,---,0.00,VWS V14.00,2013-05-30 07:00:00,
2013-05-30 02:01:00,74.2,63.8,29.76,South,185,12.0,12.0,70,0.00,,---,0.00,VWS V14.00,2013-05-30 07:01:00,
2013-05-30 02:02:00,74.2,63.8,29.76,SE,138,12.0,17.0,70,0.00,,---,0.00,VWS V14.00,2013-05-30 07:02:00,
2013-05-30 02:03:00,74.2,63.8,29.76,South,170,16.0,20.0,70,0.00,,---,0.00,VWS V14.00,2013-05-30 07:03:00,
2013-05-30 02:04:00,74.4,64.0,29.76,South,186,6.0,19.0,70,0.00,,---,0.00,VWS V14.00,2013-05-30 07:04:00,
2013-05-30 02:05:00,74.4,64.0,29.76,South,169,7.0,12.0,70,0.00,,---,0.00,VWS V14.00,2013-05-30 07:05:00,
2013-05-30 02:06:00,74.4,64.0,29.76,SE,146,10.0,11.0,70,0.00,,---,0.00,VWS V14.00,2013-05-30 07:06:00,
2013-05-30 02:07:00,74.4,64.0,29.76,SSE,151,14.0,14.0,70,0.00,,---,0.00,VWS V14.00,2013-05-30 07:07:00,
2013-05-30 02:08:00,74.4,64.0,29.76,SSE,168,6.0,14.0,70,0.00,,---,0.00,VWS V14.00,2013-05-30 07:08:00,
2013-05-30 02:09:00,74.4,64.0,29.76,SSE,165,9.0,13.0,70,0.00,,---,0.00,VWS V14.00,2013-05-30 07:09:00,
2013-05-30 02:10:00,74.4,64.0,29.75,South,169,11.0,18.0,70,0.00,,---,0.00,VWS V14.00,2013-05-30 07:10:00,
2013-05-30 02:11:00,74.2,63.8,29.75,SSE,165,12.0,14.0,70,0.00,,---,0.00,VWS V14.00,2013-05-30 07:11:00,
2013-05-30 02:12:00,74.4,64.0,29.76,SSE,157,12.0,14.0,70,0.00,,---,0.00,VWS V14.00,2013-05-30 07:12:00,
2013-05-30 02:13:00,74.4,64.0,29.75,South,179,4.0,14.0,70,0.00,,---,0.00,VWS V14.00,2013-05-30 07:13:00,
2013-05-30 02:14:00,74.4,64.0,29.75,SSW,205,12.0,12.0,70,0.00,,---,0.00,VWS V14.00,2013-05-30 07:14:00,
2013-05-30 02:15:00,74.4,64.0,29.76,South,188,4.0,12.0,70,0.00,,---,0.00,VWS V14.00,2013-05-30 07:15:00,
2013-05-30 02:16:00,74.4,64.0,29.76,South,173,6.0,12.0,70,0.00,,---,0.00,VWS V14.00,2013-05-30 07:16:00,
2013-05-30 02:17:00,74.2,63.8,29.76,SSE,162,7.0,10.0,70,0.00,,---,0.00,VWS V14.00,2013-05-30 07:17:00,
2013-05-30 02:18:00,74.2,63.8,29.76,SSE,157,9.0,13.0,70,0.00,,---,0.00,VWS V14.00,2013-05-30 07:18:00,
2013-05-30 02:19:00,74.4,64.0,29.76,South,175,5.0,15.0,70,0.00,,---,0.00,VWS V14.00,2013-05-30 07:19:00,
2013-05-30 02:20:00,74.4,64.0,29.76,SSE,155,20.0,20.0,70,0.00,,---,0.00,VWS V14.00,2013-05-30 07:20:00,
2013-05-30 02:21:00,74.4,64.0,29.76,SSE,161,10.0,16.0,70,0.00,,---,0.00,VWS V14.00,2013-05-30 07:21:00,
2013-05-30 02:22:00,74.6,64.2,29.76,South,186,7.0,20.0,70,0.00,,---,0.00,VWS V14.00,2013-05-30 07:22:00,
2013-05-30 02:23:00,74.6,63.8,29.76,SSE,150,11.0,11.0,69,0.00,,---,0.00,VWS V14.00,2013-05-30 07:23:00,
2013-05-30 02:24:00,74.7,63.9,29.76,SSE,167,11.0,14.0,69,0.00,,---,0.00,VWS V14.00,2013-05-30 07:24:00,
2013-05-30 02:25:00,74.7,63.9,29.76,SSE,165,11.0,16.0,69,0.00,,---,0.00,VWS V14.00,2013-05-30 07:25:00,
2013-05-30 02:26:00,74.7,63.9,29.76,South,180,13.0,13.0,69,0.00,,---,0.00,VWS V14.00,2013-05-30 07:26:00,
2013-05-30 02:27:00,74.7,63.9,29.76,SSE,167,14.0,15.0,69,0.00,,---,0.00,VWS V14.00,2013-05-30 07:27:00,
2013-05-30 02:28:00,74.7,63.9,29.76,SE,144,13.0,23.0,69,0.00,,---,0.00,VWS V14.00,2013-05-30 07:28:00,
2013-05-30 02:29:00,74.7,63.9,29.75,South,186,13.0,30.0,69,0.00,,---,0.00,VWS V14.00,2013-05-30 07:29:00,
2013-05-30 02:30:00,74.7,63.9,29.76,SE,138,22.0,30.0,69,0.00,,---,0.00,VWS V14.00,2013-05-30 07:30:00,
2013-05-30 02:31:00,74.7,63.9,29.76,SSE,160,17.0,19.0,69,0.00,,---,0.00,VWS V14.00,2013-05-30 07:31:00,
2013-05-30 02:32:00,74.4,64.4,29.77,SSW,196,12.0,23.0,71,0.08,,---,0.08,VWS V14.00,2013-05-30 07:32:00,
2013-05-30 02:33:00,73.9,64.3,29.78,SSW,196,14.0,21.0,72,0.09,,---,0.09,VWS V14.00,2013-05-30 07:33:00,
2013-05-30 02:34:00,73.0,63.5,29.80,SSW,199,13.0,24.0,72,0.10,,---,0.10,VWS V14.00,2013-05-30 07:34:00,
2013-05-30 02:35:00,72.3,63.9,29.81,SE,126,11.0,21.0,75,0.10,,---,0.10,VWS V14.00,2013-05-30 07:35:00,
2013-05-30 02:36:00,73.0,64.2,29.81,SSW,192,12.0,13.0,74,0.10,,---,0.10,VWS V14.00,2013-05-30 07:36:00,
2013-05-30 02:37:00,70.8,63.2,29.82,South,169,9.0,16.0,77,0.12,,---,0.12,VWS V14.00,2013-05-30 07:37:00,
2013-05-30 02:38:00,70.1,62.6,29.83,SSW,198,10.0,15.0,77,0.12,,---,0.12,VWS V14.00,2013-05-30 07:38:00,
2013-05-30 02:39:00,69.6,62.4,29.83,SSW,192,11.0,21.0,78,0.12,,---,0.12,VWS V14.00,2013-05-30 07:39:00,
2013-05-30 02:40:00,69.1,62.3,29.83,SSW,193,10.0,20.0,79,0.13,,---,0.13,VWS V14.00,2013-05-30 07:40:00,
2013-05-30 02:41:00,69.4,62.2,29.83,South,172,10.0,11.0,78,0.12,,---,0.12,VWS V14.00,2013-05-30 07:41:00,
2013-05-30 02:42:00,68.3,61.5,29.83,WNW,300,9.0,9.0,79,0.14,,---,0.14,VWS V14.00,2013-05-30 07:42:00,
2013-05-30 02:43:00,68.1,61.7,29.83,SW,233,3.0,9.0,80,0.14,,---,0.14,VWS V14.00,2013-05-30 07:43:00,
2013-05-30 02:44:00,67.9,61.5,29.83,SW,232,2.0,3.0,80,0.14,,---,0.14,VWS V14.00,2013-05-30 07:44:00,
2013-05-30 02:45:00,67.6,61.6,29.83,SSW,213,2.0,11.0,81,0.14,,---,0.14,VWS V14.00,2013-05-30 07:45:00,
2013-05-30 02:46:00,67.9,61.5,29.83,SW,220,7.0,7.0,80,0.14,,---,0.14,VWS V14.00,2013-05-30 07:46:00,
2013-05-30 02:47:00,67.3,61.3,29.84,South,189,0.0,4.0,81,0.15,,---,0.15,VWS V14.00,2013-05-30 07:47:00,
2013-05-30 02:48:00,67.1,61.1,29.84,South,190,2.0,5.0,81,0.15,,---,0.15,VWS V14.00,2013-05-30 07:48:00,
2013-05-30 02:49:00,67.1,61.1,29.84,SSW,195,8.0,8.0,81,0.15,,---,0.15,VWS V14.00,2013-05-30 07:49:00,
2013-05-30 02:50:00,66.8,60.8,29.84,South,180,2.0,9.0,81,0.15,,---,0.15,VWS V14.00,2013-05-30 07:50:00,
2013-05-30 02:51:00,67.1,61.1,29.84,SSW,194,3.0,8.0,81,0.15,,---,0.15,VWS V14.00,2013-05-30 07:51:00,
2013-05-30 02:52:00,66.6,60.9,29.84,SSW,198,9.0,11.0,82,0.15,,---,0.15,VWS V14.00,2013-05-30 07:52:00,
2013-05-30 02:53:00,66.4,60.7,29.85,SSW,200,1.0,9.0,82,0.15,,---,0.15,VWS V14.00,2013-05-30 07:53:00,
2013-05-30 02:54:00,66.4,60.7,29.85,SSW,200,1.0,3.0,82,0.15,,---,0.15,VWS V14.00,2013-05-30 07:54:00,
2013-05-30 02:55:00,66.3,61.0,29.85,SSW,200,0.0,4.0,83,0.16,,---,0.16,VWS V14.00,2013-05-30 07:55:00,
2013-05-30 02:56:00,66.4,60.7,29.85,SSW,200,2.0,2.0,82,0.15,,---,0.15,VWS V14.00,2013-05-30 07:56:00,
2013-05-30 02:57:00,66.3,61.0,29.85,SSW,200,4.0,6.0,83,0.16,,---,0.16,VWS V14.00,2013-05-30 07:57:00,
2013-05-30 02:58:00,66.3,61.3,29.85,SSW,200,2.0,5.0,84,0.16,,---,0.16,VWS V14.00,2013-05-30 07:58:00,
2013-05-30 02:59:00,66.1,61.1,29.84,SSW,200,0.0,2.0,84,0.16,,---,0.16,VWS V14.00,2013-05-30 07:59:00,
2013-05-30 03:00:00,66.1,61.1,29.84,SSW,200,2.0,4.0,84,0.16,,---,0.16,VWS V14.00,2013-05-30 08:00:00,
2013-05-30 03:01:00,66.1,61.1,29.84,SSW,200,0.0,0.0,84,0.16,,---,0.16,VWS V14.00,2013-05-30 08:01:00,
2013-05-30 03:02:00,66.1,61.5,29.84,SSW,199,5.0,6.0,85,0.16,,---,0.16,VWS V14.00,2013-05-30 08:02:00,
2013-05-30 03:03:00,66.0,61.4,29.84,South,175,5.0,10.0,85,0.16,,---,0.16,VWS V14.00,2013-05-30 08:03:00,
2013-05-30 03:04:00,65.8,61.5,29.85,South,175,4.0,6.0,86,0.16,,---,0.16,VWS V14.00,2013-05-30 08:04:00,
2013-05-30 03:05:00,65.8,61.5,29.85,South,174,5.0,7.0,86,0.17,,---,0.17,VWS V14.00,2013-05-30 08:05:00,
2013-05-30 03:06:00,65.8,61.5,29.85,South,175,4.0,4.0,86,0.17,,---,0.17,VWS V14.00,2013-05-30 08:06:00,
2013-05-30 03:07:00,65.6,61.3,29.85,South,174,5.0,6.0,86,0.17,,---,0.17,VWS V14.00,2013-05-30 08:07:00,
2013-05-30 03:08:00,65.5,61.2,29.85,South,174,4.0,5.0,86,0.17,,---,0.17,VWS V14.00,2013-05-30 08:08:00,
2013-05-30 03:09:00,65.3,61.0,29.85,South,174,6.0,6.0,86,0.17,,---,0.17,VWS V14.00,2013-05-30 08:09:00,
2013-05-30 03:10:00,65.3,61.0,29.85,South,174,2.0,6.0,86,0.18,,---,0.18,VWS V14.00,2013-05-30 08:10:00,
2013-05-30 03:11:00,65.3,61.0,29.85,South,174,4.0,6.0,86,0.17,,---,0.17,VWS V14.00,2013-05-30 08:11:00,
2013-05-30 03:12:00,65.2,60.9,29.85,South,174,0.0,3.0,86,0.18,,---,0.18,VWS V14.00,2013-05-30 08:12:00,
2013-05-30 03:13:00,65.2,61.2,29.85,South,174,4.0,4.0,87,0.18,,---,0.18,VWS V14.00,2013-05-30 08:13:00,
2013-05-30 03:14:00,65.0,61.0,29.85,South,174,2.0,6.0,87,0.18,,---,0.18,VWS V14.00,2013-05-30 08:14:00,
2013-05-30 03:15:00,65.0,61.0,29.85,South,174,2.0,4.0,87,0.18,,---,0.18,VWS V14.00,2013-05-30 08:15:00,
2013-05-30 03:16:00,65.0,61.0,29.85,South,174,1.0,2.0,87,0.18,,---,0.18,VWS V14.00,2013-05-30 08:16:00,
2013-05-30 03:17:00,64.8,60.8,29.84,South,174,7.0,7.0,87,0.18,,---,0.18,VWS V14.00,2013-05-30 08:17:00,
2013-05-30 03:18:00,64.8,60.8,29.84,South,174,4.0,7.0,87,0.19,,---,0.19,VWS V14.00,2013-05-30 08:18:00,
2013-05-30 03:19:00,64.8,60.8,29.84,South,174,0.0,5.0,87,0.19,,---,0.19,VWS V14.00,2013-05-30 08:19:00,
2013-05-30 03:20:00,64.7,60.8,29.85,South,174,0.0,0.0,87,0.19,,---,0.19,VWS V14.00,2013-05-30 08:20:00,
2013-05-30 03:21:00,64.8,60.8,29.84,South,174,0.0,5.0,87,0.19,,---,0.19,VWS V14.00,2013-05-30 08:21:00,
2013-05-30 03:22:00,64.7,60.8,29.85,South,174,0.0,5.0,87,0.19,,---,0.19,VWS V14.00,2013-05-30 08:22:00,
2013-05-30 03:23:00,64.7,60.8,29.85,South,174,0.0,1.0,87,0.19,,---,0.19,VWS V14.00,2013-05-30 08:23:00,
2013-05-30 03:24:00,64.7,61.1,29.85,South,174,0.0,2.0,88,0.20,,---,0.20,VWS V14.00,2013-05-30 08:24:00,
2013-05-30 03:25:00,64.7,61.1,29.85,South,174,0.0,4.0,88,0.20,,---,0.20,VWS V14.00,2013-05-30 08:25:00,
2013-05-30 03:26:00,64.7,61.1,29.85,South,174,0.0,2.0,88,0.20,,---,0.20,VWS V14.00,2013-05-30 08:26:00,
2013-05-30 03:27:00,64.5,60.9,29.85,South,173,7.0,9.0,88,0.21,,---,0.21,VWS V14.00,2013-05-30 08:27:00,
2013-05-30 03:28:00,64.5,60.9,29.84,South,170,7.0,10.0,88,0.22,,---,0.22,VWS V14.00,2013-05-30 08:28:00,
2013-05-30 03:29:00,64.5,61.2,29.85,South,169,7.0,7.0,89,0.22,,---,0.22,VWS V14.00,2013-05-30 08:29:00,
2013-05-30 03:30:00,64.5,61.2,29.85,South,169,2.0,8.0,89,0.23,,---,0.23,VWS V14.00,2013-05-30 08:30:00,
2013-05-30 03:31:00,64.5,61.2,29.85,South,169,7.0,7.0,89,0.22,,---,0.22,VWS V14.00,2013-05-30 08:31:00,
2013-05-30 03:32:00,64.5,61.2,29.85,South,169,3.0,5.0,89,0.22,,---,0.24,VWS V14.00,2013-05-30 08:32:00,
2013-05-30 03:33:00,64.5,61.2,29.85,South,169,4.0,5.0,89,0.17,,---,0.25,VWS V14.00,2013-05-30 08:33:00,
2013-05-30 03:34:00,64.5,61.2,29.85,South,169,5.0,5.0,89,0.16,,---,0.25,VWS V14.00,2013-05-30 08:34:00,
2013-05-30 03:35:00,64.3,61.0,29.85,South,169,5.0,5.0,89,0.15,,---,0.25,VWS V14.00,2013-05-30 08:35:00,
2013-05-30 03:36:00,64.5,61.2,29.85,South,169,5.0,5.0,89,0.16,,---,0.25,VWS V14.00,2013-05-30 08:36:00,
2013-05-30 03:37:00,64.3,61.0,29.84,South,169,4.0,5.0,89,0.14,,---,0.25,VWS V14.00,2013-05-30 08:37:00,
2013-05-30 03:38:00,64.3,61.0,29.84,South,169,0.0,5.0,89,0.14,,---,0.26,VWS V14.00,2013-05-30 08:38:00,
2013-05-30 03:39:00,64.3,61.0,29.84,South,169,2.0,5.0,89,0.14,,---,0.26,VWS V14.00,2013-05-30 08:39:00,
2013-05-30 03:40:00,64.3,61.0,29.84,South,169,3.0,5.0,89,0.14,,---,0.26,VWS V14.00,2013-05-30 08:40:00,
2013-05-30 03:41:00,64.2,60.9,29.83,South,169,0.0,0.0,89,0.13,,---,0.26,VWS V14.00,2013-05-30 08:41:00,
2013-05-30 03:42:00,64.2,60.9,29.83,South,169,4.0,5.0,89,0.12,,---,0.26,VWS V14.00,2013-05-30 08:42:00,
2013-05-30 03:43:00,64.2,60.9,29.83,South,169,3.0,4.0,89,0.12,,---,0.26,VWS V14.00,2013-05-30 08:43:00,
2013-05-30 03:44:00,64.2,60.9,29.83,South,169,0.0,4.0,89,0.12,,---,0.26,VWS V14.00,2013-05-30 08:44:00,
2013-05-30 03:45:00,64.2,60.9,29.83,South,169,0.0,4.0,89,0.12,,---,0.26,VWS V14.00,2013-05-30 08:45:00,
2013-05-30 03:46:00,64.2,60.9,29.83,South,169,2.0,2.0,89,0.12,,---,0.26,VWS V14.00,2013-05-30 08:46:00,
2013-05-30 03:47:00,64.2,60.9,29.83,South,169,5.0,5.0,89,0.12,,---,0.26,VWS V14.00,2013-05-30 08:47:00,
2013-05-30 03:48:00,64.2,60.9,29.83,South,169,4.0,5.0,89,0.11,,---,0.26,VWS V14.00,2013-05-30 08:48:00,
2013-05-30 03:49:00,64.2,60.9,29.83,South,169,4.0,5.0,89,0.11,,---,0.26,VWS V14.00,2013-05-30 08:49:00,
2013-05-30 03:50:00,64.2,60.9,29.83,South,169,5.0,5.0,89,0.11,,---,0.26,VWS V14.00,2013-05-30 08:50:00,
2013-05-30 03:51:00,64.0,60.7,29.83,South,169,1.0,6.0,89,0.11,,---,0.26,VWS V14.00,2013-05-30 08:51:00,
2013-05-30 03:52:00,64.0,60.7,29.83,South,169,3.0,6.0,89,0.11,,---,0.26,VWS V14.00,2013-05-30 08:52:00,
2013-05-30 03:53:00,64.0,60.7,29.84,South,169,4.0,5.0,89,0.11,,---,0.26,VWS V14.00,2013-05-30 08:53:00,
2013-05-30 03:54:00,64.0,61.0,29.84,South,170,3.0,8.0,90,0.11,,---,0.26,VWS V14.00,2013-05-30 08:54:00,
2013-05-30 03:55:00,64.0,61.0,29.84,South,170,3.0,8.0,90,0.11,,---,0.26,VWS V14.00,2013-05-30 08:55:00,
2013-05-30 03:56:00,64.0,61.0,29.85,SSE,163,9.0,9.0,90,0.11,,---,0.27,VWS V14.00,2013-05-30 08:56:00,
2013-05-30 03:57:00,64.0,61.0,29.85,South,177,4.0,10.0,90,0.11,,---,0.27,VWS V14.00,2013-05-30 08:57:00,
2013-05-30 03:58:00,64.0,61.0,29.85,South,177,5.0,5.0,90,0.12,,---,0.28,VWS V14.00,2013-05-30 08:58:00,
2013-05-30 03:59:00,64.0,61.0,29.85,South,177,0.0,5.0,90,0.12,,---,0.28,VWS V14.00,2013-05-30 08:59:00,
2013-05-30 04:00:00,64.0,61.0,29.85,South,177,0.0,5.0,90,0.12,,---,0.28,VWS V14.00,2013-05-30 09:00:00,
2013-05-30 04:01:00,64.0,61.0,29.84,South,177,1.0,9.0,90,0.12,,---,0.28,VWS V14.00,2013-05-30 09:01:00,
2013-05-30 04:02:00,63.9,60.9,29.84,South,177,2.0,5.0,90,0.12,,---,0.28,VWS V14.00,2013-05-30 09:02:00,
2013-05-30 04:03:00,63.9,60.9,29.84,South,177,2.0,8.0,90,0.12,,---,0.28,VWS V14.00,2013-05-30 09:03:00,
2013-05-30 04:04:00,63.9,60.9,29.84,South,177,0.0,3.0,90,0.12,,---,0.28,VWS V14.00,2013-05-30 09:04:00,
2013-05-30 04:05:00,63.9,60.9,29.84,South,177,0.0,3.0,90,0.12,,---,0.28,VWS V14.00,2013-05-30 09:05:00,
2013-05-30 04:06:00,63.9,60.9,29.83,South,177,0.0,0.0,90,0.11,,---,0.28,VWS V14.00,2013-05-30 09:06:00,
2013-05-30 04:07:00,63.9,60.9,29.83,South,177,4.0,5.0,90,0.11,,---,0.28,VWS V14.00,2013-05-30 09:07:00,
2013-05-30 04:08:00,63.9,60.9,29.83,South,177,5.0,7.0,90,0.11,,---,0.28,VWS V14.00,2013-05-30 09:08:00,
2013-05-30 04:09:00,63.9,60.9,29.83,South,177,0.0,6.0,90,0.11,,---,0.28,VWS V14.00,2013-05-30 09:09:00,
2013-05-30 04:10:00,63.9,60.9,29.83,South,177,0.0,6.0,90,0.11,,---,0.28,VWS V14.00,2013-05-30 09:10:00,
2013-05-30 04:11:00,63.9,60.9,29.83,South,171,5.0,10.0,90,0.10,,---,0.28,VWS V14.00,2013-05-30 09:11:00,
2013-05-30 04:12:00,63.9,60.9,29.83,South,170,4.0,7.0,90,0.10,,---,0.28,VWS V14.00,2013-05-30 09:12:00,
2013-05-30 04:13:00,63.7,60.7,29.82,South,169,3.0,6.0,90,0.10,,---,0.28,VWS V14.00,2013-05-30 09:13:00,
2013-05-30 04:14:00,63.7,60.7,29.82,South,169,7.0,7.0,90,0.11,,---,0.29,VWS V14.00,2013-05-30 09:14:00,
2013-05-30 04:15:00,63.7,60.7,29.82,South,169,6.0,6.0,90,0.11,,---,0.29,VWS V14.00,2013-05-30 09:15:00,
2013-05-30 04:16:00,63.9,60.9,29.82,South,169,0.0,2.0,90,0.11,,---,0.29,VWS V14.00,2013-05-30 09:16:00,
2013-05-30 04:17:00,63.7,60.7,29.82,South,169,0.0,6.0,90,0.11,,---,0.29,VWS V14.00,2013-05-30 09:17:00,
2013-05-30 04:18:00,63.7,60.7,29.82,South,169,0.0,2.0,90,0.11,,---,0.29,VWS V14.00,2013-05-30 09:18:00,
2013-05-30 04:19:00,63.7,60.7,29.82,South,169,0.0,0.0,90,0.10,,---,0.29,VWS V14.00,2013-05-30 09:19:00,
2013-05-30 04:20:00,63.7,60.7,29.82,South,169,0.0,0.0,90,0.10,,---,0.29,VWS V14.00,2013-05-30 09:20:00,
2013-05-30 04:21:00,63.7,60.7,29.82,South,169,3.0,5.0,90,0.10,,---,0.29,VWS V14.00,2013-05-30 09:21:00,
2013-05-30 04:22:00,63.7,60.7,29.82,South,169,5.0,5.0,90,0.10,,---,0.29,VWS V14.00,2013-05-30 09:22:00,
2013-05-30 04:23:00,63.9,60.9,29.82,South,169,0.0,5.0,90,0.10,,---,0.29,VWS V14.00,2013-05-30 09:23:00,
2013-05-30 04:24:00,63.9,60.9,29.82,South,169,1.0,1.0,90,0.11,,---,0.30,VWS V14.00,2013-05-30 09:24:00,
2013-05-30 04:25:00,63.9,60.9,29.82,South,169,0.0,1.0,90,0.11,,---,0.30,VWS V14.00,2013-05-30 09:25:00,
2013-05-30 04:26:00,63.7,60.7,29.82,South,169,0.0,2.0,90,0.10,,---,0.30,VWS V14.00,2013-05-30 09:26:00,
2013-05-30 04:27:00,63.7,60.7,29.82,South,169,4.0,5.0,90,0.10,,---,0.30,VWS V14.00,2013-05-30 09:27:00,
2013-05-30 04:28:00,63.7,60.7,29.82,South,169,2.0,4.0,90,0.09,,---,0.30,VWS V14.00,2013-05-30 09:28:00,
2013-05-30 04:29:00,63.7,60.7,29.81,South,169,0.0,4.0,90,0.08,,---,0.30,VWS V14.00,2013-05-30 09:29:00,
2013-05-30 04:30:00,63.7,60.7,29.81,South,169,0.0,4.0,90,0.08,,---,0.30,VWS V14.00,2013-05-30 09:30:00,
2013-05-30 04:31:00,63.7,60.7,29.81,South,169,0.0,2.0,90,0.07,,---,0.30,VWS V14.00,2013-05-30 09:31:00,
2013-05-30 04:32:00,63.9,60.9,29.81,South,169,4.0,6.0,90,0.07,,---,0.30,VWS V14.00,2013-05-30 09:32:00,
2013-05-30 04:33:00,63.9,60.9,29.80,South,169,0.0,9.0,90,0.06,,---,0.30,VWS V14.00,2013-05-30 09:33:00,
2013-05-30 04:34:00,63.9,60.9,29.80,South,169,1.0,1.0,90,0.05,,---,0.30,VWS V14.00,2013-05-30 09:34:00,
2013-05-30 04:35:00,63.9,60.9,29.80,South,169,0.0,0.0,90,0.05,,---,0.30,VWS V14.00,2013-05-30 09:35:00,
2013-05-30 04:36:00,63.9,60.9,29.80,South,169,0.0,3.0,90,0.05,,---,0.30,VWS V14.00,2013-05-30 09:36:00,
2013-05-30 04:37:00,63.9,60.9,29.80,South,169,0.0,0.0,90,0.05,,---,0.30,VWS V14.00,2013-05-30 09:37:00,
2013-05-30 04:38:00,63.9,60.9,29.80,South,169,3.0,5.0,90,0.05,,---,0.30,VWS V14.00,2013-05-30 09:38:00,
2013-05-30 04:39:00,63.9,60.9,29.80,South,169,2.0,4.0,90,0.04,,---,0.30,VWS V14.00,2013-05-30 09:39:00,
2013-05-30 04:40:00,63.9,60.9,29.80,South,169,1.0,4.0,90,0.04,,---,0.30,VWS V14.00,2013-05-30 09:40:00,
2013-05-30 04:41:00,63.9,60.9,29.80,South,169,6.0,7.0,90,0.04,,---,0.30,VWS V14.00,2013-05-30 09:41:00,
2013-05-30 04:42:00,63.9,60.9,29.80,SSE,159,10.0,10.0,90,0.04,,---,0.30,VWS V14.00,2013-05-30 09:42:00,
2013-05-30 04:43:00,63.9,60.9,29.79,SSE,159,7.0,10.0,90,0.04,,---,0.30,VWS V14.00,2013-05-30 09:43:00,
2013-05-30 04:44:00,63.9,60.9,29.79,SSE,159,0.0,7.0,90,0.04,,---,0.30,VWS V14.00,2013-05-30 09:44:00,
2013-05-30 04:45:00,63.9,60.9,29.79,SSE,159,0.0,7.0,90,0.04,,---,0.30,VWS V14.00,2013-05-30 09:45:00,
2013-05-30 04:46:00,63.9,60.9,29.79,SSE,157,0.0,9.0,90,0.04,,---,0.30,VWS V14.00,2013-05-30 09:46:00,
2013-05-30 04:47:00,63.9,60.9,29.79,SSE,157,0.0,0.0,90,0.04,,---,0.30,VWS V14.00,2013-05-30 09:47:00,
2013-05-30 04:48:00,63.9,60.9,29.79,SSE,157,0.0,2.0,90,0.04,,---,0.30,VWS V14.00,2013-05-30 09:48:00,
2013-05-30 04:49:00,63.9,60.9,29.79,SSE,157,3.0,4.0,90,0.04,,---,0.30,VWS V14.00,2013-05-30 09:49:00,
2013-05-30 04:50:00,63.9,60.9,29.79,SSE,157,4.0,4.0,90,0.04,,---,0.30,VWS V14.00,2013-05-30 09:50:00,
2013-05-30 04:51:00,63.9,60.6,29.79,SSE,157,3.0,4.0,89,0.04,,---,0.30,VWS V14.00,2013-05-30 09:51:00,
2013-05-30 04:52:00,63.9,60.9,29.79,SSE,157,0.0,3.0,90,0.04,,---,0.30,VWS V14.00,2013-05-30 09:52:00,
2013-05-30 04:53:00,63.7,60.4,29.79,SSE,157,4.0,4.0,89,0.04,,---,0.30,VWS V14.00,2013-05-30 09:53:00,
2013-05-30 04:54:00,63.7,60.4,29.79,SSE,157,0.0,6.0,89,0.04,,---,0.30,VWS V14.00,2013-05-30 09:54:00,
2013-05-30 04:55:00,63.7,60.4,29.79,SSE,157,0.0,6.0,89,0.04,,---,0.30,VWS V14.00,2013-05-30 09:55:00,
2013-05-30 04:56:00,63.7,60.4,29.80,SSE,157,0.0,0.0,89,0.04,,---,0.30,VWS V14.00,2013-05-30 09:56:00,
2013-05-30 04:57:00,63.7,60.4,29.80,SSE,157,0.0,0.0,89,0.03,,---,0.30,VWS V14.00,2013-05-30 09:57:00,
2013-05-30 04:58:00,63.7,60.4,29.80,SSE,157,0.0,0.0,89,0.03,,---,0.30,VWS V14.00,2013-05-30 09:58:00,
2013-05-30 04:59:00,63.7,60.4,29.80,SSE,157,0.0,0.0,89,0.02,,---,0.30,VWS V14.00,2013-05-30 09:59:00,
2013-05-30 05:00:00,63.7,60.4,29.80,SSE,157,0.0,0.0,89,0.02,,---,0.30,VWS V14.00,2013-05-30 10:00:00,
2013-05-30 05:01:00,63.7,60.4,29.80,SSE,157,0.0,0.0,89,0.02,,---,0.30,VWS V14.00,2013-05-30 10:01:00,
2013-05-30 05:02:00,63.5,60.2,29.80,SSE,157,0.0,0.0,89,0.02,,---,0.30,VWS V14.00,2013-05-30 10:02:00,
2013-05-30 05:03:00,63.5,60.2,29.80,SSE,157,0.0,0.0,89,0.02,,---,0.30,VWS V14.00,2013-05-30 10:03:00,
2013-05-30 05:04:00,63.5,60.2,29.79,SSE,157,0.0,0.0,89,0.02,,---,0.30,VWS V14.00,2013-05-30 10:04:00,
2013-05-30 05:05:00,63.5,60.2,29.79,SSE,157,0.0,0.0,89,0.02,,---,0.30,VWS V14.00,2013-05-30 10:05:00,
2013-05-30 05:06:00,63.5,60.2,29.79,SSE,157,0.0,3.0,89,0.02,,---,0.30,VWS V14.00,2013-05-30 10:06:00,
2013-05-30 05:07:00,63.5,60.2,29.79,SSE,157,0.0,0.0,89,0.02,,---,0.30,VWS V14.00,2013-05-30 10:07:00,
2013-05-30 05:08:00,63.7,60.4,29.80,SSE,157,0.0,0.0,89,0.02,,---,0.30,VWS V14.00,2013-05-30 10:08:00,
2013-05-30 05:09:00,63.7,60.4,29.80,SSE,157,0.0,0.0,89,0.02,,---,0.30,VWS V14.00,2013-05-30 10:09:00,
2013-05-30 05:10:00,63.7,60.4,29.80,SSE,157,0.0,0.0,89,0.02,,---,0.30,VWS V14.00,2013-05-30 10:10:00,
2013-05-30 05:11:00,63.7,60.4,29.79,SSE,157,3.0,3.0,89,0.02,,---,0.30,VWS V14.00,2013-05-30 10:11:00,
2013-05-30 05:12:00,63.7,60.4,29.79,SSE,157,0.0,3.0,89,0.02,,---,0.30,VWS V14.00,2013-05-30 10:12:00,
2013-05-30 05:13:00,63.7,60.4,29.79,SSE,157,2.0,3.0,89,0.02,,---,0.30,VWS V14.00,2013-05-30 10:13:00,
2013-05-30 05:14:00,63.5,60.2,29.79,SSE,157,0.0,4.0,89,0.02,,---,0.30,VWS V14.00,2013-05-30 10:14:00,
2013-05-30 05:15:00,63.5,60.2,29.79,SSE,157,0.0,4.0,89,0.02,,---,0.30,VWS V14.00,2013-05-30 10:15:00,
2013-05-30 05:16:00,63.5,60.2,29.79,SSE,157,3.0,5.0,89,0.01,,---,0.30,VWS V14.00,2013-05-30 10:16:00,
2013-05-30 05:17:00,63.5,60.2,29.79,SSE,157,3.0,5.0,89,0.01,,---,0.30,VWS V14.00,2013-05-30 10:17:00,
2013-05-30 05:18:00,63.5,60.5,29.79,SSE,157,4.0,5.0,90,0.01,,---,0.30,VWS V14.00,2013-05-30 10:18:00,
2013-05-30 05:19:00,63.4,60.4,29.79,SSE,157,6.0,6.0,90,0.01,,---,0.30,VWS V14.00,2013-05-30 10:19:00,
2013-05-30 05:20:00,63.4,60.4,29.79,SSE,157,4.0,4.0,90,0.01,,---,0.30,VWS V14.00,2013-05-30 10:20:00,
2013-05-30 05:21:00,63.4,60.4,29.79,SSE,157,2.0,4.0,90,0.01,,---,0.30,VWS V14.00,2013-05-30 10:21:00,
2013-05-30 05:22:00,63.4,60.4,29.79,SSE,157,0.0,6.0,90,0.01,,---,0.30,VWS V14.00,2013-05-30 10:22:00,
2013-05-30 05:23:00,63.4,60.4,29.79,SSE,157,4.0,6.0,90,0.01,,---,0.30,VWS V14.00,2013-05-30 10:23:00,
2013-05-30 05:24:00,63.4,60.4,29.79,SSE,157,4.0,6.0,90,0.01,,---,0.30,VWS V14.00,2013-05-30 10:24:00,
2013-05-30 05:25:00,63.4,60.4,29.79,SSE,157,4.0,6.0,90,0.01,,---,0.30,VWS V14.00,2013-05-30 10:25:00,
2013-05-30 05:26:00,63.4,60.4,29.79,SSE,157,5.0,6.0,90,0.00,,---,0.30,VWS V14.00,2013-05-30 10:26:00,
2013-05-30 05:27:00,63.4,60.4,29.79,SSE,157,5.0,6.0,90,0.00,,---,0.30,VWS V14.00,2013-05-30 10:27:00,
2013-05-30 05:28:00,63.4,60.4,29.79,SSE,157,7.0,7.0,90,0.00,,---,0.30,VWS V14.00,2013-05-30 10:28:00,
2013-05-30 05:29:00,63.4,60.4,29.79,SSE,157,7.0,7.0,90,0.00,,---,0.30,VWS V14.00,2013-05-30 10:29:00,
2013-05-30 05:30:00,63.4,60.4,29.79,SSE,157,4.0,7.0,90,0.00,,---,0.30,VWS V14.00,2013-05-30 10:30:00,
2013-05-30 05:31:00,63.4,60.7,29.79,SSE,157,6.0,7.0,91,0.00,,---,0.30,VWS V14.00,2013-05-30 10:31:00,
2013-05-30 05:32:00,63.4,60.7,29.79,SSE,157,8.0,8.0,91,0.00,,---,0.30,VWS V14.00,2013-05-30 10:32:00,
2013-05-30 05:33:00,63.2,60.5,29.79,SSE,157,6.0,9.0,91,0.00,,---,0.30,VWS V14.00,2013-05-30 10:33:00,
2013-05-30 05:34:00,63.4,60.7,29.79,SSE,157,3.0,7.0,91,0.00,,---,0.30,VWS V14.00,2013-05-30 10:34:00,
2013-05-30 05:35:00,63.4,60.7,29.79,SSE,157,4.0,7.0,91,0.00,,---,0.30,VWS V14.00,2013-05-30 10:35:00,
2013-05-30 05:36:00,63.2,60.5,29.79,SSE,157,0.0,5.0,91,0.00,,---,0.30,VWS V14.00,2013-05-30 10:36:00,
2013-05-30 05:37:00,63.2,60.5,29.79,SSE,157,0.0,4.0,91,0.00,,---,0.30,VWS V14.00,2013-05-30 10:37:00,
2013-05-30 05:38:00,63.2,60.5,29.79,SSE,157,0.0,3.0,91,0.00,,---,0.30,VWS V14.00,2013-05-30 10:38:00,
2013-05-30 05:39:00,63.2,60.5,29.79,SSE,157,0.0,0.0,91,0.00,,---,0.30,VWS V14.00,2013-05-30 10:39:00,
2013-05-30 05:40:00,63.2,60.5,29.79,SSE,157,0.0,0.0,91,0.00,,---,0.30,VWS V14.00,2013-05-30 10:40:00,
2013-05-30 05:41:00,63.1,60.4,29.79,SSE,157,5.0,5.0,91,0.00,,---,0.30,VWS V14.00,2013-05-30 10:41:00,
2013-05-30 05:42:00,63.1,60.4,29.79,SSE,157,1.0,5.0,91,0.00,,---,0.30,VWS V14.00,2013-05-30 10:42:00,
2013-05-30 05:43:00,63.1,60.4,29.79,SSE,157,6.0,6.0,91,0.00,,---,0.30,VWS V14.00,2013-05-30 10:43:00,
2013-05-30 05:44:00,63.1,60.4,29.79,SSE,157,3.0,6.0,91,0.00,,---,0.30,VWS V14.00,2013-05-30 10:44:00,
2013-05-30 05:45:00,63.1,60.4,29.79,SSE,157,3.0,6.0,91,0.00,,---,0.30,VWS V14.00,2013-05-30 10:45:00,
2013-05-30 05:46:00,62.9,60.2,29.79,SSE,156,4.0,9.0,91,0.00,,---,0.30,VWS V14.00,2013-05-30 10:46:00,
2013-05-30 05:47:00,62.9,60.2,29.79,SSE,156,7.0,7.0,91,0.00,,---,0.30,VWS V14.00,2013-05-30 10:47:00,
2013-05-30 05:48:00,62.9,60.2,29.79,SSE,156,0.0,7.0,91,0.00,,---,0.30,VWS V14.00,2013-05-30 10:48:00,
2013-05-30 05:49:00,62.9,60.2,29.79,SSE,156,4.0,8.0,91,0.00,,---,0.30,VWS V14.00,2013-05-30 10:49:00,
2013-05-30 05:50:00,62.9,60.2,29.79,SSE,156,8.0,8.0,91,0.00,,---,0.30,VWS V14.00,2013-05-30 10:50:00,
2013-05-30 05:51:00,62.9,60.2,29.79,SSE,156,9.0,10.0,91,0.00,,---,0.30,VWS V14.00,2013-05-30 10:51:00,
2013-05-30 05:52:00,62.9,60.2,29.79,SSE,155,5.0,10.0,91,0.00,,---,0.30,VWS V14.00,2013-05-30 10:52:00,
2013-05-30 05:53:00,62.9,60.2,29.79,SSE,155,0.0,5.0,91,0.00,,---,0.30,VWS V14.00,2013-05-30 10:53:00,
2013-05-30 05:54:00,62.9,60.2,29.79,SSE,155,0.0,3.0,91,0.00,,---,0.30,VWS V14.00,2013-05-30 10:54:00,
2013-05-30 05:55:00,62.9,60.2,29.79,SSE,155,2.0,3.0,91,0.00,,---,0.30,VWS V14.00,2013-05-30 10:55:00,
2013-05-30 05:56:00,62.9,60.2,29.79,SSE,155,1.0,1.0,91,0.00,,---,0.30,VWS V14.00,2013-05-30 10:56:00,
2013-05-30 05:57:00,62.9,60.2,29.79,SSE,155,5.0,10.0,91,0.00,,---,0.30,VWS V14.00,2013-05-30 10:57:00,
2013-05-30 05:58:00,62.9,60.2,29.79,SSE,155,3.0,9.0,91,0.00,,---,0.30,VWS V14.00,2013-05-30 10:58:00,
2013-05-30 05:59:00,62.9,60.2,29.79,SSE,155,6.0,9.0,91,0.00,,---,0.30,VWS V14.00,2013-05-30 10:59:00,
2013-05-30 06:00:00,62.9,60.2,29.79,SSE,155,4.0,9.0,91,0.00,,---,0.30,VWS V14.00,2013-05-30 11:00:00,
2013-05-30 06:01:00,62.9,60.2,29.79,SSE,155,2.0,6.0,91,0.00,,---,0.30,VWS V14.00,2013-05-30 11:01:00,
2013-05-30 06:02:00,62.9,60.2,29.79,SSE,154,5.0,10.0,91,0.00,,---,0.30,VWS V14.00,2013-05-30 11:02:00,
2013-05-30 06:03:00,62.9,60.2,29.79,SSE,153,9.0,12.0,91,0.00,,---,0.30,VWS V14.00,2013-05-30 11:03:00,
2013-05-30 06:04:00,62.9,60.2,29.79,SSE,153,0.0,9.0,91,0.00,,---,0.30,VWS V14.00,2013-05-30 11:04:00,
2013-05-30 06:05:00,62.9,60.2,29.79,SSE,153,0.0,9.0,91,0.00,,---,0.30,VWS V14.00,2013-05-30 11:05:00,
2013-05-30 06:06:00,62.9,60.2,29.79,SSE,153,7.0,10.0,91,0.00,,---,0.30,VWS V14.00,2013-05-30 11:06:00,
2013-05-30 06:07:00,62.9,60.2,29.79,SSE,153,2.0,10.0,91,0.00,,---,0.30,VWS V14.00,2013-05-30 11:07:00,
2013-05-30 06:08:00,62.9,60.2,29.79,SSE,153,5.0,6.0,91,0.00,,---,0.30,VWS V14.00,2013-05-30 11:08:00,
2013-05-30 06:09:00,62.9,60.2,29.79,SSE,153,5.0,6.0,91,0.00,,---,0.30,VWS V14.00,2013-05-30 11:09:00,
2013-05-30 06:10:00,62.9,60.2,29.79,SSE,153,4.0,5.0,91,0.00,,---,0.30,VWS V14.00,2013-05-30 11:10:00,
2013-05-30 06:11:00,63.1,60.4,29.79,SSE,152,9.0,9.0,91,0.00,,---,0.30,VWS V14.00,2013-05-30 11:11:00,
2013-05-30 06:12:00,63.1,60.4,29.79,SSE,151,10.0,10.0,91,0.00,,---,0.30,VWS V14.00,2013-05-30 11:12:00,
2013-05-30 06:13:00,62.9,60.2,29.79,SSE,150,3.0,11.0,91,0.00,,---,0.30,VWS V14.00,2013-05-30 11:13:00,
2013-05-30 06:14:00,63.1,60.4,29.79,SSE,150,8.0,8.0,91,0.00,,---,0.30,VWS V14.00,2013-05-30 11:14:00,
2013-05-30 06:15:00,63.1,60.4,29.79,SSE,150,6.0,7.0,91,0.00,,---,0.30,VWS V14.00,2013-05-30 11:15:00,
2013-05-30 06:16:00,63.1,60.4,29.79,SSE,150,5.0,10.0,91,0.00,,---,0.30,VWS V14.00,2013-05-30 11:16:00,
2013-05-30 06:17:00,63.1,60.4,29.79,SSE,149,8.0,10.0,91,0.00,,---,0.30,VWS V14.00,2013-05-30 11:17:00,
2013-05-30 06:18:00,62.9,60.2,29.79,SE,146,4.0,13.0,91,0.00,,---,0.30,VWS V14.00,2013-05-30 11:18:00,
2013-05-30 06:19:00,63.1,60.4,29.79,SE,146,4.0,9.0,91,0.00,,---,0.30,VWS V14.00,2013-05-30 11:19:00,
2013-05-30 06:20:00,63.1,60.4,29.79,SE,146,7.0,9.0,91,0.00,,---,0.30,VWS V14.00,2013-05-30 11:20:00,
2013-05-30 06:21:00,63.1,60.4,29.79,ESE,117,1.0,9.0,91,0.00,,---,0.30,VWS V14.00,2013-05-30 11:21:00,
2013-05-30 06:22:00,63.1,60.4,29.79,ESE,117,7.0,7.0,91,0.00,,---,0.30,VWS V14.00,2013-05-30 11:22:00,
2013-05-30 06:23:00,63.1,60.4,29.79,ESE,117,6.0,11.0,91,0.00,,---,0.30,VWS V14.00,2013-05-30 11:23:00,
2013-05-30 06:24:00,63.1,60.4,29.79,ESE,117,7.0,10.0,91,0.00,,---,0.30,VWS V14.00,2013-05-30 11:24:00,
2013-05-30 06:25:00,63.1,60.4,29.79,ESE,117,6.0,10.0,91,0.00,,---,0.30,VWS V14.00,2013-05-30 11:25:00,
2013-05-30 06:26:00,63.1,60.4,29.79,ESE,109,8.0,10.0,91,0.00,,---,0.30,VWS V14.00,2013-05-30 11:26:00,
2013-05-30 06:27:00,63.1,60.4,29.79,SE,130,9.0,11.0,91,0.00,,---,0.30,VWS V14.00,2013-05-30 11:27:00,
2013-05-30 06:28:00,63.1,60.4,29.79,SE,130,4.0,9.0,91,0.00,,---,0.30,VWS V14.00,2013-05-30 11:28:00,
2013-05-30 06:29:00,63.1,60.4,29.79,SSE,164,1.0,9.0,91,0.00,,---,0.30,VWS V14.00,2013-05-30 11:29:00,
2013-05-30 06:30:00,63.1,60.4,29.79,SSE,164,4.0,9.0,91,0.00,,---,0.30,VWS V14.00,2013-05-30 11:30:00,
2013-05-30 06:31:00,63.1,60.4,29.79,SE,126,5.0,9.0,91,0.00,,---,0.30,VWS V14.00,2013-05-30 11:31:00,
2013-05-30 06:32:00,63.2,60.5,29.79,ESE,112,6.0,9.0,91,0.00,,---,0.30,VWS V14.00,2013-05-30 11:32:00,
2013-05-30 06:33:00,63.2,60.5,29.79,ESE,110,4.0,6.0,91,0.00,,---,0.30,VWS V14.00,2013-05-30 11:33:00,
2013-05-30 06:34:00,63.2,60.5,29.79,ESE,109,5.0,10.0,91,0.00,,---,0.30,VWS V14.00,2013-05-30 11:34:00,
2013-05-30 06:35:00,63.2,60.5,29.79,ESE,109,9.0,10.0,91,0.00,,---,0.30,VWS V14.00,2013-05-30 11:35:00,
2013-05-30 06:36:00,63.2,60.5,29.79,ESE,107,0.0,4.0,91,0.00,,---,0.30,VWS V14.00,2013-05-30 11:36:00,
2013-05-30 06:37:00,63.2,60.2,29.79,ESE,107,0.0,0.0,90,0.00,,---,0.30,VWS V14.00,2013-05-30 11:37:00,
2013-05-30 06:38:00,63.2,60.2,29.79,ESE,108,0.0,0.0,90,0.00,,---,0.30,VWS V14.00,2013-05-30 11:38:00,
2013-05-30 06:39:00,63.2,60.5,29.79,ESE,108,4.0,6.0,91,0.00,,---,0.30,VWS V14.00,2013-05-30 11:39:00,
2013-05-30 06:40:00,63.2,60.5,29.79,ESE,108,3.0,6.0,91,0.00,,---,0.30,VWS V14.00,2013-05-30 11:40:00,
2013-05-30 06:41:00,63.2,60.2,29.79,ESE,108,3.0,3.0,90,0.00,,---,0.30,VWS V14.00,2013-05-30 11:41:00,
2013-05-30 06:42:00,63.4,60.4,29.80,ESE,108,7.0,7.0,90,0.00,,---,0.30,VWS V14.00,2013-05-30 11:42:00,
2013-05-30 06:43:00,63.4,60.7,29.80,ESE,108,2.0,7.0,91,0.00,,---,0.30,VWS V14.00,2013-05-30 11:43:00,
2013-05-30 06:44:00,63.4,60.4,29.80,ESE,108,5.0,6.0,90,0.00,,---,0.30,VWS V14.00,2013-05-30 11:44:00,
2013-05-30 06:45:00,63.4,60.4,29.80,ESE,108,4.0,6.0,90,0.00,,---,0.30,VWS V14.00,2013-05-30 11:45:00,
2013-05-30 06:46:00,63.5,60.5,29.80,ESE,108,6.0,7.0,90,0.00,,---,0.30,VWS V14.00,2013-05-30 11:46:00,
2013-05-30 06:47:00,63.5,60.5,29.80,ESE,107,4.0,7.0,90,0.00,,---,0.30,VWS V14.00,2013-05-30 11:47:00,
2013-05-30 06:48:00,63.5,60.5,29.80,ESE,107,2.0,10.0,90,0.00,,---,0.30,VWS V14.00,2013-05-30 11:48:00,
2013-05-30 06:49:00,63.5,60.5,29.80,ESE,107,0.0,2.0,90,0.00,,---,0.30,VWS V14.00,2013-05-30 11:49:00,
2013-05-30 06:50:00,63.5,60.5,29.80,ESE,107,0.0,2.0,90,0.00,,---,0.30,VWS V14.00,2013-05-30 11:50:00,
2013-05-30 06:51:00,63.5,60.5,29.80,ESE,107,0.0,2.0,90,0.00,,---,0.30,VWS V14.00,2013-05-30 11:51:00,
2013-05-30 06:52:00,63.5,60.5,29.80,ESE,107,0.0,0.0,90,0.00,,---,0.30,VWS V14.00,2013-05-30 11:52:00,
2013-05-30 06:53:00,63.5,60.5,29.80,ESE,107,0.0,0.0,90,0.00,,---,0.30,VWS V14.00,2013-05-30 11:53:00,
2013-05-30 06:54:00,63.7,60.7,29.80,ESE,107,2.0,4.0,90,0.00,,---,0.30,VWS V14.00,2013-05-30 11:54:00,
2013-05-30 06:55:00,63.7,60.7,29.80,ESE,107,0.0,2.0,90,0.00,,---,0.30,VWS V14.00,2013-05-30 11:55:00,
2013-05-30 06:56:00,63.7,60.7,29.80,ESE,107,2.0,4.0,90,0.00,,---,0.30,VWS V14.00,2013-05-30 11:56:00,
2013-05-30 06:57:00,63.7,60.7,29.80,ESE,107,0.0,2.0,90,0.00,,---,0.30,VWS V14.00,2013-05-30 11:57:00,
2013-05-30 06:58:00,63.7,60.7,29.80,ESE,107,0.0,0.0,90,0.00,,---,0.30,VWS V14.00,2013-05-30 11:58:00,
2013-05-30 06:59:00,63.9,60.9,29.80,ESE,107,0.0,0.0,90,0.00,,---,0.30,VWS V14.00,2013-05-30 11:59:00,
2013-05-30 07:00:00,63.9,60.9,29.80,ESE,104,0.0,0.0,90,0.00,,---,0.30,VWS V14.00,2013-05-30 12:00:00,
2013-05-30 07:01:00,63.9,60.9,29.80,ESE,107,0.0,0.0,90,0.00,,---,0.30,VWS V14.00,2013-05-30 12:01:00,
2013-05-30 07:02:00,63.9,60.9,29.81,ESE,104,0.0,0.0,90,0.00,,---,0.30,VWS V14.00,2013-05-30 12:02:00,
2013-05-30 07:03:00,63.9,60.9,29.81,ESE,104,0.0,0.0,90,0.00,,---,0.30,VWS V14.00,2013-05-30 12:03:00,
2013-05-30 07:04:00,63.9,60.9,29.81,ESE,104,0.0,0.0,90,0.00,,---,0.30,VWS V14.00,2013-05-30 12:04:00,
2013-05-30 07:05:00,64.0,61.3,29.81,ESE,104,0.0,0.0,91,0.00,,---,0.30,VWS V14.00,2013-05-30 12:05:00,
2013-05-30 07:06:00,63.9,60.9,29.81,ESE,104,0.0,0.0,90,0.00,,---,0.30,VWS V14.00,2013-05-30 12:06:00,
2013-05-30 07:07:00,64.2,61.5,29.81,ESE,104,0.0,0.0,91,0.00,,---,0.30,VWS V14.00,2013-05-30 12:07:00,
2013-05-30 07:08:00,64.2,61.5,29.82,ESE,104,0.0,0.0,91,0.00,,---,0.30,VWS V14.00,2013-05-30 12:08:00,
2013-05-30 07:09:00,64.2,61.5,29.82,ESE,104,0.0,0.0,91,0.00,,---,0.30,VWS V14.00,2013-05-30 12:09:00,
2013-05-30 07:10:00,64.2,61.5,29.82,ESE,104,0.0,0.0,91,0.00,,---,0.30,VWS V14.00,2013-05-30 12:10:00,
2013-05-30 07:11:00,64.5,61.8,29.82,East,95,0.0,0.0,91,0.00,,---,0.30,VWS V14.00,2013-05-30 12:11:00,
2013-05-30 07:12:00,64.5,61.8,29.82,East,95,0.0,0.0,91,0.00,,---,0.30,VWS V14.00,2013-05-30 12:12:00,
2013-05-30 07:13:00,64.7,62.0,29.82,East,95,0.0,0.0,91,0.00,,---,0.30,VWS V14.00,2013-05-30 12:13:00,
2013-05-30 07:14:00,64.8,62.1,29.82,East,95,0.0,0.0,91,0.00,,---,0.30,VWS V14.00,2013-05-30 12:14:00,
2013-05-30 07:15:00,64.8,62.1,29.82,East,95,0.0,0.0,91,0.00,,---,0.30,VWS V14.00,2013-05-30 12:15:00,
2013-05-30 07:16:00,65.0,62.3,29.82,East,95,0.0,0.0,91,0.00,,---,0.30,VWS V14.00,2013-05-30 12:16:00,
2013-05-30 07:17:00,65.2,62.5,29.82,East,95,0.0,2.0,91,0.00,,---,0.30,VWS V14.00,2013-05-30 12:17:00,
2013-05-30 07:18:00,65.2,62.5,29.82,East,95,0.0,0.0,91,0.00,,---,0.30,VWS V14.00,2013-05-30 12:18:00,
2013-05-30 07:19:00,65.3,62.6,29.82,East,95,0.0,0.0,91,0.00,,---,0.30,VWS V14.00,2013-05-30 12:19:00,
2013-05-30 07:20:00,65.3,62.6,29.82,East,95,0.0,0.0,91,0.00,,---,0.30,VWS V14.00,2013-05-30 12:20:00,
2013-05-30 07:21:00,65.5,62.8,29.82,East,95,2.0,2.0,91,0.00,,---,0.30,VWS V14.00,2013-05-30 12:21:00,
2013-05-30 07:22:00,65.5,62.5,29.82,East,100,5.0,5.0,90,0.00,,---,0.30,VWS V14.00,2013-05-30 12:22:00,
2013-05-30 07:23:00,65.6,62.6,29.82,ESE,114,4.0,7.0,90,0.00,,---,0.30,VWS V14.00,2013-05-30 12:23:00,
2013-05-30 07:24:00,65.6,62.6,29.82,ESE,114,0.0,4.0,90,0.00,,---,0.30,VWS V14.00,2013-05-30 12:24:00,
2013-05-30 07:25:00,65.6,62.6,29.82,ESE,114,0.0,4.0,90,0.00,,---,0.30,VWS V14.00,2013-05-30 12:25:00,
2013-05-30 07:26:00,66.0,63.0,29.82,ESE,114,3.0,5.0,90,0.00,,---,0.30,VWS V14.00,2013-05-30 12:26:00,
2013-05-30 07:27:00,66.0,62.7,29.82,ESE,114,0.0,4.0,89,0.00,,---,0.30,VWS V14.00,2013-05-30 12:27:00,
2013-05-30 07:28:00,66.1,62.8,29.82,ESE,114,0.0,0.0,89,0.00,,---,0.30,VWS V14.00,2013-05-30 12:28:00,
2013-05-30 07:29:00,66.3,63.0,29.82,ESE,114,4.0,4.0,89,0.00,,---,0.30,VWS V14.00,2013-05-30 12:29:00,
2013-05-30 07:30:00,66.1,62.8,29.82,ESE,114,3.0,3.0,89,0.00,,---,0.30,VWS V14.00,2013-05-30 12:30:00,
2013-05-30 07:31:00,66.3,63.0,29.82,ESE,114,4.0,5.0,89,0.00,,---,0.30,VWS V14.00,2013-05-30 12:31:00,
2013-05-30 07:32:00,66.4,63.1,29.82,ESE,114,4.0,4.0,89,0.00,,---,0.30,VWS V14.00,2013-05-30 12:32:00,
2013-05-30 07:33:00,66.4,63.1,29.82,ESE,105,5.0,5.0,89,0.00,,---,0.30,VWS V14.00,2013-05-30 12:33:00,
2013-05-30 07:34:00,66.6,63.3,29.82,ESE,104,3.0,5.0,89,0.00,,---,0.30,VWS V14.00,2013-05-30 12:34:00,
2013-05-30 07:35:00,66.4,63.1,29.82,ESE,105,3.0,5.0,89,0.00,,---,0.30,VWS V14.00,2013-05-30 12:35:00,
2013-05-30 07:36:00,66.6,63.3,29.82,ESE,106,0.0,0.0,89,0.00,,---,0.30,VWS V14.00,2013-05-30 12:36:00,
2013-05-30 07:37:00,66.8,63.5,29.81,ESE,106,3.0,3.0,89,0.00,,---,0.30,VWS V14.00,2013-05-30 12:37:00,
2013-05-30 07:38:00,66.8,63.5,29.81,ESE,106,0.0,3.0,89,0.00,,---,0.30,VWS V14.00,2013-05-30 12:38:00,
2013-05-30 07:39:00,66.8,63.5,29.81,ESE,106,0.0,3.0,89,0.00,,---,0.30,VWS V14.00,2013-05-30 12:39:00,
2013-05-30 07:40:00,66.8,63.5,29.81,ESE,106,1.0,3.0,89,0.00,,---,0.30,VWS V14.00,2013-05-30 12:40:00,
2013-05-30 07:41:00,66.8,63.5,29.81,ESE,106,0.0,0.0,89,0.00,,---,0.30,VWS V14.00,2013-05-30 12:41:00,
2013-05-30 07:42:00,66.8,63.5,29.81,ESE,106,0.0,0.0,89,0.00,,---,0.30,VWS V14.00,2013-05-30 12:42:00,
2013-05-30 07:43:00,66.9,63.6,29.81,ESE,106,0.0,3.0,89,0.00,,---,0.30,VWS V14.00,2013-05-30 12:43:00,
2013-05-30 07:44:00,66.9,63.6,29.81,ESE,106,0.0,1.0,89,0.00,,---,0.30,VWS V14.00,2013-05-30 12:44:00,
2013-05-30 07:45:00,66.9,63.6,29.81,ESE,106,0.0,1.0,89,0.00,,---,0.30,VWS V14.00,2013-05-30 12:45:00,
2013-05-30 07:46:00,67.1,63.8,29.81,ESE,113,0.0,3.0,89,0.00,,---,0.30,VWS V14.00,2013-05-30 12:46:00,
2013-05-30 07:47:00,67.1,63.8,29.81,ESE,113,1.0,3.0,89,0.00,,---,0.30,VWS V14.00,2013-05-30 12:47:00,
2013-05-30 07:48:00,67.3,64.0,29.81,ESE,113,0.0,3.0,89,0.00,,---,0.30,VWS V14.00,2013-05-30 12:48:00,
2013-05-30 07:49:00,67.3,64.0,29.81,ESE,113,0.0,0.0,89,0.00,,---,0.30,VWS V14.00,2013-05-30 12:49:00,
2013-05-30 07:50:00,67.3,64.0,29.81,ESE,113,0.0,0.0,89,0.00,,---,0.30,VWS V14.00,2013-05-30 12:50:00,
2013-05-30 07:51:00,67.6,64.2,29.81,ESE,113,1.0,4.0,89,0.00,,---,0.30,VWS V14.00,2013-05-30 12:51:00,
2013-05-30 07:52:00,67.6,64.2,29.81,ESE,114,0.0,2.0,89,0.00,,---,0.30,VWS V14.00,2013-05-30 12:52:00,
2013-05-30 07:53:00,67.8,64.4,29.82,ESE,114,3.0,3.0,89,0.00,,---,0.30,VWS V14.00,2013-05-30 12:53:00,
2013-05-30 07:54:00,67.9,64.5,29.81,South,169,3.0,6.0,89,0.00,,---,0.30,VWS V14.00,2013-05-30 12:54:00,
2013-05-30 07:55:00,67.9,64.5,29.81,South,169,6.0,6.0,89,0.00,,---,0.30,VWS V14.00,2013-05-30 12:55:00,
2013-05-30 07:56:00,68.3,64.9,29.81,South,169,1.0,7.0,89,0.00,,---,0.30,VWS V14.00,2013-05-30 12:56:00,
2013-05-30 07:57:00,68.4,65.0,29.81,South,169,4.0,5.0,89,0.00,,---,0.30,VWS V14.00,2013-05-30 12:57:00,
2013-05-30 07:58:00,68.6,64.9,29.81,South,169,5.0,5.0,88,0.00,,---,0.30,VWS V14.00,2013-05-30 12:58:00,
2013-05-30 07:59:00,68.6,64.9,29.81,South,169,4.0,5.0,88,0.00,,---,0.30,VWS V14.00,2013-05-30 12:59:00,
2013-05-30 08:00:00,68.6,64.9,29.81,South,169,5.0,5.0,88,0.00,,---,0.30,VWS V14.00,2013-05-30 13:00:00,
2013-05-30 08:01:00,68.9,65.2,29.81,ESE,113,2.0,3.0,88,0.00,,---,0.30,VWS V14.00,2013-05-30 13:01:00,
2013-05-30 08:02:00,69.1,65.4,29.81,ESE,111,3.0,8.0,88,0.00,,---,0.30,VWS V14.00,2013-05-30 13:02:00,
2013-05-30 08:03:00,69.3,65.6,29.81,ESE,111,6.0,7.0,88,0.00,,---,0.30,VWS V14.00,2013-05-30 13:03:00,
2013-05-30 08:04:00,69.4,65.4,29.81,ESE,111,3.0,9.0,87,0.00,,---,0.30,VWS V14.00,2013-05-30 13:04:00,
2013-05-30 08:05:00,69.4,65.4,29.81,ESE,111,2.0,9.0,87,0.00,,---,0.30,VWS V14.00,2013-05-30 13:05:00,
2013-05-30 08:06:00,69.8,65.8,29.81,SSE,165,7.0,12.0,87,0.00,,---,0.30,VWS V14.00,2013-05-30 13:06:00,
2013-05-30 08:07:00,69.9,65.9,29.81,SSW,201,6.0,12.0,87,0.00,,---,0.30,VWS V14.00,2013-05-30 13:07:00,
2013-05-30 08:08:00,70.1,66.1,29.81,SSE,159,15.0,15.0,87,0.00,,---,0.30,VWS V14.00,2013-05-30 13:08:00,
2013-05-30 08:09:00,70.3,66.2,29.81,SSE,162,9.0,15.0,87,0.00,,---,0.30,VWS V14.00,2013-05-30 13:09:00,
2013-05-30 08:10:00,70.3,66.2,29.81,South,189,4.0,15.0,87,0.00,,---,0.30,VWS V14.00,2013-05-30 13:10:00,
2013-05-30 08:11:00,70.8,66.4,29.81,South,178,6.0,11.0,86,0.00,,---,0.30,VWS V14.00,2013-05-30 13:11:00,
2013-05-30 08:12:00,70.8,66.4,29.81,SE,130,11.0,15.0,86,0.00,,---,0.30,VWS V14.00,2013-05-30 13:12:00,
2013-05-30 08:13:00,70.9,66.5,29.81,SE,132,6.0,13.0,86,0.00,,---,0.30,VWS V14.00,2013-05-30 13:13:00,
2013-05-30 08:14:00,70.9,66.5,29.81,SE,132,9.0,9.0,86,0.00,,---,0.30,VWS V14.00,2013-05-30 13:14:00,
2013-05-30 08:15:00,70.9,66.5,29.81,SE,132,4.0,7.0,86,0.00,,---,0.30,VWS V14.00,2013-05-30 13:15:00,
2013-05-30 08:16:00,70.9,66.2,29.81,SE,139,11.0,15.0,85,0.00,,---,0.30,VWS V14.00,2013-05-30 13:16:00,
2013-05-30 08:17:00,71.1,66.4,29.80,SE,134,9.0,13.0,85,0.00,,---,0.30,VWS V14.00,2013-05-30 13:17:00,
2013-05-30 08:18:00,71.1,66.4,29.80,SSE,167,7.0,14.0,85,0.00,,---,0.30,VWS V14.00,2013-05-30 13:18:00,
2013-05-30 08:20:00,71.1,66.4,29.80,South,169,0.0,9.0,85,0.00,,---,0.30,VWS V14.00,2013-05-30 13:20:00,
2013-05-30 08:21:00,71.5,66.4,29.80,SSE,157,5.0,18.0,84,0.00,,---,0.30,VWS V14.00,2013-05-30 13:21:00,
2013-05-30 08:22:00,71.5,66.8,29.80,SSE,155,12.0,12.0,85,0.00,,---,0.30,VWS V14.00,2013-05-30 13:22:00,
2013-05-30 08:23:00,71.6,66.5,29.80,ESE,119,17.0,17.0,84,0.00,,---,0.30,VWS V14.00,2013-05-30 13:23:00,
2013-05-30 08:24:00,71.8,66.7,29.80,SSE,149,6.0,17.0,84,0.00,,---,0.30,VWS V14.00,2013-05-30 13:24:00,
2013-05-30 08:25:00,71.6,66.5,29.80,SSE,150,7.0,17.0,84,0.00,,---,0.30,VWS V14.00,2013-05-30 13:25:00,
2013-05-30 08:26:00,71.8,66.4,29.80,South,172,10.0,17.0,83,0.00,,---,0.30,VWS V14.00,2013-05-30 13:26:00,
2013-05-30 08:28:00,72.0,66.9,29.80,SSE,152,1.0,7.0,84,0.00,,---,0.30,VWS V14.00,2013-05-30 13:28:00,
2013-05-30 08:29:00,72.0,66.9,29.80,SE,146,12.0,14.0,84,0.00,,---,0.30,VWS V14.00,2013-05-30 13:29:00,
2013-05-30 08:30:00,72.0,66.9,29.80,SSE,148,12.0,14.0,84,0.00,,---,0.30,VWS V14.00,2013-05-30 13:30:00,
2013-05-30 08:31:00,72.1,66.7,29.80,SE,140,15.0,15.0,83,0.00,,---,0.30,VWS V14.00,2013-05-30 13:31:00,
2013-05-30 08:32:00,72.1,66.7,29.80,South,180,6.0,22.0,83,0.00,,---,0.30,VWS V14.00,2013-05-30 13:32:00,
2013-05-30 08:33:00,72.1,66.7,29.80,South,176,6.0,19.0,83,0.00,,---,0.30,VWS V14.00,2013-05-30 13:33:00,
2013-05-30 08:34:00,72.1,66.7,29.80,South,189,6.0,13.0,83,0.00,,---,0.30,VWS V14.00,2013-05-30 13:34:00,
2013-05-30 08:35:00,72.1,66.7,29.80,SSE,153,12.0,13.0,83,0.00,,---,0.30,VWS V14.00,2013-05-30 13:35:00,
2013-05-30 08:36:00,72.3,66.8,29.80,SE,140,5.0,9.0,83,0.00,,---,0.30,VWS V14.00,2013-05-30 13:36:00,
2013-05-30 08:37:00,72.5,67.1,29.80,SSW,194,9.0,12.0,83,0.00,,---,0.30,VWS V14.00,2013-05-30 13:37:00,
2013-05-30 08:38:00,72.7,67.2,29.80,SSE,161,12.0,12.0,83,0.00,,---,0.30,VWS V14.00,2013-05-30 13:38:00,
2013-05-30 08:39:00,72.7,66.9,29.80,South,169,10.0,16.0,82,0.00,,---,0.30,VWS V14.00,2013-05-30 13:39:00,
2013-05-30 08:40:00,72.7,66.9,29.80,South,169,10.0,16.0,82,0.00,,---,0.30,VWS V14.00,2013-05-30 13:40:00,
2013-05-30 08:41:00,72.8,67.0,29.80,SSE,155,5.0,15.0,82,0.00,,---,0.30,VWS V14.00,2013-05-30 13:41:00,
2013-05-30 08:42:00,73.0,67.2,29.79,South,176,6.0,8.0,82,0.00,,---,0.30,VWS V14.00,2013-05-30 13:42:00,
2013-05-30 08:43:00,73.0,67.2,29.80,SSE,153,8.0,13.0,82,0.00,,---,0.30,VWS V14.00,2013-05-30 13:43:00,
2013-05-30 08:44:00,73.0,66.8,29.80,South,169,9.0,19.0,81,0.00,,---,0.30,VWS V14.00,2013-05-30 13:44:00,
2013-05-30 08:45:00,73.0,67.2,29.80,SE,142,14.0,19.0,82,0.00,,---,0.30,VWS V14.00,2013-05-30 13:45:00,
2013-05-30 08:46:00,73.2,67.0,29.80,SSE,159,10.0,15.0,81,0.00,,---,0.30,VWS V14.00,2013-05-30 13:46:00,
2013-05-30 08:47:00,73.3,66.8,29.80,South,176,11.0,19.0,80,0.00,,---,0.30,VWS V14.00,2013-05-30 13:47:00,
2013-05-30 08:48:00,73.3,67.1,29.79,South,187,7.0,15.0,81,0.00,,---,0.30,VWS V14.00,2013-05-30 13:48:00,
2013-05-30 08:49:00,73.5,67.0,29.79,SE,130,19.0,19.0,80,0.00,,---,0.30,VWS V14.00,2013-05-30 13:49:00,
2013-05-30 08:50:00,73.5,67.0,29.79,SSE,159,12.0,19.0,80,0.00,,---,0.30,VWS V14.00,2013-05-30 13:50:00,
2013-05-30 08:51:00,73.5,66.6,29.79,SSE,153,12.0,24.0,79,0.00,,---,0.30,VWS V14.00,2013-05-30 13:51:00,
2013-05-30 08:52:00,73.7,67.2,29.79,SSE,159,8.0,13.0,80,0.00,,---,0.30,VWS V14.00,2013-05-30 13:52:00,
2013-05-30 08:53:00,73.7,67.2,29.79,SSE,167,15.0,15.0,80,0.00,,---,0.30,VWS V14.00,2013-05-30 13:53:00,
2013-05-30 08:55:00,73.7,66.8,29.79,SSW,195,7.0,20.0,79,0.00,,---,0.30,VWS V14.00,2013-05-30 13:55:00,
2013-05-30 08:57:00,73.9,67.0,29.79,SSE,149,24.0,24.0,79,0.00,,---,0.30,VWS V14.00,2013-05-30 13:57:00,
2013-05-30 08:58:00,73.9,66.6,29.79,SSE,168,11.0,29.0,78,0.00,,---,0.30,VWS V14.00,2013-05-30 13:58:00,
2013-05-30 08:59:00,74.0,67.1,29.79,South,179,6.0,16.0,79,0.00,,---,0.30,VWS V14.00,2013-05-30 13:59:00,
2013-05-30 09:00:00,74.0,67.1,29.79,South,182,3.0,16.0,79,0.00,,---,0.30,VWS V14.00,2013-05-30 14:00:00,
2013-05-30 09:01:00,74.0,67.1,29.79,SSE,163,9.0,15.0,79,0.00,,---,0.30,VWS V14.00,2013-05-30 14:01:00,
2013-05-30 09:02:00,74.2,67.3,29.79,SSE,162,8.0,14.0,79,0.00,,---,0.30,VWS V14.00,2013-05-30 14:02:00,
2013-05-30 09:03:00,74.2,66.9,29.79,SSE,152,21.0,21.0,78,0.00,,---,0.30,VWS V14.00,2013-05-30 14:03:00,
2013-05-30 09:04:00,74.2,66.9,29.79,SSE,155,13.0,24.0,78,0.00,,---,0.30,VWS V14.00,2013-05-30 14:04:00,
2013-05-30 09:05:00,74.2,66.9,29.79,SSE,154,23.0,24.0,78,0.00,,---,0.30,VWS V14.00,2013-05-30 14:05:00,
2013-05-30 09:06:00,74.4,67.1,29.79,SSE,167,5.0,23.0,78,0.00,,---,0.30,VWS V14.00,2013-05-30 14:06:00,
2013-05-30 09:07:00,74.4,66.7,29.79,SSE,164,15.0,19.0,77,0.00,,---,0.30,VWS V14.00,2013-05-30 14:07:00,
2013-05-30 09:08:00,74.4,66.7,29.79,SSE,155,15.0,24.0,77,0.00,,---,0.30,VWS V14.00,2013-05-30 14:08:00,
2013-05-30 09:09:00,74.4,66.7,29.79,South,188,12.0,19.0,77,0.00,,---,0.30,VWS V14.00,2013-05-30 14:09:00,
2013-05-30 09:10:00,74.4,66.7,29.79,SSW,192,12.0,19.0,77,0.00,,---,0.30,VWS V14.00,2013-05-30 14:10:00,
2013-05-30 09:11:00,74.6,66.9,29.79,South,170,9.0,15.0,77,0.00,,---,0.30,VWS V14.00,2013-05-30 14:11:00,
2013-05-30 09:12:00,74.6,66.9,29.78,SSE,164,13.0,16.0,77,0.00,,---,0.30,VWS V14.00,2013-05-30 14:12:00,
2013-05-30 09:13:00,74.6,66.9,29.78,SSE,161,6.0,13.0,77,0.00,,---,0.30,VWS V14.00,2013-05-30 14:13:00,
2013-05-30 09:14:00,74.6,67.3,29.78,SW,233,8.0,13.0,78,0.00,,---,0.30,VWS V14.00,2013-05-30 14:14:00,
2013-05-30 09:15:00,74.6,66.9,29.79,South,190,10.0,10.0,77,0.00,,---,0.30,VWS V14.00,2013-05-30 14:15:00,
2013-05-30 09:16:00,74.7,67.0,29.78,South,177,5.0,17.0,77,0.00,,---,0.30,VWS V14.00,2013-05-30 14:16:00,
2013-05-30 09:17:00,74.7,67.0,29.78,SSE,151,5.0,14.0,77,0.00,,---,0.30,VWS V14.00,2013-05-30 14:17:00,
2013-05-30 09:18:00,74.9,67.2,29.78,SE,146,12.0,14.0,77,0.00,,---,0.30,VWS V14.00,2013-05-30 14:18:00,
2013-05-30 09:19:00,74.9,67.2,29.78,SSE,150,10.0,18.0,77,0.00,,---,0.30,VWS V14.00,2013-05-30 14:19:00,
2013-05-30 09:20:00,74.9,67.2,29.78,SSE,159,11.0,18.0,77,0.00,,---,0.30,VWS V14.00,2013-05-30 14:20:00,
2013-05-30 09:21:00,75.1,67.4,29.78,SSE,153,14.0,15.0,77,0.00,,---,0.30,VWS V14.00,2013-05-30 14:21:00,
2013-05-30 09:22:00,75.1,67.0,29.78,SSE,156,11.0,19.0,76,0.00,,---,0.30,VWS V14.00,2013-05-30 14:22:00,
2013-05-30 09:23:00,75.1,66.6,29.78,South,172,9.0,32.0,75,0.00,,---,0.30,VWS V14.00,2013-05-30 14:23:00,
2013-05-30 09:24:00,75.1,66.2,29.78,SE,144,15.0,31.0,74,0.00,,---,0.30,VWS V14.00,2013-05-30 14:24:00,
2013-05-30 09:25:00,75.1,66.2,29.78,SSE,168,9.0,31.0,74,0.00,,---,0.30,VWS V14.00,2013-05-30 14:25:00,
2013-05-30 09:26:00,75.1,66.6,29.78,South,180,6.0,20.0,75,0.00,,---,0.30,VWS V14.00,2013-05-30 14:26:00,
2013-05-30 09:27:00,75.3,67.2,29.78,SSE,148,14.0,14.0,76,0.00,,---,0.30,VWS V14.00,2013-05-30 14:27:00,
2013-05-30 09:28:00,75.3,67.2,29.78,SSE,158,6.0,16.0,76,0.00,,---,0.30,VWS V14.00,2013-05-30 14:28:00,
2013-05-30 09:29:00,75.4,67.3,29.78,South,176,7.0,21.0,76,0.00,,---,0.30,VWS V14.00,2013-05-30 14:29:00,
2013-05-30 09:30:00,75.3,67.2,29.78,SE,134,15.0,21.0,76,0.00,,---,0.30,VWS V14.00,2013-05-30 14:30:00,
2013-05-30 09:31:00,75.4,66.9,29.78,South,184,10.0,24.0,75,0.00,,---,0.30,VWS V14.00,2013-05-30 14:31:00,
2013-05-30 09:32:00,75.4,66.9,29.78,SSE,165,29.0,29.0,75,0.00,,---,0.30,VWS V14.00,2013-05-30 14:32:00,
2013-05-30 09:33:00,75.4,66.5,29.78,South,175,12.0,29.0,74,0.00,,---,0.30,VWS V14.00,2013-05-30 14:33:00,
2013-05-30 09:34:00,75.4,66.5,29.78,SW,218,14.0,25.0,74,0.00,,---,0.30,VWS V14.00,2013-05-30 14:34:00,
2013-05-30 09:35:00,75.4,66.5,29.78,SSE,166,12.0,25.0,74,0.00,,---,0.30,VWS V14.00,2013-05-30 14:35:00,
2013-05-30 09:36:00,75.6,67.1,29.77,South,180,16.0,17.0,75,0.00,,---,0.30,VWS V14.00,2013-05-30 14:36:00,
2013-05-30 09:37:00,75.6,67.1,29.78,SSE,162,4.0,16.0,75,0.00,,---,0.30,VWS V14.00,2013-05-30 14:37:00,
2013-05-30 09:38:00,75.8,67.3,29.77,SSE,157,12.0,13.0,75,0.00,,---,0.30,VWS V14.00,2013-05-30 14:38:00,
2013-05-30 09:39:00,75.8,67.3,29.78,SSE,167,13.0,26.0,75,0.00,,---,0.30,VWS V14.00,2013-05-30 14:39:00,
2013-05-30 09:40:00,75.8,67.3,29.78,South,171,21.0,26.0,75,0.00,,---,0.30,VWS V14.00,2013-05-30 14:40:00,
2013-05-30 09:41:00,75.8,66.5,29.77,South,178,11.0,23.0,73,0.00,,---,0.30,VWS V14.00,2013-05-30 14:41:00,
2013-05-30 09:42:00,75.8,66.5,29.77,SE,136,9.0,15.0,73,0.00,,---,0.30,VWS V14.00,2013-05-30 14:42:00,
2013-05-30 09:43:00,76.0,67.1,29.78,South,183,9.0,11.0,74,0.00,,---,0.30,VWS V14.00,2013-05-30 14:43:00,
2013-05-30 09:44:00,76.0,67.1,29.78,South,186,14.0,15.0,74,0.00,,---,0.30,VWS V14.00,2013-05-30 14:44:00,
2013-05-30 09:45:00,76.0,67.1,29.78,SSE,165,12.0,15.0,74,0.00,,---,0.30,VWS V14.00,2013-05-30 14:45:00,
2013-05-30 09:46:00,76.0,66.7,29.78,South,170,10.0,18.0,73,0.00,,---,0.30,VWS V14.00,2013-05-30 14:46:00,
2013-05-30 09:47:00,76.0,66.7,29.78,SSW,196,15.0,21.0,73,0.00,,---,0.30,VWS V14.00,2013-05-30 14:47:00,
2013-05-30 09:48:00,76.0,66.3,29.78,SSE,148,18.0,24.0,72,0.00,,---,0.30,VWS V14.00,2013-05-30 14:48:00,
2013-05-30 09:49:00,76.0,66.3,29.78,SE,140,14.0,22.0,72,0.00,,---,0.30,VWS V14.00,2013-05-30 14:49:00,
2013-05-30 09:50:00,76.0,66.3,29.78,South,178,18.0,22.0,72,0.00,,---,0.30,VWS V14.00,2013-05-30 14:50:00,
2013-05-30 09:51:00,75.8,66.1,29.77,South,180,14.0,18.0,72,0.00,,---,0.30,VWS V14.00,2013-05-30 14:51:00,
2013-05-30 09:52:00,75.8,66.5,29.76,SSE,150,15.0,18.0,73,0.00,,---,0.30,VWS V14.00,2013-05-30 14:52:00,
2013-05-30 09:53:00,75.6,66.3,29.76,South,172,13.0,15.0,73,0.00,,---,0.30,VWS V14.00,2013-05-30 14:53:00,
2013-05-30 09:54:00,75.6,66.3,29.76,SSW,207,11.0,13.0,73,0.00,,---,0.30,VWS V14.00,2013-05-30 14:54:00,
2013-05-30 09:55:00,75.6,66.3,29.76,SSW,203,10.0,13.0,73,0.00,,---,0.30,VWS V14.00,2013-05-30 14:55:00,
2013-05-30 09:56:00,75.6,65.9,29.77,South,188,3.0,21.0,72,0.00,,---,0.30,VWS V14.00,2013-05-30 14:56:00,
2013-05-30 09:57:00,75.8,66.1,29.77,SSE,157,20.0,20.0,72,0.00,,---,0.30,VWS V14.00,2013-05-30 14:57:00,
2013-05-30 09:58:00,75.8,66.1,29.77,South,170,7.0,20.0,72,0.00,,---,0.30,VWS V14.00,2013-05-30 14:58:00,
2013-05-30 09:59:00,75.8,66.1,29.77,South,175,5.0,18.0,72,0.00,,---,0.30,VWS V14.00,2013-05-30 14:59:00,
2013-05-30 10:00:00,75.8,66.1,29.77,SSE,163,15.0,18.0,72,0.00,,---,0.30,VWS V14.00,2013-05-30 15:00:00,
2013-05-30 10:01:00,75.8,66.1,29.77,South,173,9.0,12.0,72,0.00,,---,0.30,VWS V14.00,2013-05-30 15:01:00,
2013-05-30 10:02:00,76.0,66.3,29.77,South,187,18.0,27.0,72,0.00,,---,0.30,VWS V14.00,2013-05-30 15:02:00,
2013-05-30 10:03:00,75.8,66.1,29.78,South,181,10.0,18.0,72,0.00,,---,0.30,VWS V14.00,2013-05-30 15:03:00,
2013-05-30 10:04:00,76.0,66.3,29.78,South,190,7.0,15.0,72,0.00,,---,0.30,VWS V14.00,2013-05-30 15:04:00,
2013-05-30 10:05:00,76.0,66.3,29.78,SSW,192,15.0,15.0,72,0.00,,---,0.30,VWS V14.00,2013-05-30 15:05:00,
2013-05-30 10:06:00,76.0,66.3,29.77,South,172,6.0,11.0,72,0.00,,---,0.30,VWS V14.00,2013-05-30 15:06:00,
2013-05-30 10:07:00,76.0,66.3,29.78,South,174,4.0,17.0,72,0.00,,---,0.30,VWS V14.00,2013-05-30 15:07:00,
2013-05-30 10:08:00,76.0,66.7,29.77,South,175,6.0,17.0,73,0.00,,---,0.30,VWS V14.00,2013-05-30 15:08:00,
2013-05-30 10:09:00,76.0,66.3,29.77,SSE,149,10.0,15.0,72,0.00,,---,0.30,VWS V14.00,2013-05-30 15:09:00,
2013-05-30 10:10:00,76.0,66.3,29.77,SSE,167,9.0,15.0,72,0.00,,---,0.30,VWS V14.00,2013-05-30 15:10:00,
2013-05-30 10:11:00,76.1,66.4,29.78,SSW,194,10.0,17.0,72,0.00,,---,0.30,VWS V14.00,2013-05-30 15:11:00,
2013-05-30 10:12:00,76.3,66.6,29.77,SE,146,13.0,22.0,72,0.00,,---,0.30,VWS V14.00,2013-05-30 15:12:00,
2013-05-30 10:13:00,76.3,66.2,29.77,South,171,9.0,22.0,71,0.00,,---,0.30,VWS V14.00,2013-05-30 15:13:00,
2013-05-30 10:14:00,76.3,65.8,29.78,South,171,13.0,21.0,70,0.00,,---,0.30,VWS V14.00,2013-05-30 15:14:00,
2013-05-30 10:15:00,76.3,65.8,29.78,SW,231,10.0,21.0,70,0.00,,---,0.30,VWS V14.00,2013-05-30 15:15:00,
2013-05-30 10:16:00,76.5,66.0,29.77,South,174,8.0,15.0,70,0.00,,---,0.30,VWS V14.00,2013-05-30 15:16:00,
2013-05-30 10:17:00,76.5,66.4,29.77,South,171,13.0,13.0,71,0.00,,---,0.30,VWS V14.00,2013-05-30 15:17:00,
2013-05-30 10:18:00,76.5,66.4,29.77,SSW,208,3.0,13.0,71,0.00,,---,0.30,VWS V14.00,2013-05-30 15:18:00,
2013-05-30 10:19:00,76.7,66.6,29.77,SSE,154,17.0,17.0,71,0.00,,---,0.30,VWS V14.00,2013-05-30 15:19:00,
2013-05-30 10:20:00,76.7,66.6,29.77,SE,136,17.0,17.0,71,0.00,,---,0.30,VWS V14.00,2013-05-30 15:20:00,
2013-05-30 10:21:00,76.7,66.2,29.77,SSE,157,13.0,23.0,70,0.00,,---,0.30,VWS V14.00,2013-05-30 15:21:00,
2013-05-30 10:22:00,76.7,65.8,29.77,SSE,153,20.0,20.0,69,0.00,,---,0.30,VWS V14.00,2013-05-30 15:22:00,
2013-05-30 10:23:00,76.7,65.8,29.77,SW,215,11.0,22.0,69,0.00,,---,0.30,VWS V14.00,2013-05-30 15:23:00,
2013-05-30 10:24:00,76.5,65.6,29.77,SSE,158,12.0,17.0,69,0.00,,---,0.30,VWS V14.00,2013-05-30 15:24:00,
2013-05-30 10:25:00,76.5,65.6,29.77,South,174,10.0,17.0,69,0.00,,---,0.30,VWS V14.00,2013-05-30 15:25:00,
2013-05-30 10:26:00,76.5,66.0,29.77,SSW,196,9.0,14.0,70,0.00,,---,0.30,VWS V14.00,2013-05-30 15:26:00,
2013-05-30 10:27:00,76.7,66.2,29.77,SSE,157,12.0,12.0,70,0.00,,---,0.30,VWS V14.00,2013-05-30 15:27:00,
2013-05-30 10:28:00,76.7,66.2,29.77,SSW,201,9.0,16.0,70,0.00,,---,0.30,VWS V14.00,2013-05-30 15:28:00,
2013-05-30 10:29:00,76.7,66.2,29.77,South,185,12.0,18.0,70,0.00,,---,0.30,VWS V14.00,2013-05-30 15:29:00,
2013-05-30 10:30:00,76.7,66.2,29.77,SSE,156,10.0,13.0,70,0.00,,---,0.30,VWS V14.00,2013-05-30 15:30:00,
2013-05-30 10:31:00,76.7,66.2,29.77,South,188,10.0,18.0,70,0.00,,---,0.30,VWS V14.00,2013-05-30 15:31:00,
2013-05-30 10:32:00,76.7,66.2,29.78,SSE,151,13.0,13.0,70,0.00,,---,0.30,VWS V14.00,2013-05-30 15:32:00,
2013-05-30 10:33:00,76.7,66.2,29.77,South,182,7.0,16.0,70,0.00,,---,0.30,VWS V14.00,2013-05-30 15:33:00,
2013-05-30 10:34:00,76.7,66.2,29.77,South,173,6.0,8.0,70,0.00,,---,0.30,VWS V14.00,2013-05-30 15:34:00,
2013-05-30 10:35:00,76.7,66.2,29.77,South,182,4.0,8.0,70,0.00,,---,0.30,VWS V14.00,2013-05-30 15:35:00,
2013-05-30 10:36:00,76.8,66.3,29.77,SSE,152,14.0,15.0,70,0.00,,---,0.30,VWS V14.00,2013-05-30 15:36:00,
2013-05-30 10:37:00,76.8,66.3,29.78,SW,214,3.0,15.0,70,0.00,,---,0.30,VWS V14.00,2013-05-30 15:37:00,
2013-05-30 10:38:00,77.0,66.9,29.77,South,178,10.0,14.0,71,0.00,,---,0.30,VWS V14.00,2013-05-30 15:38:00,
2013-05-30 10:39:00,77.2,66.7,29.78,SSE,168,17.0,19.0,70,0.00,,---,0.30,VWS V14.00,2013-05-30 15:39:00,
2013-05-30 10:40:00,77.2,66.7,29.78,SSE,153,12.0,17.0,70,0.00,,---,0.30,VWS V14.00,2013-05-30 15:40:00,
2013-05-30 10:41:00,77.2,65.8,29.78,South,182,9.0,29.0,68,0.00,,---,0.30,VWS V14.00,2013-05-30 15:41:00,
2013-05-30 10:42:00,77.4,66.0,29.78,SSE,166,7.0,19.0,68,0.00,,---,0.30,VWS V14.00,2013-05-30 15:42:00,
2013-05-30 10:43:00,77.4,66.4,29.78,SSE,155,14.0,14.0,69,0.00,,---,0.30,VWS V14.00,2013-05-30 15:43:00,
2013-05-30 10:44:00,77.4,66.0,29.78,SSW,213,13.0,19.0,68,0.00,,---,0.30,VWS V14.00,2013-05-30 15:44:00,
2013-05-30 10:45:00,77.4,66.0,29.78,South,189,14.0,19.0,68,0.00,,---,0.30,VWS V14.00,2013-05-30 15:45:00,
2013-05-30 10:46:00,77.4,66.0,29.79,South,191,11.0,15.0,68,0.00,,---,0.30,VWS V14.00,2013-05-30 15:46:00,
2013-05-30 10:47:00,77.4,66.0,29.79,South,169,12.0,17.0,68,0.00,,---,0.30,VWS V14.00,2013-05-30 15:47:00,
2013-05-30 10:48:00,77.2,65.8,29.79,SSW,194,15.0,15.0,68,0.00,,---,0.30,VWS V14.00,2013-05-30 15:48:00,
2013-05-30 10:49:00,77.2,65.8,29.79,SSE,163,7.0,15.0,68,0.00,,---,0.30,VWS V14.00,2013-05-30 15:49:00,
2013-05-30 10:50:00,77.2,65.8,29.79,SSW,198,10.0,15.0,68,0.00,,---,0.30,VWS V14.00,2013-05-30 15:50:00,
2013-05-30 10:51:00,77.0,66.1,29.79,South,175,7.0,15.0,69,0.00,,---,0.30,VWS V14.00,2013-05-30 15:51:00,
2013-05-30 10:52:00,76.8,65.4,29.79,SSE,163,9.0,12.0,68,0.00,,---,0.30,VWS V14.00,2013-05-30 15:52:00,
2013-05-30 10:53:00,76.8,65.9,29.79,SSE,159,5.0,14.0,69,0.00,,---,0.30,VWS V14.00,2013-05-30 15:53:00,
2013-05-30 10:54:00,76.8,65.9,29.79,SSW,192,5.0,14.0,69,0.00,,---,0.30,VWS V14.00,2013-05-30 15:54:00,
2013-05-30 10:55:00,76.8,65.9,29.79,South,180,10.0,11.0,69,0.00,,---,0.30,VWS V14.00,2013-05-30 15:55:00,
2013-05-30 10:56:00,76.8,65.9,29.79,SSE,165,7.0,17.0,69,0.00,,---,0.30,VWS V14.00,2013-05-30 15:56:00,
2013-05-30 10:57:00,76.8,65.9,29.79,SSE,157,10.0,16.0,69,0.00,,---,0.30,VWS V14.00,2013-05-30 15:57:00,
2013-05-30 10:58:00,76.8,65.4,29.79,SSE,155,14.0,23.0,68,0.00,,---,0.30,VWS V14.00,2013-05-30 15:58:00,
2013-05-30 10:59:00,76.8,65.4,29.79,SSE,155,11.0,21.0,68,0.00,,---,0.30,VWS V14.00,2013-05-30 15:59:00,
2013-05-30 11:00:00,76.8,65.4,29.79,SSE,164,14.0,17.0,68,0.00,,---,0.30,VWS V14.00,2013-05-30 16:00:00,
2013-05-30 11:01:00,76.8,65.9,29.79,South,189,9.0,9.0,69,0.00,,---,0.30,VWS V14.00,2013-05-30 16:01:00,
2013-05-30 11:02:00,76.8,65.9,29.79,SSE,153,2.0,12.0,69,0.00,,---,0.30,VWS V14.00,2013-05-30 16:02:00,
2013-05-30 11:03:00,76.8,65.9,29.79,South,170,7.0,8.0,69,0.00,,---,0.30,VWS V14.00,2013-05-30 16:03:00,
2013-05-30 11:04:00,76.8,65.9,29.79,South,169,9.0,14.0,69,0.00,,---,0.30,VWS V14.00,2013-05-30 16:04:00,
2013-05-30 11:05:00,76.8,65.9,29.79,SE,146,14.0,14.0,69,0.00,,---,0.30,VWS V14.00,2013-05-30 16:05:00,
2013-05-30 11:06:00,76.8,65.9,29.79,SSE,150,10.0,12.0,69,0.00,,---,0.30,VWS V14.00,2013-05-30 16:06:00,
2013-05-30 11:07:00,76.8,65.9,29.80,SSE,155,13.0,13.0,69,0.00,,---,0.30,VWS V14.00,2013-05-30 16:07:00,
2013-05-30 11:08:00,76.8,65.9,29.79,SSE,168,4.0,13.0,69,0.00,,---,0.30,VWS V14.00,2013-05-30 16:08:00,
2013-05-30 11:09:00,76.8,65.9,29.80,South,186,6.0,10.0,69,0.00,,---,0.30,VWS V14.00,2013-05-30 16:09:00,
2013-05-30 11:10:00,76.8,65.9,29.80,SE,141,10.0,10.0,69,0.00,,---,0.30,VWS V14.00,2013-05-30 16:10:00,
2013-05-30 11:11:00,76.8,65.9,29.79,South,180,18.0,22.0,69,0.00,,---,0.30,VWS V14.00,2013-05-30 16:11:00,
2013-05-30 11:12:00,76.8,65.4,29.80,SSE,157,8.0,20.0,68,0.00,,---,0.30,VWS V14.00,2013-05-30 16:12:00,
2013-05-30 11:13:00,76.8,65.9,29.80,SSE,157,11.0,11.0,69,0.00,,---,0.30,VWS V14.00,2013-05-30 16:13:00,
2013-05-30 11:14:00,76.8,65.4,29.80,SSE,147,15.0,18.0,68,0.00,,---,0.30,VWS V14.00,2013-05-30 16:14:00,
2013-05-30 11:15:00,76.8,65.4,29.80,South,169,15.0,18.0,68,0.00,,---,0.30,VWS V14.00,2013-05-30 16:15:00,
2013-05-30 11:16:00,76.8,65.9,29.80,South,188,11.0,16.0,69,0.00,,---,0.30,VWS V14.00,2013-05-30 16:16:00,
2013-05-30 11:17:00,76.8,65.4,29.80,South,179,4.0,14.0,68,0.00,,---,0.30,VWS V14.00,2013-05-30 16:17:00,
2013-05-30 11:18:00,76.8,65.9,29.80,South,172,9.0,11.0,69,0.00,,---,0.30,VWS V14.00,2013-05-30 16:18:00,
2013-05-30 11:19:00,76.8,65.9,29.80,SSW,194,16.0,16.0,69,0.00,,---,0.30,VWS V14.00,2013-05-30 16:19:00,
2013-05-30 11:20:00,76.8,65.9,29.80,South,176,3.0,13.0,69,0.00,,---,0.30,VWS V14.00,2013-05-30 16:20:00,
2013-05-30 11:21:00,76.8,65.9,29.80,South,174,6.0,11.0,69,0.00,,---,0.30,VWS V14.00,2013-05-30 16:21:00,
2013-05-30 11:22:00,76.8,65.9,29.80,SSW,206,4.0,11.0,69,0.00,,---,0.30,VWS V14.00,2013-05-30 16:22:00,
2013-05-30 11:23:00,76.8,65.9,29.79,SE,146,3.0,11.0,69,0.00,,---,0.30,VWS V14.00,2013-05-30 16:23:00,
2013-05-30 11:24:00,76.8,65.9,29.80,SSE,166,4.0,7.0,69,0.00,,---,0.30,VWS V14.00,2013-05-30 16:24:00,
2013-05-30 11:25:00,76.8,65.9,29.80,South,173,6.0,7.0,69,0.00,,---,0.30,VWS V14.00,2013-05-30 16:25:00,
2013-05-30 11:26:00,76.7,65.8,29.80,SE,133,17.0,21.0,69,0.00,,---,0.30,VWS V14.00,2013-05-30 16:26:00,
2013-05-30 11:27:00,76.8,65.9,29.79,SSE,167,11.0,17.0,69,0.00,,---,0.30,VWS V14.00,2013-05-30 16:27:00,
2013-05-30 11:28:00,76.8,65.9,29.80,SSE,163,7.0,11.0,69,0.00,,---,0.30,VWS V14.00,2013-05-30 16:28:00,
2013-05-30 11:29:00,76.8,65.4,29.80,SSE,157,6.0,22.0,68,0.00,,---,0.30,VWS V14.00,2013-05-30 16:29:00,
2013-05-30 11:30:00,76.8,65.9,29.80,SE,146,22.0,22.0,69,0.00,,---,0.30,VWS V14.00,2013-05-30 16:30:00,
2013-05-30 11:31:00,76.8,65.9,29.80,SSW,199,6.0,16.0,69,0.00,,---,0.30,VWS V14.00,2013-05-30 16:31:00,
2013-05-30 11:32:00,76.8,65.9,29.79,SE,131,11.0,12.0,69,0.00,,---,0.30,VWS V14.00,2013-05-30 16:32:00,
2013-05-30 11:33:00,76.8,65.9,29.79,SE,130,9.0,14.0,69,0.00,,---,0.30,VWS V14.00,2013-05-30 16:33:00,
2013-05-30 11:34:00,76.8,65.9,29.79,SE,130,9.0,10.0,69,0.00,,---,0.30,VWS V14.00,2013-05-30 16:34:00,
2013-05-30 11:35:00,76.8,65.9,29.79,SE,130,2.0,9.0,69,0.00,,---,0.30,VWS V14.00,2013-05-30 16:35:00,
2013-05-30 11:36:00,76.8,65.9,29.79,South,170,6.0,10.0,69,0.00,,---,0.30,VWS V14.00,2013-05-30 16:36:00,
2013-05-30 11:37:00,77.0,66.1,29.79,SSE,167,10.0,21.0,69,0.00,,---,0.30,VWS V14.00,2013-05-30 16:37:00,
2013-05-30 11:38:00,77.0,66.1,29.79,SSE,152,11.0,15.0,69,0.00,,---,0.30,VWS V14.00,2013-05-30 16:38:00,
2013-05-30 11:39:00,77.0,66.1,29.79,SSE,165,7.0,17.0,69,0.00,,---,0.30,VWS V14.00,2013-05-30 16:39:00,
2013-05-30 11:40:00,77.0,66.1,29.79,South,169,7.0,13.0,69,0.00,,---,0.30,VWS V14.00,2013-05-30 16:40:00,
2013-05-30 11:41:00,77.0,66.1,29.79,SSE,164,7.0,12.0,69,0.00,,---,0.30,VWS V14.00,2013-05-30 16:41:00,
2013-05-30 11:42:00,77.2,66.2,29.79,SSE,161,7.0,17.0,69,0.00,,---,0.30,VWS V14.00,2013-05-30 16:42:00,
2013-05-30 11:43:00,77.2,66.2,29.79,SSE,156,9.0,17.0,69,0.00,,---,0.30,VWS V14.00,2013-05-30 16:43:00,
2013-05-30 11:44:00,77.2,66.2,29.79,SSE,147,13.0,34.0,69,0.00,,---,0.30,VWS V14.00,2013-05-30 16:44:00,
2013-05-30 11:45:00,77.2,66.2,29.79,SSE,153,18.0,24.0,69,0.00,,---,0.30,VWS V14.00,2013-05-30 16:45:00,
2013-05-30 11:46:00,77.4,65.6,29.78,South,169,12.0,30.0,67,0.00,,---,0.30,VWS V14.00,2013-05-30 16:46:00,
2013-05-30 11:47:00,77.4,66.0,29.78,South,169,13.0,19.0,68,0.00,,---,0.30,VWS V14.00,2013-05-30 16:47:00,
2013-05-30 11:48:00,77.4,66.0,29.78,South,169,18.0,23.0,68,0.00,,---,0.30,VWS V14.00,2013-05-30 16:48:00,
2013-05-30 11:49:00,77.6,66.2,29.78,South,171,16.0,19.0,68,0.00,,---,0.30,VWS V14.00,2013-05-30 16:49:00,
2013-05-30 11:50:00,77.6,66.2,29.78,SSE,151,16.0,18.0,68,0.00,,---,0.30,VWS V14.00,2013-05-30 16:50:00,
2013-05-30 11:51:00,77.7,66.7,29.78,SSE,161,10.0,10.0,69,0.00,,---,0.30,VWS V14.00,2013-05-30 16:51:00,
2013-05-30 11:52:00,77.7,66.3,29.78,South,179,7.0,18.0,68,0.00,,---,0.30,VWS V14.00,2013-05-30 16:52:00,
2013-05-30 11:53:00,77.9,66.5,29.78,SSE,167,14.0,18.0,68,0.00,,---,0.30,VWS V14.00,2013-05-30 16:53:00,
2013-05-30 11:54:00,77.9,66.5,29.78,South,178,17.0,25.0,68,0.00,,---,0.30,VWS V14.00,2013-05-30 16:54:00,
2013-05-30 11:55:00,77.9,66.5,29.78,SSE,154,18.0,25.0,68,0.00,,---,0.30,VWS V14.00,2013-05-30 16:55:00,
2013-05-30 11:56:00,77.9,66.5,29.77,SSE,165,14.0,25.0,68,0.00,,---,0.30,VWS V14.00,2013-05-30 16:56:00,
2013-05-30 11:57:00,77.9,66.5,29.77,SSW,200,5.0,23.0,68,0.00,,---,0.30,VWS V14.00,2013-05-30 16:57:00,
2013-05-30 11:58:00,78.1,66.7,29.77,SSE,153,13.0,20.0,68,0.00,,---,0.30,VWS V14.00,2013-05-30 16:58:00,
2013-05-30 11:59:00,78.1,66.7,29.78,SSW,210,10.0,19.0,68,0.00,,---,0.30,VWS V14.00,2013-05-30 16:59:00,
2013-05-30 12:00:00,78.1,66.7,29.78,SSE,166,12.0,13.0,68,0.00,,---,0.30,VWS V14.00,2013-05-30 17:00:00,
2013-05-30 12:02:00,78.3,66.4,29.77,South,180,9.0,15.0,67,0.00,,---,0.30,VWS V14.00,2013-05-30 17:02:00,
2013-05-30 12:03:00,78.3,66.9,29.77,South,184,17.0,23.0,68,0.00,,---,0.30,VWS V14.00,2013-05-30 17:03:00,
2013-05-30 12:04:00,78.3,66.4,29.77,South,178,12.0,26.0,67,0.00,,---,0.30,VWS V14.00,2013-05-30 17:04:00,
2013-05-30 12:05:00,78.3,66.9,29.77,SSW,193,17.0,26.0,68,0.00,,---,0.30,VWS V14.00,2013-05-30 17:05:00,
2013-05-30 12:06:00,78.1,66.3,29.77,SE,146,9.0,19.0,67,0.00,,---,0.30,VWS V14.00,2013-05-30 17:06:00,
2013-05-30 12:07:00,78.3,66.4,29.77,South,186,11.0,22.0,67,0.00,,---,0.30,VWS V14.00,2013-05-30 17:07:00,
2013-05-30 12:08:00,78.1,66.3,29.76,SSE,148,12.0,20.0,67,0.00,,---,0.30,VWS V14.00,2013-05-30 17:08:00,
2013-05-30 12:09:00,78.1,66.3,29.77,SE,138,11.0,18.0,67,0.00,,---,0.30,VWS V14.00,2013-05-30 17:09:00,
2013-05-30 12:10:00,78.1,66.3,29.77,SSE,153,12.0,18.0,67,0.00,,---,0.30,VWS V14.00,2013-05-30 17:10:00,
2013-05-30 12:11:00,78.1,66.3,29.77,SE,130,14.0,19.0,67,0.00,,---,0.30,VWS V14.00,2013-05-30 17:11:00,
2013-05-30 12:12:00,78.1,66.3,29.76,SE,126,16.0,25.0,67,0.00,,---,0.30,VWS V14.00,2013-05-30 17:12:00,
2013-05-30 12:13:00,78.3,66.4,29.76,SE,136,18.0,19.0,67,0.00,,---,0.30,VWS V14.00,2013-05-30 17:13:00,
2013-05-30 12:14:00,78.3,66.0,29.77,South,190,16.0,18.0,66,0.00,,---,0.30,VWS V14.00,2013-05-30 17:14:00,
2013-05-30 12:15:00,78.3,66.0,29.77,SSE,167,13.0,18.0,66,0.00,,---,0.30,VWS V14.00,2013-05-30 17:15:00,
2013-05-30 12:16:00,78.5,66.6,29.76,South,188,4.0,16.0,67,0.00,,---,0.30,VWS V14.00,2013-05-30 17:16:00,
2013-05-30 12:17:00,78.6,66.7,29.76,South,187,5.0,18.0,67,0.00,,---,0.30,VWS V14.00,2013-05-30 17:17:00,
2013-05-30 12:18:00,78.6,66.7,29.76,SSW,192,11.0,18.0,67,0.00,,---,0.30,VWS V14.00,2013-05-30 17:18:00,
2013-05-30 12:19:00,78.6,66.7,29.76,SSE,156,13.0,27.0,67,0.00,,---,0.30,VWS V14.00,2013-05-30 17:19:00,
2013-05-30 12:20:00,78.6,66.7,29.76,SSE,165,16.0,20.0,67,0.00,,---,0.30,VWS V14.00,2013-05-30 17:20:00,
2013-05-30 12:21:00,78.5,66.6,29.76,SE,140,13.0,18.0,67,0.00,,---,0.30,VWS V14.00,2013-05-30 17:21:00,
2013-05-30 12:22:00,78.5,66.2,29.76,SSE,162,15.0,24.0,66,0.00,,---,0.30,VWS V14.00,2013-05-30 17:22:00,
2013-05-30 12:23:00,78.3,66.4,29.76,SE,131,13.0,19.0,67,0.00,,---,0.30,VWS V14.00,2013-05-30 17:23:00,
2013-05-30 12:24:00,78.1,66.3,29.76,South,175,12.0,23.0,67,0.00,,---,0.30,VWS V14.00,2013-05-30 17:24:00,
2013-05-30 12:25:00,78.3,66.4,29.76,South,185,18.0,23.0,67,0.00,,---,0.30,VWS V14.00,2013-05-30 17:25:00,
2013-05-30 12:26:00,77.9,66.1,29.76,SSE,148,14.0,18.0,67,0.00,,---,0.30,VWS V14.00,2013-05-30 17:26:00,
2013-05-30 12:27:00,77.9,66.5,29.76,SE,141,11.0,15.0,68,0.00,,---,0.30,VWS V14.00,2013-05-30 17:27:00,
2013-05-30 12:28:00,77.9,66.5,29.76,South,171,5.0,13.0,68,0.00,,---,0.30,VWS V14.00,2013-05-30 17:28:00,
2013-05-30 12:29:00,77.9,66.5,29.76,SSE,159,6.0,12.0,68,0.00,,---,0.30,VWS V14.00,2013-05-30 17:29:00,
2013-05-30 12:30:00,77.9,66.5,29.76,SSE,157,7.0,12.0,68,0.00,,---,0.30,VWS V14.00,2013-05-30 17:30:00,
2013-05-30 12:31:00,77.7,66.3,29.76,SSE,163,13.0,16.0,68,0.00,,---,0.30,VWS V14.00,2013-05-30 17:31:00,
2013-05-30 12:32:00,77.7,66.3,29.76,SSE,163,10.0,20.0,68,0.00,,---,0.30,VWS V14.00,2013-05-30 17:32:00,
2013-05-30 12:33:00,77.7,66.3,29.76,SSE,161,12.0,18.0,68,0.00,,---,0.30,VWS V14.00,2013-05-30 17:33:00,
2013-05-30 12:34:00,77.6,66.2,29.76,SSW,201,15.0,17.0,68,0.00,,---,0.30,VWS V14.00,2013-05-30 17:34:00,
2013-05-30 12:35:00,77.6,66.2,29.76,South,188,9.0,13.0,68,0.00,,---,0.30,VWS V14.00,2013-05-30 17:35:00,
2013-05-30 12:36:00,77.6,66.2,29.76,SSE,163,17.0,17.0,68,0.00,,---,0.30,VWS V14.00,2013-05-30 17:36:00,
2013-05-30 12:37:00,77.4,66.0,29.77,South,178,11.0,17.0,68,0.00,,---,0.30,VWS V14.00,2013-05-30 17:37:00,
2013-05-30 12:38:00,77.6,66.2,29.77,South,178,1.0,11.0,68,0.00,,---,0.30,VWS V14.00,2013-05-30 17:38:00,
2013-05-30 12:39:00,77.6,66.6,29.77,SE,140,4.0,11.0,69,0.00,,---,0.30,VWS V14.00,2013-05-30 17:39:00,
2013-05-30 12:40:00,77.6,66.2,29.77,South,191,7.0,7.0,68,0.00,,---,0.30,VWS V14.00,2013-05-30 17:40:00,
2013-05-30 12:41:00,77.4,66.4,29.77,South,175,9.0,15.0,69,0.00,,---,0.30,VWS V14.00,2013-05-30 17:41:00,
2013-05-30 12:42:00,77.4,66.4,29.77,South,178,9.0,18.0,69,0.00,,---,0.30,VWS V14.00,2013-05-30 17:42:00,
2013-05-30 12:43:00,77.4,66.4,29.77,SSE,165,6.0,12.0,69,0.00,,---,0.30,VWS V14.00,2013-05-30 17:43:00,
2013-05-30 12:44:00,77.4,66.4,29.77,SSE,158,12.0,16.0,69,0.00,,---,0.30,VWS V14.00,2013-05-30 17:44:00,
2013-05-30 12:45:00,77.4,66.4,29.77,South,171,9.0,16.0,69,0.00,,---,0.30,VWS V14.00,2013-05-30 17:45:00,
2013-05-30 12:46:00,77.2,66.2,29.77,SSE,151,15.0,15.0,69,0.00,,---,0.30,VWS V14.00,2013-05-30 17:46:00,
2013-05-30 12:47:00,77.2,66.2,29.78,SSW,196,6.0,15.0,69,0.00,,---,0.30,VWS V14.00,2013-05-30 17:47:00,
2013-05-30 12:48:00,77.2,66.2,29.78,South,178,4.0,15.0,69,0.00,,---,0.30,VWS V14.00,2013-05-30 17:48:00,
2013-05-30 12:49:00,77.0,66.1,29.78,South,186,12.0,16.0,69,0.00,,---,0.30,VWS V14.00,2013-05-30 17:49:00,
2013-05-30 12:50:00,77.2,66.2,29.78,SSW,196,6.0,7.0,69,0.00,,---,0.30,VWS V14.00,2013-05-30 17:50:00,
2013-05-30 12:51:00,77.0,66.1,29.77,South,179,5.0,16.0,69,0.00,,---,0.30,VWS V14.00,2013-05-30 17:51:00,
2013-05-30 12:52:00,76.8,65.9,29.77,SSW,196,5.0,21.0,69,0.00,,---,0.30,VWS V14.00,2013-05-30 17:52:00,
2013-05-30 12:53:00,76.8,65.9,29.78,SE,146,12.0,12.0,69,0.00,,---,0.30,VWS V14.00,2013-05-30 17:53:00,
2013-05-30 12:54:00,76.8,65.9,29.77,South,186,12.0,15.0,69,0.00,,---,0.30,VWS V14.00,2013-05-30 17:54:00,
2013-05-30 12:55:00,76.8,65.9,29.77,South,175,9.0,15.0,69,0.00,,---,0.30,VWS V14.00,2013-05-30 17:55:00,
2013-05-30 12:56:00,76.7,65.8,29.78,SE,131,13.0,17.0,69,0.00,,---,0.30,VWS V14.00,2013-05-30 17:56:00,
2013-05-30 12:57:00,76.7,66.2,29.78,SE,128,15.0,18.0,70,0.00,,---,0.30,VWS V14.00,2013-05-30 17:57:00,
2013-05-30 12:58:00,76.7,66.2,29.77,SE,136,8.0,19.0,70,0.00,,---,0.30,VWS V14.00,2013-05-30 17:58:00,
2013-05-30 12:59:00,76.5,66.0,29.77,SE,140,10.0,19.0,70,0.00,,---,0.30,VWS V14.00,2013-05-30 17:59:00,
2013-05-30 13:00:00,76.5,66.0,29.77,SE,135,7.0,11.0,70,0.00,,---,0.30,VWS V14.00,2013-05-30 18:00:00,
2013-05-30 13:01:00,76.5,66.0,29.77,SSE,165,6.0,13.0,70,0.00,,---,0.30,VWS V14.00,2013-05-30 18:01:00,
2013-05-30 13:02:00,76.3,65.8,29.78,SSE,165,3.0,10.0,70,0.00,,---,0.30,VWS V14.00,2013-05-30 18:02:00,
2013-05-30 13:03:00,76.3,65.8,29.78,SSE,163,6.0,11.0,70,0.00,,---,0.30,VWS V14.00,2013-05-30 18:03:00,
2013-05-30 13:04:00,76.3,66.2,29.78,SSE,160,14.0,17.0,71,0.00,,---,0.30,VWS V14.00,2013-05-30 18:04:00,
2013-05-30 13:05:00,76.3,65.8,29.78,SSE,150,10.0,10.0,70,0.00,,---,0.30,VWS V14.00,2013-05-30 18:05:00,
2013-05-30 13:06:00,76.1,65.6,29.78,SSE,163,7.0,22.0,70,0.00,,---,0.30,VWS V14.00,2013-05-30 18:06:00,
2013-05-30 13:07:00,76.1,66.0,29.78,South,180,5.0,10.0,71,0.00,,---,0.30,VWS V14.00,2013-05-30 18:07:00,
2013-05-30 13:08:00,76.3,66.2,29.78,South,178,7.0,7.0,71,0.00,,---,0.30,VWS V14.00,2013-05-30 18:08:00,
2013-05-30 13:09:00,76.3,66.2,29.78,South,169,6.0,10.0,71,0.00,,---,0.30,VWS V14.00,2013-05-30 18:09:00,
2013-05-30 13:10:00,76.3,66.2,29.78,South,176,7.0,7.0,71,0.00,,---,0.30,VWS V14.00,2013-05-30 18:10:00,
2013-05-30 13:11:00,76.3,66.2,29.78,SSE,157,8.0,14.0,71,0.00,,---,0.30,VWS V14.00,2013-05-30 18:11:00,
2013-05-30 13:12:00,76.3,66.2,29.78,SE,136,19.0,19.0,71,0.00,,---,0.30,VWS V14.00,2013-05-30 18:12:00,
2013-05-30 13:13:00,76.3,66.2,29.78,SSE,165,9.0,19.0,71,0.00,,---,0.30,VWS V14.00,2013-05-30 18:13:00,
2013-05-30 13:14:00,76.3,66.2,29.78,SSW,200,7.0,15.0,71,0.00,,---,0.30,VWS V14.00,2013-05-30 18:14:00,
2013-05-30 13:15:00,76.3,66.2,29.78,South,180,7.0,15.0,71,0.00,,---,0.30,VWS V14.00,2013-05-30 18:15:00,
2013-05-30 13:16:00,76.3,66.2,29.78,South,180,13.0,18.0,71,0.00,,---,0.30,VWS V14.00,2013-05-30 18:16:00,
2013-05-30 13:17:00,76.1,66.0,29.78,SSE,165,6.0,14.0,71,0.00,,---,0.30,VWS V14.00,2013-05-30 18:17:00,
2013-05-30 13:18:00,76.1,66.4,29.78,South,175,8.0,11.0,72,0.00,,---,0.30,VWS V14.00,2013-05-30 18:18:00,
2013-05-30 13:19:00,76.1,66.4,29.78,South,171,9.0,10.0,72,0.00,,---,0.30,VWS V14.00,2013-05-30 18:19:00,
2013-05-30 13:20:00,76.1,66.4,29.78,South,170,9.0,9.0,72,0.00,,---,0.30,VWS V14.00,2013-05-30 18:20:00,
2013-05-30 13:21:00,76.0,66.3,29.78,South,171,6.0,11.0,72,0.00,,---,0.30,VWS V14.00,2013-05-30 18:21:00,
2013-05-30 13:22:00,76.0,66.3,29.78,SSW,204,11.0,21.0,72,0.00,,---,0.30,VWS V14.00,2013-05-30 18:22:00,
2013-05-30 13:23:00,75.8,66.1,29.78,SSE,157,9.0,13.0,72,0.00,,---,0.30,VWS V14.00,2013-05-30 18:23:00,
2013-05-30 13:24:00,75.8,66.1,29.78,South,173,4.0,10.0,72,0.00,,---,0.30,VWS V14.00,2013-05-30 18:24:00,
2013-05-30 13:25:00,75.8,66.1,29.78,SSE,161,9.0,10.0,72,0.00,,---,0.30,VWS V14.00,2013-05-30 18:25:00,
2013-05-30 13:26:00,75.6,65.9,29.78,SE,145,12.0,17.0,72,0.00,,---,0.30,VWS V14.00,2013-05-30 18:26:00,
2013-05-30 13:27:00,75.4,65.8,29.78,SSE,163,11.0,17.0,72,0.00,,---,0.30,VWS V14.00,2013-05-30 18:27:00,
2013-05-30 13:28:00,75.3,65.7,29.78,SSE,159,7.0,23.0,72,0.00,,---,0.30,VWS V14.00,2013-05-30 18:28:00,
2013-05-30 13:29:00,75.3,65.3,29.78,SE,138,23.0,28.0,71,0.00,,---,0.30,VWS V14.00,2013-05-30 18:29:00,
2013-05-30 13:30:00,75.3,65.7,29.78,South,188,20.0,20.0,72,0.00,,---,0.30,VWS V14.00,2013-05-30 18:30:00,
2013-05-30 13:31:00,74.9,64.1,29.78,South,175,10.0,18.0,69,0.00,,---,0.30,VWS V14.00,2013-05-30 18:31:00,
2013-05-30 13:32:00,74.9,64.1,29.78,South,169,14.0,18.0,69,0.00,,---,0.30,VWS V14.00,2013-05-30 18:32:00,
2013-05-30 13:33:00,74.7,63.5,29.78,SSE,157,15.0,29.0,68,0.00,,---,0.30,VWS V14.00,2013-05-30 18:33:00,
2013-05-30 13:34:00,74.7,63.0,29.78,SSW,194,9.0,17.0,67,0.00,,---,0.30,VWS V14.00,2013-05-30 18:34:00,
2013-05-30 13:35:00,74.7,63.5,29.78,SSE,157,9.0,17.0,68,0.00,,---,0.30,VWS V14.00,2013-05-30 18:35:00,
2013-05-30 13:36:00,74.7,63.0,29.78,SSE,163,20.0,23.0,67,0.00,,---,0.30,VWS V14.00,2013-05-30 18:36:00,
2013-05-30 13:37:00,74.6,62.9,29.78,SSE,164,13.0,21.0,67,0.00,,---,0.30,VWS V14.00,2013-05-30 18:37:00,
2013-05-30 13:38:00,74.6,62.1,29.78,South,176,7.0,30.0,65,0.00,,---,0.30,VWS V14.00,2013-05-30 18:38:00,
2013-05-30 13:39:00,74.6,62.5,29.78,South,190,7.0,19.0,66,0.00,,---,0.30,VWS V14.00,2013-05-30 18:39:00,
2013-05-30 13:40:00,74.6,62.1,29.78,SSE,157,19.0,19.0,65,0.00,,---,0.30,VWS V14.00,2013-05-30 18:40:00,
2013-05-30 13:41:00,74.6,62.5,29.78,SSE,168,11.0,18.0,66,0.00,,---,0.30,VWS V14.00,2013-05-30 18:41:00,
2013-05-30 13:42:00,74.4,62.7,29.78,South,189,19.0,19.0,67,0.00,,---,0.30,VWS V14.00,2013-05-30 18:42:00,
2013-05-30 13:43:00,74.4,62.3,29.78,SE,138,19.0,26.0,66,0.00,,---,0.30,VWS V14.00,2013-05-30 18:43:00,
2013-05-30 13:44:00,74.4,62.3,29.78,SSE,165,7.0,19.0,66,0.00,,---,0.30,VWS V14.00,2013-05-30 18:44:00,
2013-05-30 13:45:00,74.4,62.3,29.78,SSW,201,14.0,19.0,66,0.00,,---,0.30,VWS V14.00,2013-05-30 18:45:00,
2013-05-30 13:46:00,74.2,62.5,29.78,South,188,10.0,18.0,67,0.00,,---,0.30,VWS V14.00,2013-05-30 18:46:00,
2013-05-30 13:47:00,74.0,62.4,29.78,SE,146,13.0,13.0,67,0.00,,---,0.30,VWS V14.00,2013-05-30 18:47:00,
2013-05-30 13:48:00,74.0,62.8,29.78,SSE,155,9.0,13.0,68,0.00,,---,0.30,VWS V14.00,2013-05-30 18:48:00,
2013-05-30 13:49:00,73.9,62.7,29.78,SSE,167,10.0,23.0,68,0.00,,---,0.30,VWS V14.00,2013-05-30 18:49:00,
2013-05-30 13:50:00,74.0,62.8,29.78,SSE,158,11.0,11.0,68,0.00,,---,0.30,VWS V14.00,2013-05-30 18:50:00,
2013-05-30 13:51:00,73.5,62.3,29.78,South,174,11.0,24.0,68,0.00,,---,0.30,VWS V14.00,2013-05-30 18:51:00,
2013-05-30 13:52:00,73.3,62.1,29.78,SSE,153,11.0,19.0,68,0.00,,---,0.30,VWS V14.00,2013-05-30 18:52:00,
2013-05-30 13:53:00,73.2,62.0,29.78,South,175,13.0,25.0,68,0.00,,---,0.30,VWS V14.00,2013-05-30 18:53:00,
2013-05-30 13:54:00,73.0,61.8,29.77,SSE,167,7.0,19.0,68,0.00,,---,0.30,VWS V14.00,2013-05-30 18:54:00,
2013-05-30 13:55:00,73.2,62.0,29.77,South,179,15.0,17.0,68,0.00,,---,0.30,VWS V14.00,2013-05-30 18:55:00,
2013-05-30 13:56:00,73.0,62.2,29.77,South,176,11.0,14.0,69,0.00,,---,0.30,VWS V14.00,2013-05-30 18:56:00,
2013-05-30 13:58:00,72.8,62.0,29.77,South,175,6.0,16.0,69,0.00,,---,0.30,VWS V14.00,2013-05-30 18:58:00,
2013-05-30 13:59:00,72.8,62.0,29.77,SSE,162,8.0,16.0,69,0.00,,---,0.30,VWS V14.00,2013-05-30 18:59:00,
2013-05-30 14:00:00,72.8,62.0,29.77,SE,140,14.0,14.0,69,0.00,,---,0.30,VWS V14.00,2013-05-30 19:00:00,
2013-05-30 14:01:00,72.5,61.8,29.77,South,175,9.0,19.0,69,0.00,,---,0.30,VWS V14.00,2013-05-30 19:01:00,
2013-05-30 14:02:00,72.5,62.2,29.77,SE,134,11.0,17.0,70,0.00,,---,0.30,VWS V14.00,2013-05-30 19:02:00,
2013-05-30 14:03:00,72.3,62.0,29.76,SSE,153,23.0,23.0,70,0.00,,---,0.30,VWS V14.00,2013-05-30 19:03:00,
2013-05-30 14:04:00,72.1,61.4,29.76,South,175,16.0,23.0,69,0.00,,---,0.30,VWS V14.00,2013-05-30 19:04:00,
2013-05-30 14:05:00,72.3,62.0,29.76,SSE,165,19.0,23.0,70,0.00,,---,0.30,VWS V14.00,2013-05-30 19:05:00,
2013-05-30 14:06:00,71.8,61.1,29.76,SSE,152,8.0,16.0,69,0.00,,---,0.30,VWS V14.00,2013-05-30 19:06:00,
2013-05-30 14:07:00,71.8,61.5,29.75,SSE,159,12.0,16.0,70,0.00,,---,0.30,VWS V14.00,2013-05-30 19:07:00,
2013-05-30 14:08:00,71.6,61.3,29.75,South,183,11.0,22.0,70,0.00,,---,0.30,VWS V14.00,2013-05-30 19:08:00,
2013-05-30 14:09:00,71.6,61.3,29.75,SSE,153,7.0,21.0,70,0.00,,---,0.30,VWS V14.00,2013-05-30 19:09:00,
2013-05-30 14:10:00,71.6,61.3,29.75,SSE,152,14.0,18.0,70,0.00,,---,0.30,VWS V14.00,2013-05-30 19:10:00,
2013-05-30 14:11:00,71.6,60.9,29.74,SSE,164,8.0,16.0,69,0.00,,---,0.30,VWS V14.00,2013-05-30 19:11:00,
2013-05-30 14:12:00,71.5,60.8,29.75,SE,130,13.0,13.0,69,0.00,,---,0.30,VWS V14.00,2013-05-30 19:12:00,
2013-05-30 14:13:00,71.5,60.8,29.74,SSE,149,7.0,17.0,69,0.00,,---,0.30,VWS V14.00,2013-05-30 19:13:00,
2013-05-30 14:14:00,71.3,60.6,29.74,SSE,167,5.0,18.0,69,0.00,,---,0.30,VWS V14.00,2013-05-30 19:14:00,
2013-05-30 14:15:00,71.5,60.8,29.74,SE,138,6.0,9.0,69,0.00,,---,0.30,VWS V14.00,2013-05-30 19:15:00,
2013-05-30 14:16:00,70.9,60.2,29.75,South,182,11.0,20.0,69,0.00,,---,0.30,VWS V14.00,2013-05-30 19:16:00,
2013-05-30 14:17:00,70.8,60.5,29.76,South,169,7.0,12.0,70,0.00,,---,0.30,VWS V14.00,2013-05-30 19:17:00,
2013-05-30 14:18:00,70.6,60.8,29.78,SSW,200,13.0,18.0,71,0.00,,---,0.30,VWS V14.00,2013-05-30 19:18:00,
2013-05-30 14:19:00,70.4,60.6,29.78,South,178,1.0,13.0,71,0.00,,---,0.30,VWS V14.00,2013-05-30 19:19:00,
2013-05-30 14:20:00,70.6,60.8,29.78,SE,146,11.0,13.0,71,0.00,,---,0.30,VWS V14.00,2013-05-30 19:20:00,
2013-05-30 14:21:00,70.3,60.9,29.78,SSE,160,4.0,16.0,72,0.00,,---,0.30,VWS V14.00,2013-05-30 19:21:00,
2013-05-30 14:22:00,70.1,60.7,29.78,South,184,9.0,10.0,72,0.00,,---,0.30,VWS V14.00,2013-05-30 19:22:00,
2013-05-30 14:23:00,70.1,60.7,29.78,SSW,207,12.0,12.0,72,0.00,,---,0.30,VWS V14.00,2013-05-30 19:23:00,
2013-05-30 14:24:00,69.9,60.5,29.78,South,174,7.0,16.0,72,0.00,,---,0.30,VWS V14.00,2013-05-30 19:24:00,
2013-05-30 14:25:00,69.9,60.5,29.78,SE,136,10.0,16.0,72,0.00,,---,0.30,VWS V14.00,2013-05-30 19:25:00,
2013-05-30 14:26:00,69.8,60.4,29.78,SSW,198,0.0,7.0,72,0.00,,---,0.30,VWS V14.00,2013-05-30 19:26:00,
2013-05-30 14:27:00,69.8,60.8,29.78,South,188,2.0,10.0,73,0.00,,---,0.30,VWS V14.00,2013-05-30 19:27:00,
2013-05-30 14:28:00,69.6,60.6,29.78,South,188,3.0,3.0,73,0.00,,---,0.30,VWS V14.00,2013-05-30 19:28:00,
2013-05-30 14:29:00,69.6,60.6,29.78,South,188,2.0,5.0,73,0.00,,---,0.30,VWS V14.00,2013-05-30 19:29:00,
2013-05-30 14:30:00,69.6,60.6,29.78,South,188,2.0,5.0,73,0.00,,---,0.30,VWS V14.00,2013-05-30 19:30:00,
2013-05-30 14:31:00,69.6,61.0,29.78,South,186,4.0,7.0,74,0.00,,---,0.30,VWS V14.00,2013-05-30 19:31:00,
2013-05-30 14:32:00,69.4,60.8,29.78,South,186,4.0,6.0,74,0.00,,---,0.30,VWS V14.00,2013-05-30 19:32:00,
2013-05-30 14:33:00,69.4,60.8,29.78,South,186,2.0,4.0,74,0.00,,---,0.30,VWS V14.00,2013-05-30 19:33:00,
2013-05-30 14:34:00,69.4,61.1,29.79,South,186,2.0,7.0,75,0.00,,---,0.30,VWS V14.00,2013-05-30 19:34:00,
2013-05-30 14:35:00,69.4,60.8,29.79,South,186,5.0,5.0,74,0.00,,---,0.30,VWS V14.00,2013-05-30 19:35:00,
2013-05-30 14:36:00,69.4,60.8,29.79,SE,125,7.0,13.0,74,0.00,,---,0.30,VWS V14.00,2013-05-30 19:36:00,
2013-05-30 14:37:00,69.3,60.7,29.79,SE,134,9.0,12.0,74,0.00,,---,0.30,VWS V14.00,2013-05-30 19:37:00,
2013-05-30 14:38:00,69.3,60.7,29.79,SE,134,6.0,11.0,74,0.00,,---,0.30,VWS V14.00,2013-05-30 19:38:00,
2013-05-30 14:39:00,69.3,60.7,29.79,SE,134,4.0,6.0,74,0.00,,---,0.30,VWS V14.00,2013-05-30 19:39:00,
2013-05-30 14:40:00,69.3,60.7,29.79,SE,134,2.0,6.0,74,0.00,,---,0.30,VWS V14.00,2013-05-30 19:40:00,
2013-05-30 14:41:00,69.3,60.7,29.78,SSE,150,7.0,13.0,74,0.00,,---,0.30,VWS V14.00,2013-05-30 19:41:00,
2013-05-30 14:42:00,69.1,60.5,29.78,SSE,149,6.0,10.0,74,0.00,,---,0.30,VWS V14.00,2013-05-30 19:42:00,
2013-05-30 14:43:00,69.1,60.5,29.78,SSE,150,10.0,12.0,74,0.00,,---,0.30,VWS V14.00,2013-05-30 19:43:00,
2013-05-30 14:44:00,68.9,60.7,29.79,SE,140,16.0,16.0,75,0.00,,---,0.30,VWS V14.00,2013-05-30 19:44:00,
2013-05-30 14:45:00,69.1,60.5,29.79,SSE,149,6.0,10.0,74,0.00,,---,0.30,VWS V14.00,2013-05-30 19:45:00,
2013-05-30 14:46:00,68.6,60.4,29.79,SSW,199,3.0,15.0,75,0.00,,---,0.30,VWS V14.00,2013-05-30 19:46:00,
2013-05-30 14:47:00,68.4,60.5,29.80,SSE,161,12.0,12.0,76,0.00,,---,0.30,VWS V14.00,2013-05-30 19:47:00,
2013-05-30 14:48:00,68.3,60.5,29.80,SSE,167,6.0,12.0,76,0.01,,---,0.31,VWS V14.00,2013-05-30 19:48:00,
2013-05-30 14:49:00,68.1,60.6,29.80,SSE,160,9.0,13.0,77,0.01,,---,0.31,VWS V14.00,2013-05-30 19:49:00,
2013-05-30 14:50:00,68.3,60.5,29.80,South,169,4.0,7.0,76,0.01,,---,0.31,VWS V14.00,2013-05-30 19:50:00,
2013-05-30 14:52:00,67.4,60.7,29.81,SSE,156,7.0,15.0,79,0.03,,---,0.33,VWS V14.00,2013-05-30 19:52:00,
2013-05-30 14:53:00,67.3,60.9,29.82,SSE,152,4.0,7.0,80,0.05,,---,0.35,VWS V14.00,2013-05-30 19:53:00,
2013-05-30 14:54:00,67.1,61.1,29.82,SSE,165,8.0,18.0,81,0.06,,---,0.36,VWS V14.00,2013-05-30 19:54:00,
2013-05-30 14:55:00,67.3,60.9,29.82,SSE,151,7.0,7.0,80,0.05,,---,0.35,VWS V14.00,2013-05-30 19:55:00,
2013-05-30 14:56:00,66.4,60.7,29.82,SE,133,11.0,16.0,82,0.09,,---,0.39,VWS V14.00,2013-05-30 19:56:00,
2013-05-30 14:57:00,66.1,60.5,29.82,South,183,5.0,13.0,82,0.12,,---,0.42,VWS V14.00,2013-05-30 19:57:00,
2013-05-30 14:58:00,66.0,61.0,29.82,South,170,16.0,25.0,84,0.15,,---,0.45,VWS V14.00,2013-05-30 19:58:00,
2013-05-30 14:59:00,65.6,60.6,29.82,SE,131,8.0,16.0,84,0.20,,---,0.50,VWS V14.00,2013-05-30 19:59:00,
2013-05-30 15:00:00,65.8,60.8,29.82,SSW,196,14.0,16.0,84,0.17,,---,0.47,VWS V14.00,2013-05-30 20:00:00,
2013-05-30 15:02:00,65.3,61.0,29.82,South,175,3.0,19.0,86,0.30,,---,0.60,VWS V14.00,2013-05-30 20:02:00,
2013-05-30 15:03:00,65.3,61.0,29.81,SSE,150,3.0,11.0,86,0.30,,---,0.60,VWS V14.00,2013-05-30 20:03:00,
2013-05-30 15:04:00,65.2,61.2,29.81,South,170,8.0,8.0,87,0.31,,---,0.61,VWS V14.00,2013-05-30 20:04:00,
2013-05-30 15:05:00,65.3,61.3,29.81,SSE,150,0.0,3.0,87,0.30,,---,0.60,VWS V14.00,2013-05-30 20:05:00,
2013-05-30 15:06:00,65.2,60.9,29.81,South,171,2.0,2.0,86,0.31,,---,0.61,VWS V14.00,2013-05-30 20:06:00,
2013-05-30 15:07:00,65.2,60.9,29.82,South,180,4.0,11.0,86,0.32,,---,0.62,VWS V14.00,2013-05-30 20:07:00,
2013-05-30 15:08:00,65.0,60.7,29.82,SSW,194,9.0,15.0,86,0.32,,---,0.62,VWS V14.00,2013-05-30 20:08:00,
2013-05-30 15:09:00,65.0,60.7,29.83,SSW,195,2.0,9.0,86,0.34,,---,0.64,VWS V14.00,2013-05-30 20:09:00,
2013-05-30 15:10:00,65.0,60.7,29.83,SSW,194,6.0,9.0,86,0.32,,---,0.62,VWS V14.00,2013-05-30 20:10:00,
2013-05-30 15:11:00,65.0,60.7,29.83,SSW,195,3.0,4.0,86,0.38,,---,0.68,VWS V14.00,2013-05-30 20:11:00,
2013-05-30 15:12:00,65.0,60.7,29.83,SSW,195,0.0,4.0,86,0.39,,---,0.69,VWS V14.00,2013-05-30 20:12:00,
2013-05-30 15:13:00,65.0,60.7,29.82,SSW,195,1.0,2.0,86,0.39,,---,0.69,VWS V14.00,2013-05-30 20:13:00,
2013-05-30 15:14:00,65.0,60.7,29.82,SSW,195,2.0,4.0,86,0.39,,---,0.69,VWS V14.00,2013-05-30 20:14:00,
2013-05-30 15:15:00,65.0,60.7,29.82,SSW,195,2.0,3.0,86,0.39,,---,0.69,VWS V14.00,2013-05-30 20:15:00,
2013-05-30 15:16:00,65.0,61.0,29.81,SSW,195,1.0,3.0,87,0.39,,---,0.69,VWS V14.00,2013-05-30 20:16:00,
2013-05-30 15:17:00,65.2,61.2,29.81,SSW,195,3.0,3.0,87,0.39,,---,0.69,VWS V14.00,2013-05-30 20:17:00,
2013-05-30 15:18:00,65.2,61.2,29.81,SSW,195,3.0,4.0,87,0.40,,---,0.70,VWS V14.00,2013-05-30 20:18:00,
2013-05-30 15:19:00,65.2,61.2,29.81,SSW,195,0.0,3.0,87,0.40,,---,0.70,VWS V14.00,2013-05-30 20:19:00,
2013-05-30 15:20:00,65.2,61.2,29.81,SSW,195,2.0,3.0,87,0.40,,---,0.70,VWS V14.00,2013-05-30 20:20:00,
2013-05-30 15:21:00,65.3,61.7,29.80,SSW,195,0.0,0.0,88,0.40,,---,0.70,VWS V14.00,2013-05-30 20:21:00,
2013-05-30 15:22:00,65.5,61.9,29.80,SSW,195,0.0,1.0,88,0.40,,---,0.70,VWS V14.00,2013-05-30 20:22:00,
2013-05-30 15:23:00,65.5,61.9,29.79,SSW,195,0.0,0.0,88,0.40,,---,0.70,VWS V14.00,2013-05-30 20:23:00,
2013-05-30 15:24:00,65.5,61.9,29.79,SSW,195,0.0,0.0,88,0.40,,---,0.70,VWS V14.00,2013-05-30 20:24:00,
2013-05-30 15:25:00,65.5,61.9,29.79,SSW,195,0.0,0.0,88,0.40,,---,0.70,VWS V14.00,2013-05-30 20:25:00,
2013-05-30 15:26:00,65.6,62.3,29.79,SE,135,1.0,1.0,89,0.40,,---,0.70,VWS V14.00,2013-05-30 20:26:00,
2013-05-30 15:27:00,65.8,62.5,29.79,SE,134,2.0,5.0,89,0.40,,---,0.70,VWS V14.00,2013-05-30 20:27:00,
2013-05-30 15:28:00,65.8,62.5,29.79,SE,132,0.0,2.0,89,0.40,,---,0.70,VWS V14.00,2013-05-30 20:28:00,
2013-05-30 15:29:00,65.8,62.5,29.79,SE,130,0.0,4.0,89,0.40,,---,0.70,VWS V14.00,2013-05-30 20:29:00,
2013-05-30 15:30:00,65.8,62.5,29.79,SE,130,4.0,4.0,89,0.40,,---,0.70,VWS V14.00,2013-05-30 20:30:00,
2013-05-30 15:31:00,66.1,62.8,29.79,SE,128,3.0,4.0,89,0.40,,---,0.70,VWS V14.00,2013-05-30 20:31:00,
2013-05-30 15:32:00,66.1,62.8,29.79,SE,135,1.0,4.0,89,0.40,,---,0.70,VWS V14.00,2013-05-30 20:32:00,
2013-05-30 15:33:00,66.3,63.0,29.78,ESE,119,4.0,5.0,89,0.40,,---,0.70,VWS V14.00,2013-05-30 20:33:00,
2013-05-30 15:34:00,66.4,63.1,29.78,ESE,112,1.0,4.0,89,0.40,,---,0.70,VWS V14.00,2013-05-30 20:34:00,
2013-05-30 15:35:00,66.3,63.0,29.78,ESE,115,2.0,4.0,89,0.40,,---,0.70,VWS V14.00,2013-05-30 20:35:00,
2013-05-30 15:36:00,66.6,63.3,29.78,SSE,160,7.0,7.0,89,0.40,,---,0.70,VWS V14.00,2013-05-30 20:36:00,
2013-05-30 15:37:00,66.8,63.5,29.78,SSE,162,6.0,7.0,89,0.40,,---,0.70,VWS V14.00,2013-05-30 20:37:00,
2013-05-30 15:38:00,66.8,63.5,29.78,SSE,163,1.0,6.0,89,0.40,,---,0.70,VWS V14.00,2013-05-30 20:38:00,
2013-05-30 15:39:00,66.9,63.6,29.78,South,170,3.0,6.0,89,0.40,,---,0.70,VWS V14.00,2013-05-30 20:39:00,
2013-05-30 15:40:00,66.8,63.5,29.78,South,169,3.0,4.0,89,0.40,,---,0.70,VWS V14.00,2013-05-30 20:40:00,
2013-05-30 15:41:00,67.1,63.4,29.79,SE,133,2.0,6.0,88,0.40,,---,0.70,VWS V14.00,2013-05-30 20:41:00,
2013-05-30 15:42:00,67.1,63.4,29.78,SE,132,0.0,2.0,88,0.40,,---,0.70,VWS V14.00,2013-05-30 20:42:00,
2013-05-30 15:43:00,67.3,63.6,29.78,SE,134,2.0,10.0,88,0.40,,---,0.70,VWS V14.00,2013-05-30 20:43:00,
2013-05-30 15:44:00,67.3,63.6,29.78,SE,128,5.0,9.0,88,0.40,,---,0.70,VWS V14.00,2013-05-30 20:44:00,
2013-05-30 15:45:00,67.3,63.6,29.78,SE,133,4.0,6.0,88,0.40,,---,0.70,VWS V14.00,2013-05-30 20:45:00,
2013-05-30 15:46:00,67.3,63.3,29.78,SSE,157,4.0,10.0,87,0.40,,---,0.70,VWS V14.00,2013-05-30 20:46:00,
2013-05-30 15:47:00,67.4,63.4,29.78,SSE,159,2.0,6.0,87,0.40,,---,0.70,VWS V14.00,2013-05-30 20:47:00,
2013-05-30 15:48:00,67.4,63.4,29.78,SSE,159,1.0,4.0,87,0.40,,---,0.70,VWS V14.00,2013-05-30 20:48:00,
2013-05-30 15:49:00,67.4,63.4,29.78,SSE,153,4.0,4.0,87,0.39,,---,0.70,VWS V14.00,2013-05-30 20:49:00,
2013-05-30 15:50:00,67.4,63.4,29.78,SSE,157,3.0,3.0,87,0.39,,---,0.70,VWS V14.00,2013-05-30 20:50:00,
2013-05-30 15:51:00,67.6,63.6,29.78,SSE,155,7.0,7.0,87,0.39,,---,0.70,VWS V14.00,2013-05-30 20:51:00,
2013-05-30 15:52:00,67.8,63.8,29.78,SSE,156,6.0,7.0,87,0.38,,---,0.70,VWS V14.00,2013-05-30 20:52:00,
2013-05-30 15:53:00,67.8,63.8,29.78,SSE,160,4.0,11.0,87,0.37,,---,0.70,VWS V14.00,2013-05-30 20:53:00,
2013-05-30 15:54:00,67.9,63.9,29.78,SSE,160,2.0,4.0,87,0.35,,---,0.70,VWS V14.00,2013-05-30 20:54:00,
2013-05-30 15:55:00,67.8,63.8,29.78,SSE,160,4.0,4.0,87,0.35,,---,0.70,VWS V14.00,2013-05-30 20:55:00,
2013-05-30 15:56:00,68.1,64.1,29.77,SSE,157,2.0,10.0,87,0.32,,---,0.70,VWS V14.00,2013-05-30 20:56:00,
2013-05-30 15:57:00,68.3,64.3,29.77,SSE,156,2.0,11.0,87,0.31,,---,0.70,VWS V14.00,2013-05-30 20:57:00,
2013-05-30 15:58:00,68.3,64.3,29.77,SSE,159,6.0,7.0,87,0.28,,---,0.70,VWS V14.00,2013-05-30 20:58:00,
2013-05-30 15:59:00,68.4,64.4,29.77,ESE,107,11.0,13.0,87,0.25,,---,0.70,VWS V14.00,2013-05-30 20:59:00,
2013-05-30 16:00:00,68.4,64.4,29.77,SSE,159,2.0,6.0,87,0.25,,---,0.70,VWS V14.00,2013-05-30 21:00:00,
2013-05-30 16:01:00,68.6,64.2,29.77,SE,132,14.0,14.0,86,0.16,,---,0.70,VWS V14.00,2013-05-30 21:01:00,
2013-05-30 16:02:00,68.8,64.4,29.77,South,172,2.0,14.0,86,0.14,,---,0.70,VWS V14.00,2013-05-30 21:02:00,
2013-05-30 16:03:00,68.9,64.6,29.76,South,175,6.0,6.0,86,0.10,,---,0.70,VWS V14.00,2013-05-30 21:03:00,
2013-05-30 16:04:00,68.9,64.6,29.76,SE,144,13.0,13.0,86,0.10,,---,0.70,VWS V14.00,2013-05-30 21:04:00,
2013-05-30 16:05:00,68.9,64.6,29.76,SE,138,13.0,13.0,86,0.10,,---,0.70,VWS V14.00,2013-05-30 21:05:00,
2013-05-30 16:06:00,69.1,64.7,29.76,SSE,156,7.0,7.0,86,0.09,,---,0.70,VWS V14.00,2013-05-30 21:06:00,
2013-05-30 16:07:00,69.3,64.9,29.76,South,173,4.0,10.0,86,0.09,,---,0.70,VWS V14.00,2013-05-30 21:07:00,
2013-05-30 16:08:00,69.4,65.0,29.75,South,173,4.0,8.0,86,0.08,,---,0.70,VWS V14.00,2013-05-30 21:08:00,
2013-05-30 16:09:00,69.6,65.2,29.75,SSE,158,14.0,14.0,86,0.08,,---,0.70,VWS V14.00,2013-05-30 21:09:00,
2013-05-30 16:10:00,69.6,65.2,29.75,South,173,7.0,7.0,86,0.08,,---,0.70,VWS V14.00,2013-05-30 21:10:00,
2013-05-30 16:11:00,69.8,65.4,29.75,South,178,4.0,10.0,86,0.03,,---,0.70,VWS V14.00,2013-05-30 21:11:00,
2013-05-30 16:12:00,69.9,65.5,29.75,South,171,7.0,7.0,86,0.02,,---,0.70,VWS V14.00,2013-05-30 21:12:00,
2013-05-30 16:13:00,70.1,65.7,29.75,South,169,6.0,9.0,86,0.01,,---,0.70,VWS V14.00,2013-05-30 21:13:00,
2013-05-30 16:14:00,70.3,65.9,29.75,South,180,12.0,12.0,86,0.01,,---,0.70,VWS V14.00,2013-05-30 21:14:00,
2013-05-30 16:15:00,70.1,65.7,29.75,South,169,7.0,7.0,86,0.01,,---,0.70,VWS V14.00,2013-05-30 21:15:00,
2013-05-30 16:16:00,70.6,66.2,29.75,South,170,11.0,11.0,86,0.01,,---,0.70,VWS V14.00,2013-05-30 21:16:00,
2013-05-30 16:17:00,70.8,66.7,29.75,SSE,163,6.0,11.0,87,0.01,,---,0.70,VWS V14.00,2013-05-30 21:17:00,
2013-05-30 16:18:00,70.9,66.8,29.75,SSE,168,7.0,10.0,87,0.01,,---,0.70,VWS V14.00,2013-05-30 21:18:00,
2013-05-30 16:19:00,71.1,67.0,29.74,SE,146,5.0,19.0,87,0.00,,---,0.70,VWS V14.00,2013-05-30 21:19:00,
2013-05-30 16:20:00,70.9,66.8,29.74,South,169,6.0,7.0,87,0.00,,---,0.70,VWS V14.00,2013-05-30 21:20:00,
2013-05-30 16:21:00,71.6,67.2,29.74,SSE,155,6.0,14.0,86,0.00,,---,0.70,VWS V14.00,2013-05-30 21:21:00,
2013-05-30 16:22:00,71.8,67.4,29.74,SSE,164,9.0,20.0,86,0.00,,---,0.70,VWS V14.00,2013-05-30 21:22:00,
2013-05-30 16:23:00,72.1,67.7,29.74,SSW,202,13.0,15.0,86,0.00,,---,0.70,VWS V14.00,2013-05-30 21:23:00,
2013-05-30 16:24:00,72.3,67.5,29.74,South,188,5.0,18.0,85,0.00,,---,0.70,VWS V14.00,2013-05-30 21:24:00,
2013-05-30 16:25:00,72.1,67.7,29.74,SSE,162,14.0,14.0,86,0.00,,---,0.70,VWS V14.00,2013-05-30 21:25:00,
2013-05-30 16:26:00,72.7,67.9,29.74,SSE,166,12.0,17.0,85,0.00,,---,0.70,VWS V14.00,2013-05-30 21:26:00,
2013-05-30 16:27:00,72.8,67.7,29.74,South,188,11.0,14.0,84,0.00,,---,0.70,VWS V14.00,2013-05-30 21:27:00,
2013-05-30 16:28:00,72.8,67.7,29.74,SSE,165,9.0,15.0,84,0.00,,---,0.70,VWS V14.00,2013-05-30 21:28:00,
2013-05-30 16:29:00,73.0,67.9,29.74,SSE,159,6.0,15.0,84,0.00,,---,0.70,VWS V14.00,2013-05-30 21:29:00,
2013-05-30 16:30:00,72.8,67.7,29.74,South,171,5.0,9.0,84,0.00,,---,0.70,VWS V14.00,2013-05-30 21:30:00,
2013-05-30 16:31:00,73.2,68.1,29.74,SSE,159,10.0,22.0,84,0.00,,---,0.70,VWS V14.00,2013-05-30 21:31:00,
2013-05-30 16:32:00,73.2,67.7,29.74,SW,220,6.0,19.0,83,0.00,,---,0.70,VWS V14.00,2013-05-30 21:32:00,
2013-05-30 16:33:00,73.2,67.7,29.74,SSE,163,11.0,18.0,83,0.00,,---,0.70,VWS V14.00,2013-05-30 21:33:00,
2013-05-30 16:34:00,73.3,67.8,29.74,SE,139,20.0,20.0,83,0.00,,---,0.70,VWS V14.00,2013-05-30 21:34:00,
2013-05-30 16:35:00,73.3,67.8,29.74,South,169,5.0,11.0,83,0.00,,---,0.70,VWS V14.00,2013-05-30 21:35:00,
2013-05-30 16:36:00,73.3,67.5,29.74,SSE,164,11.0,19.0,82,0.01,,---,0.71,VWS V14.00,2013-05-30 21:36:00,
2013-05-30 16:37:00,73.3,67.5,29.74,SSE,161,12.0,17.0,82,0.01,,---,0.71,VWS V14.00,2013-05-30 21:37:00,
2013-05-30 16:38:00,73.3,67.5,29.75,SSE,160,13.0,15.0,82,0.01,,---,0.71,VWS V14.00,2013-05-30 21:38:00,
2013-05-30 16:39:00,73.3,67.5,29.75,SE,140,16.0,17.0,82,0.01,,---,0.71,VWS V14.00,2013-05-30 21:39:00,
2013-05-30 16:40:00,73.3,67.5,29.75,SE,140,17.0,17.0,82,0.01,,---,0.71,VWS V14.00,2013-05-30 21:40:00,
2013-05-30 16:41:00,73.3,67.5,29.74,SSE,162,9.0,11.0,82,0.01,,---,0.71,VWS V14.00,2013-05-30 21:41:00,
2013-05-30 16:42:00,73.3,67.5,29.75,South,184,9.0,17.0,82,0.01,,---,0.71,VWS V14.00,2013-05-30 21:42:00,
2013-05-30 16:43:00,73.3,67.5,29.74,South,178,11.0,18.0,82,0.01,,---,0.71,VWS V14.00,2013-05-30 21:43:00,
2013-05-30 16:44:00,73.5,67.7,29.74,South,170,19.0,19.0,82,0.01,,---,0.71,VWS V14.00,2013-05-30 21:44:00,
2013-05-30 16:45:00,73.5,67.7,29.74,South,189,13.0,13.0,82,0.01,,---,0.71,VWS V14.00,2013-05-30 21:45:00,
2013-05-30 16:46:00,73.5,67.7,29.74,SSW,206,17.0,17.0,82,0.01,,---,0.71,VWS V14.00,2013-05-30 21:46:00,
2013-05-30 16:47:00,73.7,67.9,29.74,SSE,156,14.0,20.0,82,0.01,,---,0.71,VWS V14.00,2013-05-30 21:47:00,
2013-05-30 16:48:00,73.7,67.5,29.74,South,172,12.0,15.0,81,0.01,,---,0.71,VWS V14.00,2013-05-30 21:48:00,
2013-05-30 16:49:00,73.7,67.5,29.74,South,182,9.0,17.0,81,0.01,,---,0.71,VWS V14.00,2013-05-30 21:49:00,
2013-05-30 16:50:00,73.7,67.5,29.74,SSE,159,13.0,17.0,81,0.01,,---,0.71,VWS V14.00,2013-05-30 21:50:00,
2013-05-30 16:51:00,73.7,67.5,29.74,South,169,6.0,22.0,81,0.01,,---,0.71,VWS V14.00,2013-05-30 21:51:00,
2013-05-30 16:52:00,73.9,67.7,29.74,South,183,5.0,17.0,81,0.01,,---,0.71,VWS V14.00,2013-05-30 21:52:00,
2013-05-30 16:53:00,73.9,67.7,29.74,SSE,166,11.0,21.0,81,0.01,,---,0.71,VWS V14.00,2013-05-30 21:53:00,
2013-05-30 16:54:00,73.9,67.3,29.74,SE,137,8.0,12.0,80,0.01,,---,0.71,VWS V14.00,2013-05-30 21:54:00,
2013-05-30 16:55:00,73.9,67.7,29.74,South,182,7.0,11.0,81,0.01,,---,0.71,VWS V14.00,2013-05-30 21:55:00,
2013-05-30 16:56:00,73.9,67.3,29.74,ESE,119,10.0,17.0,80,0.01,,---,0.71,VWS V14.00,2013-05-30 21:56:00,
2013-05-30 16:57:00,73.9,67.3,29.74,SSE,147,6.0,19.0,80,0.01,,---,0.71,VWS V14.00,2013-05-30 21:57:00,
2013-05-30 16:58:00,73.9,67.3,29.74,South,170,10.0,14.0,80,0.01,,---,0.71,VWS V14.00,2013-05-30 21:58:00,
2013-05-30 16:59:00,73.9,67.3,29.74,SSW,201,11.0,14.0,80,0.01,,---,0.71,VWS V14.00,2013-05-30 21:59:00,
2013-05-30 17:00:00,73.9,67.3,29.74,South,173,9.0,10.0,80,0.01,,---,0.71,VWS V14.00,2013-05-30 22:00:00,
2013-05-30 17:01:00,74.0,67.4,29.74,SE,134,3.0,16.0,80,0.01,,---,0.71,VWS V14.00,2013-05-30 22:01:00,
2013-05-30 17:02:00,73.9,67.3,29.74,SE,139,9.0,15.0,80,0.01,,---,0.71,VWS V14.00,2013-05-30 22:02:00,
2013-05-30 17:03:00,73.9,67.3,29.74,SSE,148,16.0,23.0,80,0.01,,---,0.71,VWS V14.00,2013-05-30 22:03:00,
2013-05-30 17:04:00,73.9,67.3,29.74,SSE,155,13.0,20.0,80,0.01,,---,0.71,VWS V14.00,2013-05-30 22:04:00,
2013-05-30 17:05:00,73.9,67.3,29.74,SE,135,19.0,19.0,80,0.01,,---,0.71,VWS V14.00,2013-05-30 22:05:00,
2013-05-30 17:06:00,73.9,67.3,29.74,SSE,147,9.0,16.0,80,0.01,,---,0.71,VWS V14.00,2013-05-30 22:06:00,
2013-05-30 17:07:00,73.9,67.3,29.74,South,182,7.0,12.0,80,0.01,,---,0.71,VWS V14.00,2013-05-30 22:07:00,
2013-05-30 17:08:00,73.9,67.3,29.74,South,171,5.0,14.0,80,0.01,,---,0.71,VWS V14.00,2013-05-30 22:08:00,
2013-05-30 17:09:00,73.9,67.3,29.73,SSE,160,17.0,18.0,80,0.01,,---,0.71,VWS V14.00,2013-05-30 22:09:00,
2013-05-30 17:10:00,73.9,67.3,29.73,South,169,11.0,11.0,80,0.01,,---,0.71,VWS V14.00,2013-05-30 22:10:00,
2013-05-30 17:11:00,73.9,67.3,29.73,SSE,167,14.0,19.0,80,0.01,,---,0.71,VWS V14.00,2013-05-30 22:11:00,
2013-05-30 17:12:00,73.9,67.0,29.73,South,172,4.0,18.0,79,0.01,,---,0.71,VWS V14.00,2013-05-30 22:12:00,
2013-05-30 17:13:00,73.9,67.3,29.73,SSE,149,7.0,14.0,80,0.01,,---,0.71,VWS V14.00,2013-05-30 22:13:00,
2013-05-30 17:14:00,73.9,67.3,29.73,SSE,153,12.0,18.0,80,0.01,,---,0.71,VWS V14.00,2013-05-30 22:14:00,
2013-05-30 17:15:00,73.9,67.3,29.73,SSE,161,4.0,7.0,80,0.01,,---,0.71,VWS V14.00,2013-05-30 22:15:00,
2013-05-30 17:16:00,73.9,67.3,29.73,SSE,161,10.0,14.0,80,0.01,,---,0.71,VWS V14.00,2013-05-30 22:16:00,
2013-05-30 17:17:00,73.9,67.0,29.73,SSE,161,7.0,11.0,79,0.01,,---,0.71,VWS V14.00,2013-05-30 22:17:00,
2013-05-30 17:18:00,74.0,67.4,29.73,SSE,164,8.0,12.0,80,0.01,,---,0.71,VWS V14.00,2013-05-30 22:18:00,
2013-05-30 17:19:00,74.0,67.4,29.73,South,171,7.0,14.0,80,0.01,,---,0.71,VWS V14.00,2013-05-30 22:19:00,
2013-05-30 17:20:00,74.0,67.4,29.73,SSE,159,10.0,10.0,80,0.01,,---,0.71,VWS V14.00,2013-05-30 22:20:00,
2013-05-30 17:21:00,74.0,67.4,29.73,SSE,165,10.0,11.0,80,0.01,,---,0.71,VWS V14.00,2013-05-30 22:21:00,
2013-05-30 17:22:00,74.0,67.4,29.73,South,180,6.0,10.0,80,0.01,,---,0.71,VWS V14.00,2013-05-30 22:22:00,
2013-05-30 17:23:00,74.0,67.4,29.73,SSE,163,17.0,18.0,80,0.01,,---,0.71,VWS V14.00,2013-05-30 22:23:00,
2013-05-30 17:24:00,74.0,67.1,29.73,SSW,197,6.0,18.0,79,0.01,,---,0.71,VWS V14.00,2013-05-30 22:24:00,
2013-05-30 17:25:00,74.0,67.4,29.73,SSE,165,13.0,17.0,80,0.01,,---,0.71,VWS V14.00,2013-05-30 22:25:00,
2013-05-30 17:26:00,74.2,67.3,29.73,SSE,157,12.0,19.0,79,0.01,,---,0.71,VWS V14.00,2013-05-30 22:26:00,
2013-05-30 17:27:00,74.2,67.3,29.73,South,174,11.0,15.0,79,0.01,,---,0.71,VWS V14.00,2013-05-30 22:27:00,
2013-05-30 17:28:00,74.2,67.3,29.73,SSE,162,9.0,14.0,79,0.01,,---,0.71,VWS V14.00,2013-05-30 22:28:00,
2013-05-30 17:29:00,74.2,67.3,29.73,SSE,163,6.0,11.0,79,0.01,,---,0.71,VWS V14.00,2013-05-30 22:29:00,
2013-05-30 17:30:00,74.2,67.3,29.73,SSE,162,9.0,10.0,79,0.01,,---,0.71,VWS V14.00,2013-05-30 22:30:00,
2013-05-30 17:31:00,74.2,67.3,29.73,SSE,154,7.0,14.0,79,0.01,,---,0.71,VWS V14.00,2013-05-30 22:31:00,
2013-05-30 17:32:00,74.2,67.6,29.73,SSE,161,11.0,15.0,80,0.01,,---,0.71,VWS V14.00,2013-05-30 22:32:00,
2013-05-30 17:33:00,74.2,67.3,29.73,SSE,161,11.0,15.0,79,0.01,,---,0.71,VWS V14.00,2013-05-30 22:33:00,
2013-05-30 17:34:00,74.2,67.3,29.74,South,171,9.0,16.0,79,0.01,,---,0.71,VWS V14.00,2013-05-30 22:34:00,
2013-05-30 17:35:00,74.2,67.3,29.74,SSE,157,13.0,13.0,79,0.01,,---,0.71,VWS V14.00,2013-05-30 22:35:00,
2013-05-30 17:36:00,74.0,67.1,29.74,South,170,8.0,15.0,79,0.00,,---,0.71,VWS V14.00,2013-05-30 22:36:00,
2013-05-30 17:37:00,74.0,67.4,29.74,SSE,167,3.0,12.0,80,0.00,,---,0.71,VWS V14.00,2013-05-30 22:37:00,
2013-05-30 17:38:00,74.0,67.4,29.74,SSW,207,4.0,18.0,80,0.00,,---,0.71,VWS V14.00,2013-05-30 22:38:00,
2013-05-30 17:39:00,74.0,67.4,29.74,SSE,162,8.0,14.0,80,0.00,,---,0.71,VWS V14.00,2013-05-30 22:39:00,
2013-05-30 17:40:00,74.0,67.4,29.74,South,180,7.0,9.0,80,0.00,,---,0.71,VWS V14.00,2013-05-30 22:40:00,
2013-05-30 17:41:00,74.0,67.4,29.74,SSE,163,8.0,18.0,80,0.00,,---,0.71,VWS V14.00,2013-05-30 22:41:00,
2013-05-30 17:42:00,74.0,67.4,29.74,SSE,151,14.0,14.0,80,0.00,,---,0.71,VWS V14.00,2013-05-30 22:42:00,
2013-05-30 17:43:00,73.9,67.3,29.74,SSE,162,4.0,14.0,80,0.00,,---,0.71,VWS V14.00,2013-05-30 22:43:00,
2013-05-30 17:44:00,73.9,67.3,29.74,SSE,163,6.0,7.0,80,0.00,,---,0.71,VWS V14.00,2013-05-30 22:44:00,
2013-05-30 17:45:00,73.9,67.3,29.74,SSE,163,5.0,5.0,80,0.00,,---,0.71,VWS V14.00,2013-05-30 22:45:00,
2013-05-30 17:46:00,73.9,67.3,29.74,South,177,2.0,12.0,80,0.00,,---,0.71,VWS V14.00,2013-05-30 22:46:00,
2013-05-30 17:47:00,73.9,67.3,29.73,South,170,6.0,11.0,80,0.00,,---,0.71,VWS V14.00,2013-05-30 22:47:00,
2013-05-30 17:48:00,73.9,67.7,29.74,SSE,151,10.0,15.0,81,0.00,,---,0.71,VWS V14.00,2013-05-30 22:48:00,
2013-05-30 17:49:00,73.9,67.7,29.74,SSE,153,4.0,12.0,81,0.00,,---,0.71,VWS V14.00,2013-05-30 22:49:00,
2013-05-30 17:50:00,73.9,67.7,29.74,SSE,153,8.0,11.0,81,0.00,,---,0.71,VWS V14.00,2013-05-30 22:50:00,
2013-05-30 17:51:00,73.9,67.7,29.73,South,184,13.0,17.0,81,0.00,,---,0.71,VWS V14.00,2013-05-30 22:51:00,
2013-05-30 17:52:00,73.9,67.7,29.73,SSE,160,11.0,16.0,81,0.00,,---,0.71,VWS V14.00,2013-05-30 22:52:00,
2013-05-30 17:53:00,73.9,67.7,29.73,SSE,160,11.0,16.0,81,0.00,,---,0.71,VWS V14.00,2013-05-30 22:53:00,
2013-05-30 17:54:00,73.9,67.7,29.73,South,172,5.0,12.0,81,0.00,,---,0.71,VWS V14.00,2013-05-30 22:54:00,
2013-05-30 17:55:00,73.9,67.7,29.73,South,177,10.0,12.0,81,0.00,,---,0.71,VWS V14.00,2013-05-30 22:55:00,
2013-05-30 17:56:00,73.9,67.7,29.73,SSE,168,5.0,10.0,81,0.00,,---,0.71,VWS V14.00,2013-05-30 22:56:00,
2013-05-30 17:57:00,73.7,67.5,29.73,SSE,165,11.0,11.0,81,0.00,,---,0.71,VWS V14.00,2013-05-30 22:57:00,
2013-05-30 17:58:00,73.7,67.5,29.73,SSE,161,1.0,11.0,81,0.00,,---,0.71,VWS V14.00,2013-05-30 22:58:00,
2013-05-30 17:59:00,73.7,67.5,29.74,SE,145,10.0,14.0,81,0.00,,---,0.71,VWS V14.00,2013-05-30 22:59:00,
2013-05-30 18:00:00,73.7,67.5,29.74,SSE,161,0.0,2.0,81,0.00,,---,0.71,VWS V14.00,2013-05-30 23:00:00,
2013-05-30 18:01:00,73.7,67.5,29.74,South,180,4.0,10.0,81,0.00,,---,0.71,VWS V14.00,2013-05-30 23:01:00,
2013-05-30 18:02:00,73.7,67.5,29.74,South,173,3.0,12.0,81,0.00,,---,0.71,VWS V14.00,2013-05-30 23:02:00,
2013-05-30 18:03:00,73.7,67.5,29.74,South,173,10.0,10.0,81,0.00,,---,0.71,VWS V14.00,2013-05-30 23:03:00,
2013-05-30 18:04:00,73.5,67.3,29.74,SSE,158,9.0,12.0,81,0.00,,---,0.71,VWS V14.00,2013-05-30 23:04:00,
2013-05-30 18:05:00,73.7,67.5,29.74,South,173,6.0,10.0,81,0.00,,---,0.71,VWS V14.00,2013-05-30 23:05:00,
2013-05-30 18:06:00,73.5,67.7,29.74,South,181,3.0,14.0,82,0.00,,---,0.71,VWS V14.00,2013-05-30 23:06:00,
2013-05-30 18:07:00,73.5,67.3,29.74,South,175,5.0,15.0,81,0.00,,---,0.71,VWS V14.00,2013-05-30 23:07:00,
2013-05-30 18:08:00,73.5,67.3,29.74,SSE,165,6.0,13.0,81,0.00,,---,0.71,VWS V14.00,2013-05-30 23:08:00,
2013-05-30 18:09:00,73.5,67.7,29.74,SSE,164,12.0,12.0,82,0.00,,---,0.71,VWS V14.00,2013-05-30 23:09:00,
2013-05-30 18:10:00,73.5,67.3,29.74,South,174,5.0,8.0,81,0.00,,---,0.71,VWS V14.00,2013-05-30 23:10:00,
2013-05-30 18:11:00,73.5,67.7,29.74,SSE,167,6.0,9.0,82,0.00,,---,0.71,VWS V14.00,2013-05-30 23:11:00,
2013-05-30 18:12:00,73.5,67.7,29.74,SSE,161,11.0,11.0,82,0.00,,---,0.71,VWS V14.00,2013-05-30 23:12:00,
2013-05-30 18:13:00,73.5,67.7,29.74,South,172,5.0,11.0,82,0.00,,---,0.71,VWS V14.00,2013-05-30 23:13:00,
2013-05-30 18:14:00,73.3,67.5,29.74,SSE,164,3.0,9.0,82,0.00,,---,0.71,VWS V14.00,2013-05-30 23:14:00,
2013-05-30 18:15:00,73.5,67.7,29.74,South,171,4.0,6.0,82,0.00,,---,0.71,VWS V14.00,2013-05-30 23:15:00,
2013-05-30 18:16:00,73.3,67.5,29.74,SE,132,9.0,16.0,82,0.00,,---,0.71,VWS V14.00,2013-05-30 23:16:00,
2013-05-30 18:17:00,73.3,67.5,29.74,SE,130,9.0,16.0,82,0.00,,---,0.71,VWS V14.00,2013-05-30 23:17:00,
2013-05-30 18:18:00,73.3,67.5,29.74,SE,130,6.0,9.0,82,0.00,,---,0.71,VWS V14.00,2013-05-30 23:18:00,
2013-05-30 18:19:00,73.3,67.1,29.74,SE,138,9.0,14.0,81,0.00,,---,0.71,VWS V14.00,2013-05-30 23:19:00,
2013-05-30 18:20:00,73.3,67.5,29.74,SE,130,5.0,10.0,82,0.00,,---,0.71,VWS V14.00,2013-05-30 23:20:00,
2013-05-30 18:21:00,73.3,67.5,29.74,SE,138,9.0,12.0,82,0.00,,---,0.71,VWS V14.00,2013-05-30 23:21:00,
2013-05-30 18:22:00,73.3,67.5,29.74,SE,138,3.0,11.0,82,0.00,,---,0.71,VWS V14.00,2013-05-30 23:22:00,
2013-05-30 18:23:00,73.3,67.5,29.74,SE,138,7.0,7.0,82,0.00,,---,0.71,VWS V14.00,2013-05-30 23:23:00,
2013-05-30 18:24:00,73.3,67.5,29.74,SE,138,10.0,10.0,82,0.00,,---,0.71,VWS V14.00,2013-05-30 23:24:00,
2013-05-30 18:25:00,73.3,67.5,29.74,SE,138,6.0,7.0,82,0.00,,---,0.71,VWS V14.00,2013-05-30 23:25:00,
2013-05-30 18:26:00,73.3,67.5,29.74,SE,138,6.0,11.0,82,0.00,,---,0.71,VWS V14.00,2013-05-30 23:26:00,
2013-05-30 18:27:00,73.3,67.1,29.74,SE,138,7.0,9.0,81,0.00,,---,0.71,VWS V14.00,2013-05-30 23:27:00,
2013-05-30 18:28:00,73.3,67.1,29.73,SE,146,6.0,7.0,81,0.00,,---,0.71,VWS V14.00,2013-05-30 23:28:00,
2013-05-30 18:29:00,73.3,67.1,29.73,SSE,150,5.0,7.0,81,0.00,,---,0.71,VWS V14.00,2013-05-30 23:29:00,
2013-05-30 18:30:00,73.3,67.1,29.73,SE,146,5.0,7.0,81,0.00,,---,0.71,VWS V14.00,2013-05-30 23:30:00,
2013-05-30 18:31:00,73.3,67.1,29.73,SSE,153,15.0,16.0,81,0.00,,---,0.71,VWS V14.00,2013-05-30 23:31:00,
2013-05-30 18:32:00,73.3,67.1,29.74,SE,137,5.0,15.0,81,0.00,,---,0.71,VWS V14.00,2013-05-30 23:32:00,
2013-05-30 18:33:00,73.3,67.1,29.74,SE,129,13.0,16.0,81,0.00,,---,0.71,VWS V14.00,2013-05-30 23:33:00,
2013-05-30 18:34:00,73.5,67.0,29.74,SE,128,5.0,14.0,80,0.00,,---,0.71,VWS V14.00,2013-05-30 23:34:00,
2013-05-30 18:35:00,73.3,66.8,29.74,SE,128,14.0,14.0,80,0.00,,---,0.71,VWS V14.00,2013-05-30 23:35:00,
2013-05-30 18:36:00,73.5,67.0,29.74,South,184,7.0,10.0,80,0.00,,---,0.71,VWS V14.00,2013-05-30 23:36:00,
2013-05-30 18:37:00,73.5,67.0,29.74,South,178,5.0,13.0,80,0.00,,---,0.71,VWS V14.00,2013-05-30 23:37:00,
2013-05-30 18:38:00,73.5,67.0,29.74,SSE,147,7.0,13.0,80,0.00,,---,0.71,VWS V14.00,2013-05-30 23:38:00,
2013-05-30 18:39:00,73.5,66.6,29.74,SSW,201,10.0,22.0,79,0.00,,---,0.71,VWS V14.00,2013-05-30 23:39:00,
2013-05-30 18:40:00,73.5,67.0,29.74,SSE,147,7.0,7.0,80,0.00,,---,0.71,VWS V14.00,2013-05-30 23:40:00,
2013-05-30 18:41:00,73.5,66.6,29.74,SSE,159,13.0,17.0,79,0.00,,---,0.71,VWS V14.00,2013-05-30 23:41:00,
2013-05-30 18:42:00,73.5,66.6,29.74,SSE,157,15.0,15.0,79,0.00,,---,0.71,VWS V14.00,2013-05-30 23:42:00,
2013-05-30 18:43:00,73.5,66.6,29.74,South,188,6.0,15.0,79,0.00,,---,0.71,VWS V14.00,2013-05-30 23:43:00,
2013-05-30 18:44:00,73.3,66.4,29.74,SSE,161,11.0,16.0,79,0.00,,---,0.71,VWS V14.00,2013-05-30 23:44:00,
2013-05-30 18:45:00,73.5,66.6,29.74,SSW,195,11.0,11.0,79,0.00,,---,0.71,VWS V14.00,2013-05-30 23:45:00,
2013-05-30 18:46:00,73.3,66.4,29.74,South,169,8.0,12.0,79,0.00,,---,0.71,VWS V14.00,2013-05-30 23:46:00,
2013-05-30 18:47:00,73.3,66.4,29.74,SSE,153,11.0,16.0,79,0.00,,---,0.71,VWS V14.00,2013-05-30 23:47:00,
2013-05-30 18:48:00,73.3,66.4,29.74,South,186,2.0,13.0,79,0.00,,---,0.71,VWS V14.00,2013-05-30 23:48:00,
2013-05-30 18:49:00,73.3,66.4,29.75,South,182,10.0,12.0,79,0.00,,---,0.71,VWS V14.00,2013-05-30 23:49:00,
2013-05-30 18:50:00,73.3,66.4,29.75,South,185,7.0,7.0,79,0.00,,---,0.71,VWS V14.00,2013-05-30 23:50:00,
2013-05-30 18:51:00,73.2,66.3,29.75,SE,132,3.0,9.0,79,0.00,,---,0.71,VWS V14.00,2013-05-30 23:51:00,
2013-05-30 18:52:00,73.2,66.3,29.75,SSE,154,7.0,11.0,79,0.00,,---,0.71,VWS V14.00,2013-05-30 23:52:00,
2013-05-30 18:53:00,73.2,66.3,29.75,SSE,161,10.0,10.0,79,0.00,,---,0.71,VWS V14.00,2013-05-30 23:53:00,
2013-05-30 18:54:00,73.2,66.3,29.75,SSW,211,3.0,10.0,79,0.00,,---,0.71,VWS V14.00,2013-05-30 23:54:00,
2013-05-30 18:55:00,73.2,66.3,29.75,SSE,161,5.0,10.0,79,0.00,,---,0.71,VWS V14.00,2013-05-30 23:55:00,
2013-05-30 18:56:00,73.2,66.3,29.75,SSE,159,5.0,11.0,79,0.00,,---,0.71,VWS V14.00,2013-05-30 23:56:00,
2013-05-30 18:57:00,73.2,66.3,29.75,SSE,159,3.0,6.0,79,0.00,,---,0.71,VWS V14.00,2013-05-30 23:57:00,
2013-05-30 18:58:00,73.2,66.7,29.75,SSE,158,7.0,7.0,80,0.00,,---,0.71,VWS V14.00,2013-05-30 23:58:00,
2013-05-30 18:59:00,73.0,66.5,29.75,SE,140,3.0,13.0,80,0.00,,---,0.71,VWS V14.00,2013-05-30 23:59:00,
2013-05-30 19:00:00,73.2,66.7,29.75,SSE,159,9.0,10.0,80,0.00,,---,0.71,VWS V14.00,2013-05-31 00:00:00,
2013-05-30 19:01:00,73.0,66.5,29.76,SE,130,4.0,11.0,80,0.00,,---,0.71,VWS V14.00,2013-05-31 00:01:00,
2013-05-30 19:02:00,73.0,66.5,29.75,SE,130,0.0,6.0,80,0.00,,---,0.71,VWS V14.00,2013-05-31 00:02:00,
2013-05-30 19:03:00,73.0,66.5,29.75,SE,129,4.0,5.0,80,0.00,,---,0.71,VWS V14.00,2013-05-31 00:03:00,
2013-05-30 19:04:00,73.0,66.5,29.75,SE,128,3.0,6.0,80,0.00,,---,0.71,VWS V14.00,2013-05-31 00:04:00,
2013-05-30 19:05:00,73.0,66.5,29.75,SE,129,3.0,4.0,80,0.00,,---,0.71,VWS V14.00,2013-05-31 00:05:00,
2013-05-30 19:06:00,73.0,66.5,29.75,SE,126,2.0,5.0,80,0.00,,---,0.71,VWS V14.00,2013-05-31 00:06:00,
2013-05-30 19:07:00,73.0,66.5,29.75,ESE,123,3.0,5.0,80,0.00,,---,0.71,VWS V14.00,2013-05-31 00:07:00,
2013-05-30 19:08:00,73.0,66.5,29.75,ESE,123,4.0,11.0,80,0.00,,---,0.71,VWS V14.00,2013-05-31 00:08:00,
2013-05-30 19:09:00,72.8,66.3,29.75,ESE,121,6.0,13.0,80,0.00,,---,0.71,VWS V14.00,2013-05-31 00:09:00,
2013-05-30 19:10:00,72.8,66.3,29.75,ESE,123,5.0,5.0,80,0.00,,---,0.71,VWS V14.00,2013-05-31 00:10:00,
2013-05-30 19:11:00,72.8,66.3,29.75,SSE,148,7.0,11.0,80,0.00,,---,0.71,VWS V14.00,2013-05-31 00:11:00,
2013-05-30 19:12:00,72.8,66.3,29.75,SE,126,9.0,10.0,80,0.00,,---,0.71,VWS V14.00,2013-05-31 00:12:00,
2013-05-30 19:13:00,72.8,66.3,29.74,SE,126,7.0,9.0,80,0.00,,---,0.71,VWS V14.00,2013-05-31 00:13:00,
2013-05-30 19:14:00,72.8,66.3,29.74,South,186,13.0,13.0,80,0.00,,---,0.71,VWS V14.00,2013-05-31 00:14:00,
2013-05-30 19:15:00,72.8,66.3,29.74,SE,126,5.0,7.0,80,0.00,,---,0.71,VWS V14.00,2013-05-31 00:15:00,
2013-05-30 19:16:00,72.8,66.3,29.74,South,184,1.0,7.0,80,0.00,,---,0.71,VWS V14.00,2013-05-31 00:16:00,
2013-05-30 19:17:00,72.8,66.3,29.75,South,181,8.0,10.0,80,0.00,,---,0.71,VWS V14.00,2013-05-31 00:17:00,
2013-05-30 19:18:00,72.8,66.3,29.74,SSE,155,5.0,15.0,80,0.00,,---,0.71,VWS V14.00,2013-05-31 00:18:00,
2013-05-30 19:19:00,72.8,66.3,29.74,SSE,163,6.0,8.0,80,0.00,,---,0.71,VWS V14.00,2013-05-31 00:19:00,
2013-05-30 19:20:00,72.8,66.3,29.74,SSE,156,4.0,6.0,80,0.00,,---,0.71,VWS V14.00,2013-05-31 00:20:00,
2013-05-30 19:21:00,72.8,66.3,29.74,SSE,167,4.0,16.0,80,0.00,,---,0.71,VWS V14.00,2013-05-31 00:21:00,
2013-05-30 19:22:00,72.8,66.3,29.74,SSE,166,2.0,11.0,80,0.00,,---,0.71,VWS V14.00,2013-05-31 00:22:00,
2013-05-30 19:23:00,72.7,66.2,29.75,SE,144,9.0,9.0,80,0.00,,---,0.71,VWS V14.00,2013-05-31 00:23:00,
2013-05-30 19:24:00,72.7,66.2,29.75,SE,145,7.0,11.0,80,0.00,,---,0.71,VWS V14.00,2013-05-31 00:24:00,
2013-05-30 19:25:00,72.7,66.2,29.75,SE,144,7.0,9.0,80,0.00,,---,0.71,VWS V14.00,2013-05-31 00:25:00,
2013-05-30 19:26:00,72.7,66.2,29.75,SE,140,9.0,10.0,80,0.00,,---,0.71,VWS V14.00,2013-05-31 00:26:00,
2013-05-30 19:27:00,72.7,66.2,29.75,SE,135,11.0,15.0,80,0.00,,---,0.71,VWS V14.00,2013-05-31 00:27:00,
2013-05-30 19:28:00,72.7,66.2,29.75,SE,132,3.0,11.0,80,0.00,,---,0.71,VWS V14.00,2013-05-31 00:28:00,
2013-05-30 19:29:00,72.7,66.2,29.75,SSE,162,7.0,12.0,80,0.00,,---,0.71,VWS V14.00,2013-05-31 00:29:00,
2013-05-30 19:30:00,72.7,66.2,29.75,SE,130,4.0,5.0,80,0.00,,---,0.71,VWS V14.00,2013-05-31 00:30:00,
2013-05-30 19:31:00,72.7,66.2,29.74,SSE,155,3.0,13.0,80,0.00,,---,0.71,VWS V14.00,2013-05-31 00:31:00,
2013-05-30 19:32:00,72.7,66.2,29.74,SSE,163,11.0,17.0,80,0.00,,---,0.71,VWS V14.00,2013-05-31 00:32:00,
2013-05-30 19:33:00,72.7,66.2,29.74,South,177,4.0,11.0,80,0.00,,---,0.71,VWS V14.00,2013-05-31 00:33:00,
2013-05-30 19:34:00,72.5,66.3,29.74,SE,128,3.0,9.0,81,0.00,,---,0.71,VWS V14.00,2013-05-31 00:34:00,
2013-05-30 19:35:00,72.7,66.5,29.74,South,177,5.0,5.0,81,0.00,,---,0.71,VWS V14.00,2013-05-31 00:35:00,
2013-05-30 19:36:00,72.5,66.3,29.74,SE,128,5.0,9.0,81,0.00,,---,0.71,VWS V14.00,2013-05-31 00:36:00,
2013-05-30 19:37:00,72.5,66.3,29.74,SE,128,13.0,13.0,81,0.00,,---,0.71,VWS V14.00,2013-05-31 00:37:00,
2013-05-30 19:38:00,72.5,66.3,29.74,SE,128,4.0,13.0,81,0.00,,---,0.71,VWS V14.00,2013-05-31 00:38:00,
2013-05-30 19:39:00,72.3,66.2,29.74,SE,129,9.0,10.0,81,0.00,,---,0.71,VWS V14.00,2013-05-31 00:39:00,
2013-05-30 19:40:00,72.5,66.3,29.74,SE,128,3.0,4.0,81,0.00,,---,0.71,VWS V14.00,2013-05-31 00:40:00,
2013-05-30 19:41:00,72.3,66.2,29.74,SSE,163,4.0,12.0,81,0.00,,---,0.71,VWS V14.00,2013-05-31 00:41:00,
2013-05-30 19:42:00,72.3,66.2,29.74,South,171,8.0,9.0,81,0.00,,---,0.71,VWS V14.00,2013-05-31 00:42:00,
2013-05-30 19:43:00,72.3,66.5,29.74,South,171,3.0,9.0,82,0.00,,---,0.71,VWS V14.00,2013-05-31 00:43:00,
2013-05-30 19:44:00,72.3,66.5,29.75,South,170,6.0,9.0,82,0.00,,---,0.71,VWS V14.00,2013-05-31 00:44:00,
2013-05-30 19:45:00,72.3,66.5,29.75,South,170,6.0,6.0,82,0.00,,---,0.71,VWS V14.00,2013-05-31 00:45:00,
2013-05-30 19:46:00,72.3,66.5,29.75,South,170,5.0,10.0,82,0.00,,---,0.71,VWS V14.00,2013-05-31 00:46:00,
2013-05-30 19:47:00,72.3,66.5,29.74,South,175,6.0,12.0,82,0.00,,---,0.71,VWS V14.00,2013-05-31 00:47:00,
2013-05-30 19:48:00,72.3,66.5,29.74,South,175,5.0,9.0,82,0.00,,---,0.71,VWS V14.00,2013-05-31 00:48:00,
2013-05-30 19:49:00,72.3,66.5,29.74,South,175,3.0,6.0,82,0.00,,---,0.71,VWS V14.00,2013-05-31 00:49:00,
2013-05-30 19:50:00,72.3,66.5,29.74,South,175,5.0,5.0,82,0.00,,---,0.71,VWS V14.00,2013-05-31 00:50:00,
2013-05-30 19:51:00,72.3,66.5,29.74,SE,132,10.0,10.0,82,0.00,,---,0.71,VWS V14.00,2013-05-31 00:51:00,
2013-05-30 19:52:00,72.3,66.5,29.75,SE,134,6.0,13.0,82,0.00,,---,0.71,VWS V14.00,2013-05-31 00:52:00,
2013-05-30 19:53:00,72.3,66.5,29.74,SE,132,10.0,11.0,82,0.00,,---,0.71,VWS V14.00,2013-05-31 00:53:00,
2013-05-30 19:54:00,72.3,66.5,29.74,SE,131,9.0,11.0,82,0.00,,---,0.71,VWS V14.00,2013-05-31 00:54:00,
2013-05-30 19:55:00,72.3,66.5,29.74,SE,132,11.0,11.0,82,0.00,,---,0.71,VWS V14.00,2013-05-31 00:55:00,
2013-05-30 19:56:00,72.3,66.5,29.75,SE,139,4.0,9.0,82,0.00,,---,0.71,VWS V14.00,2013-05-31 00:56:00,
2013-05-30 19:57:00,72.5,66.7,29.75,SSE,157,4.0,13.0,82,0.00,,---,0.71,VWS V14.00,2013-05-31 00:57:00,
2013-05-30 19:58:00,72.5,66.7,29.75,SSE,157,7.0,8.0,82,0.00,,---,0.71,VWS V14.00,2013-05-31 00:58:00,
2013-05-30 19:59:00,72.5,66.7,29.75,SSE,163,5.0,10.0,82,0.00,,---,0.71,VWS V14.00,2013-05-31 00:59:00,
2013-05-30 20:00:00,72.5,66.7,29.75,SSE,157,7.0,7.0,82,0.00,,---,0.71,VWS V14.00,2013-05-31 01:00:00,
2013-05-30 20:01:00,72.5,66.7,29.75,SE,142,5.0,10.0,82,0.00,,---,0.71,VWS V14.00,2013-05-31 01:01:00,
2013-05-30 20:02:00,72.5,66.7,29.75,SE,140,4.0,7.0,82,0.00,,---,0.71,VWS V14.00,2013-05-31 01:02:00,
2013-05-30 20:03:00,72.5,66.7,29.75,SE,140,3.0,10.0,82,0.00,,---,0.71,VWS V14.00,2013-05-31 01:03:00,
2013-05-30 20:04:00,72.5,66.7,29.75,SE,138,13.0,15.0,82,0.00,,---,0.71,VWS V14.00,2013-05-31 01:04:00,
2013-05-30 20:05:00,72.5,66.7,29.75,SE,140,4.0,4.0,82,0.00,,---,0.71,VWS V14.00,2013-05-31 01:05:00,
2013-05-30 20:06:00,72.7,66.9,29.75,SE,142,9.0,12.0,82,0.00,,---,0.71,VWS V14.00,2013-05-31 01:06:00,
2013-05-30 20:07:00,72.7,66.9,29.75,SSE,151,6.0,9.0,82,0.00,,---,0.71,VWS V14.00,2013-05-31 01:07:00,
2013-05-30 20:08:00,72.7,66.9,29.75,SSE,153,5.0,6.0,82,0.00,,---,0.71,VWS V14.00,2013-05-31 01:08:00,
2013-05-30 20:09:00,72.7,66.9,29.75,SSE,153,0.0,7.0,82,0.00,,---,0.71,VWS V14.00,2013-05-31 01:09:00,
2013-05-30 20:10:00,72.7,66.9,29.75,SSE,153,3.0,5.0,82,0.00,,---,0.71,VWS V14.00,2013-05-31 01:10:00,
2013-05-30 20:11:00,72.7,66.9,29.75,SSW,209,6.0,8.0,82,0.00,,---,0.71,VWS V14.00,2013-05-31 01:11:00,
2013-05-30 20:12:00,72.7,66.9,29.75,SSW,198,5.0,8.0,82,0.00,,---,0.71,VWS V14.00,2013-05-31 01:12:00,
2013-05-30 20:13:00,72.5,66.7,29.75,SSE,155,5.0,6.0,82,0.00,,---,0.71,VWS V14.00,2013-05-31 01:13:00,
2013-05-30 20:14:00,72.5,66.7,29.75,SSE,163,4.0,8.0,82,0.00,,---,0.71,VWS V14.00,2013-05-31 01:14:00,
2013-05-30 20:15:00,72.5,66.7,29.75,SSE,155,7.0,7.0,82,0.00,,---,0.71,VWS V14.00,2013-05-31 01:15:00,
2013-05-30 20:16:00,72.5,66.7,29.75,South,171,6.0,11.0,82,0.00,,---,0.71,VWS V14.00,2013-05-31 01:16:00,
2013-05-30 20:17:00,72.5,66.7,29.74,South,171,6.0,16.0,82,0.00,,---,0.71,VWS V14.00,2013-05-31 01:17:00,
2013-05-30 20:18:00,72.5,66.7,29.74,SSE,154,5.0,12.0,82,0.00,,---,0.71,VWS V14.00,2013-05-31 01:18:00,
2013-05-30 20:19:00,72.5,66.7,29.73,SSE,161,7.0,14.0,82,0.00,,---,0.71,VWS V14.00,2013-05-31 01:19:00,
2013-05-30 20:20:00,72.5,66.7,29.74,SSE,154,5.0,5.0,82,0.00,,---,0.71,VWS V14.00,2013-05-31 01:20:00,
2013-05-30 20:21:00,72.5,66.7,29.73,SSE,160,4.0,7.0,82,0.00,,---,0.71,VWS V14.00,2013-05-31 01:21:00,
2013-05-30 20:22:00,72.5,66.7,29.73,SSE,160,9.0,14.0,82,0.00,,---,0.71,VWS V14.00,2013-05-31 01:22:00,
2013-05-30 20:23:00,72.5,66.7,29.73,SSE,154,13.0,13.0,82,0.00,,---,0.71,VWS V14.00,2013-05-31 01:23:00,
2013-05-30 20:24:00,72.5,66.7,29.73,South,171,10.0,13.0,82,0.00,,---,0.71,VWS V14.00,2013-05-31 01:24:00,
2013-05-30 20:25:00,72.5,66.7,29.73,SSE,153,11.0,13.0,82,0.00,,---,0.71,VWS V14.00,2013-05-31 01:25:00,
2013-05-30 20:26:00,72.3,66.5,29.73,SSE,163,14.0,15.0,82,0.00,,---,0.71,VWS V14.00,2013-05-31 01:26:00,
2013-05-30 20:27:00,72.3,66.5,29.73,SSW,194,6.0,14.0,82,0.00,,---,0.71,VWS V14.00,2013-05-31 01:27:00,
2013-05-30 20:28:00,72.3,66.5,29.73,SSE,165,5.0,11.0,82,0.00,,---,0.71,VWS V14.00,2013-05-31 01:28:00,
2013-05-30 20:29:00,72.3,66.5,29.73,SSE,166,6.0,6.0,82,0.00,,---,0.71,VWS V14.00,2013-05-31 01:29:00,
2013-05-30 20:30:00,72.3,66.5,29.73,SSE,165,5.0,5.0,82,0.00,,---,0.71,VWS V14.00,2013-05-31 01:30:00,
2013-05-30 20:31:00,72.3,66.5,29.73,South,175,13.0,15.0,82,0.00,,---,0.71,VWS V14.00,2013-05-31 01:31:00,
2013-05-30 20:32:00,72.3,66.5,29.73,South,186,12.0,13.0,82,0.00,,---,0.71,VWS V14.00,2013-05-31 01:32:00,
2013-05-30 20:33:00,72.3,66.5,29.73,SSE,164,9.0,12.0,82,0.00,,---,0.71,VWS V14.00,2013-05-31 01:33:00,
2013-05-30 20:34:00,72.3,66.5,29.74,South,169,5.0,9.0,82,0.00,,---,0.71,VWS V14.00,2013-05-31 01:34:00,
2013-05-30 20:35:00,72.3,66.5,29.73,SSE,164,9.0,9.0,82,0.00,,---,0.71,VWS V14.00,2013-05-31 01:35:00,
2013-05-30 20:36:00,72.1,66.3,29.73,SSE,165,5.0,9.0,82,0.00,,---,0.71,VWS V14.00,2013-05-31 01:36:00,
2013-05-30 20:37:00,72.1,66.3,29.73,South,178,4.0,12.0,82,0.00,,---,0.71,VWS V14.00,2013-05-31 01:37:00,
2013-05-30 20:38:00,72.1,66.3,29.73,South,178,4.0,10.0,82,0.00,,---,0.71,VWS V14.00,2013-05-31 01:38:00,
2013-05-30 20:39:00,72.1,66.3,29.74,South,178,4.0,5.0,82,0.00,,---,0.71,VWS V14.00,2013-05-31 01:39:00,
2013-05-30 20:40:00,72.1,66.3,29.73,South,178,4.0,4.0,82,0.00,,---,0.71,VWS V14.00,2013-05-31 01:40:00,
2013-05-30 20:41:00,72.0,66.2,29.75,South,178,1.0,7.0,82,0.00,,---,0.71,VWS V14.00,2013-05-31 01:41:00,
2013-05-30 20:42:00,72.0,66.2,29.75,South,177,4.0,9.0,82,0.00,,---,0.71,VWS V14.00,2013-05-31 01:42:00,
2013-05-30 20:43:00,72.0,66.2,29.75,South,176,3.0,9.0,82,0.00,,---,0.71,VWS V14.00,2013-05-31 01:43:00,
2013-05-30 20:44:00,72.0,65.9,29.75,South,171,11.0,11.0,81,0.00,,---,0.71,VWS V14.00,2013-05-31 01:44:00,
2013-05-30 20:45:00,72.0,66.2,29.75,South,176,3.0,9.0,82,0.00,,---,0.71,VWS V14.00,2013-05-31 01:45:00,
2013-05-30 20:46:00,72.0,65.9,29.75,South,169,7.0,11.0,81,0.00,,---,0.71,VWS V14.00,2013-05-31 01:46:00,
2013-05-30 20:47:00,72.0,65.9,29.75,SSE,166,9.0,17.0,81,0.00,,---,0.71,VWS V14.00,2013-05-31 01:47:00,
2013-05-30 20:48:00,72.0,65.9,29.75,SSE,163,4.0,10.0,81,0.00,,---,0.71,VWS V14.00,2013-05-31 01:48:00,
2013-05-30 20:49:00,71.8,65.7,29.75,SSE,160,9.0,13.0,81,0.00,,---,0.71,VWS V14.00,2013-05-31 01:49:00,
2013-05-30 20:50:00,72.0,65.9,29.75,SSE,163,4.0,10.0,81,0.00,,---,0.71,VWS V14.00,2013-05-31 01:50:00,
2013-05-30 20:51:00,71.8,65.7,29.75,SSE,154,10.0,12.0,81,0.00,,---,0.71,VWS V14.00,2013-05-31 01:51:00,
2013-05-30 20:52:00,71.8,65.7,29.75,SSE,160,7.0,11.0,81,0.00,,---,0.71,VWS V14.00,2013-05-31 01:52:00,
2013-05-30 20:53:00,71.8,65.7,29.75,SSE,153,7.0,11.0,81,0.00,,---,0.71,VWS V14.00,2013-05-31 01:53:00,
2013-05-30 20:54:00,71.8,66.0,29.75,South,170,6.0,11.0,82,0.00,,---,0.71,VWS V14.00,2013-05-31 01:54:00,
2013-05-30 20:55:00,71.8,65.7,29.75,SSE,153,7.0,11.0,81,0.00,,---,0.71,VWS V14.00,2013-05-31 01:55:00,
2013-05-30 20:56:00,71.6,65.8,29.75,South,171,3.0,10.0,82,0.00,,---,0.71,VWS V14.00,2013-05-31 01:56:00,
2013-05-30 20:57:00,71.6,65.8,29.75,South,169,2.0,8.0,82,0.00,,---,0.71,VWS V14.00,2013-05-31 01:57:00,
2013-05-30 20:58:00,71.6,65.8,29.75,South,170,6.0,7.0,82,0.00,,---,0.71,VWS V14.00,2013-05-31 01:58:00,
2013-05-30 20:59:00,71.6,65.8,29.75,South,169,0.0,6.0,82,0.00,,---,0.71,VWS V14.00,2013-05-31 01:59:00,
2013-05-30 21:00:00,71.6,65.8,29.75,South,170,6.0,7.0,82,0.00,,---,0.71,VWS V14.00,2013-05-31 02:00:00,
2013-05-30 21:01:00,71.5,65.7,29.75,SSE,163,5.0,9.0,82,0.00,,---,0.71,VWS V14.00,2013-05-31 02:01:00,
2013-05-30 21:02:00,71.5,65.7,29.75,SSE,163,4.0,6.0,82,0.00,,---,0.71,VWS V14.00,2013-05-31 02:02:00,
2013-05-30 21:03:00,71.5,65.7,29.75,SSE,163,4.0,4.0,82,0.00,,---,0.71,VWS V14.00,2013-05-31 02:03:00,
2013-05-30 21:04:00,71.5,65.7,29.75,SSE,162,7.0,10.0,82,0.00,,---,0.71,VWS V14.00,2013-05-31 02:04:00,
2013-05-30 21:05:00,71.5,65.7,29.75,SSE,163,4.0,4.0,82,0.00,,---,0.71,VWS V14.00,2013-05-31 02:05:00,
2013-05-30 21:06:00,71.5,65.7,29.75,SSE,163,5.0,6.0,82,0.00,,---,0.71,VWS V14.00,2013-05-31 02:06:00,
2013-05-30 21:07:00,71.5,65.7,29.75,SSE,162,3.0,7.0,82,0.00,,---,0.71,VWS V14.00,2013-05-31 02:07:00,
2013-05-30 21:08:00,71.5,65.7,29.75,SSE,162,0.0,6.0,82,0.00,,---,0.71,VWS V14.00,2013-05-31 02:08:00,
2013-05-30 21:09:00,71.5,65.7,29.75,SSE,162,4.0,7.0,82,0.00,,---,0.71,VWS V14.00,2013-05-31 02:09:00,
2013-05-30 21:10:00,71.5,65.7,29.75,SSE,162,0.0,6.0,82,0.00,,---,0.71,VWS V14.00,2013-05-31 02:10:00,
2013-05-30 21:11:00,71.5,65.7,29.76,South,169,1.0,6.0,82,0.00,,---,0.71,VWS V14.00,2013-05-31 02:11:00,
2013-05-30 21:12:00,71.5,65.7,29.76,SSE,168,5.0,7.0,82,0.00,,---,0.71,VWS V14.00,2013-05-31 02:12:00,
2013-05-30 21:13:00,71.5,65.7,29.76,SSE,167,5.0,10.0,82,0.00,,---,0.71,VWS V14.00,2013-05-31 02:13:00,
2013-05-30 21:14:00,71.5,65.7,29.76,SSE,167,0.0,5.0,82,0.00,,---,0.71,VWS V14.00,2013-05-31 02:14:00,
2013-05-30 21:15:00,71.5,65.7,29.76,SSE,167,7.0,10.0,82,0.00,,---,0.71,VWS V14.00,2013-05-31 02:15:00,
2013-05-30 21:16:00,71.5,65.7,29.76,SSE,167,2.0,2.0,82,0.00,,---,0.71,VWS V14.00,2013-05-31 02:16:00,
2013-05-30 21:17:00,71.5,65.7,29.76,SSE,167,2.0,6.0,82,0.00,,---,0.71,VWS V14.00,2013-05-31 02:17:00,
2013-05-30 21:18:00,71.5,65.7,29.76,SSE,167,0.0,4.0,82,0.00,,---,0.71,VWS V14.00,2013-05-31 02:18:00,
2013-05-30 21:19:00,71.5,65.7,29.76,SSE,167,6.0,8.0,82,0.00,,---,0.71,VWS V14.00,2013-05-31 02:19:00,
2013-05-30 21:20:00,71.5,65.7,29.76,SSE,167,0.0,4.0,82,0.00,,---,0.71,VWS V14.00,2013-05-31 02:20:00,
2013-05-30 21:21:00,71.3,65.5,29.76,SSE,167,0.0,2.0,82,0.00,,---,0.71,VWS V14.00,2013-05-31 02:21:00,
2013-05-30 21:22:00,71.3,65.9,29.77,SSE,167,0.0,2.0,83,0.00,,---,0.71,VWS V14.00,2013-05-31 02:22:00,
2013-05-30 21:23:00,71.3,65.9,29.77,SSE,167,0.0,0.0,83,0.00,,---,0.71,VWS V14.00,2013-05-31 02:23:00,
2013-05-30 21:24:00,71.3,65.9,29.77,SSE,167,0.0,0.0,83,0.00,,---,0.71,VWS V14.00,2013-05-31 02:24:00,
2013-05-30 21:25:00,71.3,65.9,29.77,SSE,167,0.0,0.0,83,0.00,,---,0.71,VWS V14.00,2013-05-31 02:25:00,
2013-05-30 21:26:00,71.3,65.9,29.77,SSE,167,1.0,4.0,83,0.00,,---,0.71,VWS V14.00,2013-05-31 02:26:00,
2013-05-30 21:27:00,71.3,65.9,29.77,SSE,167,0.0,3.0,83,0.00,,---,0.71,VWS V14.00,2013-05-31 02:27:00,
2013-05-30 21:28:00,71.3,65.9,29.76,SSE,167,3.0,3.0,83,0.00,,---,0.71,VWS V14.00,2013-05-31 02:28:00,
2013-05-30 21:29:00,71.3,65.9,29.76,SSE,167,2.0,3.0,83,0.00,,---,0.71,VWS V14.00,2013-05-31 02:29:00,
2013-05-30 21:30:00,71.3,65.9,29.76,SSE,167,3.0,3.0,83,0.00,,---,0.71,VWS V14.00,2013-05-31 02:30:00,
2013-05-30 21:31:00,71.1,65.7,29.77,SSE,167,0.0,0.0,83,0.00,,---,0.71,VWS V14.00,2013-05-31 02:31:00,
2013-05-30 21:32:00,71.1,65.7,29.77,SSE,167,0.0,0.0,83,0.00,,---,0.71,VWS V14.00,2013-05-31 02:32:00,
2013-05-30 21:33:00,71.1,65.7,29.77,SSE,167,0.0,0.0,83,0.00,,---,0.71,VWS V14.00,2013-05-31 02:33:00,
2013-05-30 21:34:00,71.1,65.7,29.77,SSE,167,0.0,0.0,83,0.00,,---,0.71,VWS V14.00,2013-05-31 02:34:00,
2013-05-30 21:35:00,71.1,65.7,29.77,SSE,167,0.0,0.0,83,0.00,,---,0.71,VWS V14.00,2013-05-31 02:35:00,
2013-05-30 21:36:00,71.1,65.7,29.77,SSE,167,0.0,0.0,83,0.00,,---,0.71,VWS V14.00,2013-05-31 02:36:00,
2013-05-30 21:37:00,71.1,65.7,29.77,SSE,167,0.0,0.0,83,0.00,,---,0.71,VWS V14.00,2013-05-31 02:37:00,
2013-05-30 21:38:00,71.1,65.7,29.77,SSE,167,0.0,0.0,83,0.00,,---,0.71,VWS V14.00,2013-05-31 02:38:00,
2013-05-30 21:39:00,70.9,65.8,29.77,SSE,167,0.0,0.0,84,0.00,,---,0.71,VWS V14.00,2013-05-31 02:39:00,
2013-05-30 21:40:00,71.1,65.7,29.77,SSE,167,0.0,0.0,83,0.00,,---,0.71,VWS V14.00,2013-05-31 02:40:00,
2013-05-30 21:41:00,70.9,65.5,29.77,SSE,167,0.0,0.0,83,0.00,,---,0.71,VWS V14.00,2013-05-31 02:41:00,
2013-05-30 21:42:00,70.9,65.8,29.76,SSE,167,0.0,0.0,84,0.00,,---,0.71,VWS V14.00,2013-05-31 02:42:00,
2013-05-30 21:43:00,70.9,65.8,29.76,SSE,167,0.0,0.0,84,0.00,,---,0.71,VWS V14.00,2013-05-31 02:43:00,
2013-05-30 21:44:00,70.9,65.8,29.76,SSE,167,0.0,0.0,84,0.00,,---,0.71,VWS V14.00,2013-05-31 02:44:00,
2013-05-30 21:45:00,70.9,65.8,29.76,SSE,167,0.0,0.0,84,0.00,,---,0.71,VWS V14.00,2013-05-31 02:45:00,
2013-05-30 21:46:00,70.9,65.8,29.76,SSE,167,0.0,0.0,84,0.00,,---,0.71,VWS V14.00,2013-05-31 02:46:00,
2013-05-30 21:47:00,70.9,65.8,29.77,SSE,167,0.0,0.0,84,0.00,,---,0.71,VWS V14.00,2013-05-31 02:47:00,
2013-05-30 21:48:00,70.8,65.7,29.77,SSE,167,0.0,0.0,84,0.00,,---,0.71,VWS V14.00,2013-05-31 02:48:00,
2013-05-30 21:49:00,70.8,65.7,29.77,SSE,167,0.0,0.0,84,0.00,,---,0.71,VWS V14.00,2013-05-31 02:49:00,
2013-05-30 21:50:00,70.8,65.7,29.77,SSE,167,0.0,0.0,84,0.00,,---,0.71,VWS V14.00,2013-05-31 02:50:00,
2013-05-30 21:51:00,70.8,65.7,29.77,SSE,167,0.0,0.0,84,0.00,,---,0.71,VWS V14.00,2013-05-31 02:51:00,
2013-05-30 21:52:00,70.8,65.7,29.78,SSE,167,0.0,0.0,84,0.00,,---,0.71,VWS V14.00,2013-05-31 02:52:00,
2013-05-30 21:53:00,70.8,65.7,29.78,SSE,167,0.0,0.0,84,0.00,,---,0.71,VWS V14.00,2013-05-31 02:53:00,
2013-05-30 21:54:00,70.6,65.5,29.77,SSE,167,0.0,0.0,84,0.00,,---,0.71,VWS V14.00,2013-05-31 02:54:00,
2013-05-30 21:55:00,70.8,65.7,29.78,SSE,167,0.0,0.0,84,0.00,,---,0.71,VWS V14.00,2013-05-31 02:55:00,
2013-05-30 21:56:00,70.6,65.9,29.77,SSE,167,0.0,0.0,85,0.00,,---,0.71,VWS V14.00,2013-05-31 02:56:00,
2013-05-30 21:57:00,70.6,65.9,29.77,SSE,167,0.0,0.0,85,0.00,,---,0.71,VWS V14.00,2013-05-31 02:57:00,
2013-05-30 21:58:00,70.4,65.7,29.78,SSE,167,0.0,0.0,85,0.00,,---,0.71,VWS V14.00,2013-05-31 02:58:00,
2013-05-30 21:59:00,70.4,65.7,29.78,SSE,167,0.0,0.0,85,0.00,,---,0.71,VWS V14.00,2013-05-31 02:59:00,
2013-05-30 22:00:00,70.4,65.7,29.78,SSE,167,0.0,0.0,85,0.00,,---,0.71,VWS V14.00,2013-05-31 03:00:00,
2013-05-30 22:01:00,70.4,65.7,29.78,SSE,167,0.0,0.0,85,0.00,,---,0.71,VWS V14.00,2013-05-31 03:01:00,
2013-05-30 22:02:00,70.3,65.6,29.78,SSE,167,0.0,0.0,85,0.00,,---,0.71,VWS V14.00,2013-05-31 03:02:00,
2013-05-30 22:03:00,70.3,65.6,29.78,SSE,167,0.0,0.0,85,0.00,,---,0.71,VWS V14.00,2013-05-31 03:03:00,
2013-05-30 22:04:00,70.3,65.6,29.79,SSE,167,0.0,0.0,85,0.00,,---,0.71,VWS V14.00,2013-05-31 03:04:00,
2013-05-30 22:05:00,70.3,65.6,29.78,SSE,167,0.0,0.0,85,0.00,,---,0.71,VWS V14.00,2013-05-31 03:05:00,
2013-05-30 22:06:00,70.3,65.9,29.79,SSE,167,0.0,0.0,86,0.00,,---,0.71,VWS V14.00,2013-05-31 03:06:00,
2013-05-30 22:07:00,70.3,65.9,29.79,SSE,167,0.0,0.0,86,0.00,,---,0.71,VWS V14.00,2013-05-31 03:07:00,
2013-05-30 22:08:00,70.3,65.9,29.79,SSE,167,0.0,0.0,86,0.00,,---,0.71,VWS V14.00,2013-05-31 03:08:00,
2013-05-30 22:09:00,70.3,65.9,29.79,SSE,167,0.0,0.0,86,0.00,,---,0.71,VWS V14.00,2013-05-31 03:09:00,
2013-05-30 22:10:00,70.3,65.9,29.79,SSE,167,0.0,0.0,86,0.00,,---,0.71,VWS V14.00,2013-05-31 03:10:00,
2013-05-30 22:11:00,70.3,65.9,29.79,SSE,167,0.0,0.0,86,0.00,,---,0.71,VWS V14.00,2013-05-31 03:11:00,
2013-05-30 22:12:00,70.3,65.9,29.78,SSE,167,2.0,2.0,86,0.00,,---,0.71,VWS V14.00,2013-05-31 03:12:00,
2013-05-30 22:13:00,70.3,65.9,29.78,SSE,167,2.0,4.0,86,0.00,,---,0.71,VWS V14.00,2013-05-31 03:13:00,
2013-05-30 22:14:00,70.3,65.9,29.78,SSE,167,0.0,2.0,86,0.00,,---,0.71,VWS V14.00,2013-05-31 03:14:00,
2013-05-30 22:15:00,70.3,65.9,29.78,SSE,167,2.0,4.0,86,0.00,,---,0.71,VWS V14.00,2013-05-31 03:15:00,
2013-05-30 22:16:00,70.3,65.9,29.78,SSE,167,0.0,1.0,86,0.00,,---,0.71,VWS V14.00,2013-05-31 03:16:00,
2013-05-30 22:17:00,70.3,65.9,29.79,SSE,167,0.0,0.0,86,0.00,,---,0.71,VWS V14.00,2013-05-31 03:17:00,
2013-05-30 22:18:00,70.3,65.9,29.80,SSE,167,0.0,0.0,86,0.00,,---,0.71,VWS V14.00,2013-05-31 03:18:00,
2013-05-30 22:19:00,70.3,65.9,29.80,SSE,167,0.0,0.0,86,0.00,,---,0.71,VWS V14.00,2013-05-31 03:19:00,
2013-05-30 22:20:00,70.3,65.9,29.80,SSE,167,0.0,0.0,86,0.00,,---,0.71,VWS V14.00,2013-05-31 03:20:00,
2013-05-30 22:21:00,70.3,65.9,29.80,SSE,167,0.0,0.0,86,0.00,,---,0.71,VWS V14.00,2013-05-31 03:21:00,
2013-05-30 22:22:00,70.3,65.9,29.80,SSE,167,0.0,0.0,86,0.00,,---,0.71,VWS V14.00,2013-05-31 03:22:00,
2013-05-30 22:23:00,70.3,65.9,29.80,SSE,167,0.0,0.0,86,0.00,,---,0.71,VWS V14.00,2013-05-31 03:23:00,
2013-05-30 22:24:00,70.3,65.9,29.80,SSE,167,0.0,0.0,86,0.00,,---,0.71,VWS V14.00,2013-05-31 03:24:00,
2013-05-30 22:25:00,70.3,65.9,29.80,SSE,167,0.0,0.0,86,0.00,,---,0.71,VWS V14.00,2013-05-31 03:25:00,
2013-05-30 22:26:00,70.3,65.9,29.80,SSE,167,0.0,0.0,86,0.00,,---,0.71,VWS V14.00,2013-05-31 03:26:00,
2013-05-30 22:27:00,70.3,65.9,29.80,SSE,167,0.0,0.0,86,0.00,,---,0.71,VWS V14.00,2013-05-31 03:27:00,
2013-05-30 22:28:00,70.3,65.9,29.80,SSE,167,0.0,0.0,86,0.00,,---,0.71,VWS V14.00,2013-05-31 03:28:00,
2013-05-30 22:29:00,70.3,65.9,29.80,SSE,167,0.0,0.0,86,0.00,,---,0.71,VWS V14.00,2013-05-31 03:29:00,
2013-05-30 22:30:00,70.3,65.9,29.81,SSE,167,6.0,6.0,86,0.00,,---,0.71,VWS V14.00,2013-05-31 03:30:00,
2013-05-30 22:31:00,70.3,65.9,29.81,NW,313,11.0,12.0,86,0.00,,---,0.71,VWS V14.00,2013-05-31 03:31:00,
2013-05-30 22:32:00,70.3,66.2,29.83,NW,315,13.0,15.0,87,0.00,,---,0.71,VWS V14.00,2013-05-31 03:32:00,
2013-05-30 22:33:00,70.3,66.2,29.83,NW,313,14.0,22.0,87,0.00,,---,0.71,VWS V14.00,2013-05-31 03:33:00,
2013-05-30 22:34:00,70.1,65.4,29.83,NW,307,15.0,25.0,85,0.00,,---,0.71,VWS V14.00,2013-05-31 03:34:00,
2013-05-30 22:35:00,70.3,66.2,29.83,NW,313,14.0,22.0,87,0.00,,---,0.71,VWS V14.00,2013-05-31 03:35:00,
2013-05-30 22:36:00,69.6,62.8,29.84,NW,313,11.0,13.0,79,0.00,,---,0.71,VWS V14.00,2013-05-31 03:36:00,
2013-05-30 22:37:00,69.6,62.4,29.84,NW,310,14.0,14.0,78,0.00,,---,0.71,VWS V14.00,2013-05-31 03:37:00,
2013-05-30 22:38:00,69.4,62.2,29.84,NW,309,11.0,16.0,78,0.00,,---,0.71,VWS V14.00,2013-05-31 03:38:00,
2013-05-30 22:39:00,69.4,62.2,29.85,NW,313,7.0,11.0,78,0.00,,---,0.71,VWS V14.00,2013-05-31 03:39:00,
2013-05-30 22:40:00,69.4,62.2,29.84,NW,308,14.0,16.0,78,0.00,,---,0.71,VWS V14.00,2013-05-31 03:40:00,
2013-05-30 22:41:00,69.3,62.5,29.85,NW,310,10.0,14.0,79,0.03,,---,0.74,VWS V14.00,2013-05-31 03:41:00,
2013-05-30 22:42:00,68.9,62.1,29.85,NW,310,4.0,19.0,79,0.07,,---,0.78,VWS V14.00,2013-05-31 03:42:00,
2013-05-30 22:43:00,68.6,62.2,29.85,NW,316,9.0,12.0,80,0.11,,---,0.82,VWS V14.00,2013-05-31 03:43:00,
2013-05-30 22:44:00,68.1,61.7,29.85,NW,311,2.0,9.0,80,0.15,,---,0.86,VWS V14.00,2013-05-31 03:44:00,
2013-05-30 22:45:00,68.6,62.2,29.85,NW,316,11.0,12.0,80,0.11,,---,0.82,VWS V14.00,2013-05-31 03:45:00,
2013-05-30 22:46:00,67.4,61.7,29.85,NW,311,5.0,10.0,82,0.23,,---,0.94,VWS V14.00,2013-05-31 03:46:00,
2013-05-30 22:47:00,67.1,61.4,29.85,NW,311,2.0,8.0,82,0.25,,---,0.96,VWS V14.00,2013-05-31 03:47:00,
2013-05-30 22:48:00,66.8,61.1,29.84,NW,311,0.0,2.0,82,0.27,,---,0.98,VWS V14.00,2013-05-31 03:48:00,
2013-05-30 22:49:00,66.6,61.3,29.83,NW,311,0.0,0.0,83,0.29,,---,1.00,VWS V14.00,2013-05-31 03:49:00,
2013-05-30 22:50:00,66.8,61.1,29.84,NW,311,0.0,2.0,82,0.27,,---,0.98,VWS V14.00,2013-05-31 03:50:00,
2013-05-30 22:51:00,66.1,61.1,29.84,NW,311,0.0,0.0,84,0.34,,---,1.05,VWS V14.00,2013-05-31 03:51:00,
2013-05-30 22:52:00,66.0,61.0,29.84,NW,311,2.0,2.0,84,0.37,,---,1.08,VWS V14.00,2013-05-31 03:52:00,
2013-05-30 22:53:00,65.6,61.0,29.85,NW,311,2.0,2.0,85,0.41,,---,1.12,VWS V14.00,2013-05-31 03:53:00,
2013-05-30 22:54:00,65.5,60.9,29.85,WNW,292,5.0,7.0,85,0.44,,---,1.15,VWS V14.00,2013-05-31 03:54:00,
2013-05-30 22:55:00,65.8,61.2,29.85,NW,311,2.0,2.0,85,0.41,,---,1.12,VWS V14.00,2013-05-31 03:55:00,
2013-05-30 22:56:00,65.0,60.7,29.86,SW,223,4.0,7.0,86,0.50,,---,1.21,VWS V14.00,2013-05-31 03:56:00,
2013-05-30 22:57:00,64.7,60.8,29.86,SW,219,5.0,6.0,87,0.56,,---,1.27,VWS V14.00,2013-05-31 03:57:00,
2013-05-30 22:58:00,64.5,60.5,29.85,SW,217,3.0,5.0,87,0.62,,---,1.33,VWS V14.00,2013-05-31 03:58:00,
2013-05-30 22:59:00,64.5,60.9,29.85,SW,217,4.0,4.0,88,0.63,,---,1.34,VWS V14.00,2013-05-31 03:59:00,
2013-05-30 23:00:00,64.5,60.5,29.85,SW,217,3.0,5.0,87,0.60,,---,1.31,VWS V14.00,2013-05-31 04:00:00,
2013-05-30 23:01:00,64.5,60.9,29.85,SW,217,4.0,4.0,88,0.63,,---,1.34,VWS V14.00,2013-05-31 04:01:00,
2013-05-30 23:02:00,64.2,60.9,29.84,SSW,207,3.0,5.0,89,0.64,,---,1.35,VWS V14.00,2013-05-31 04:02:00,
2013-05-30 23:03:00,64.2,60.9,29.83,SSW,207,3.0,5.0,89,0.65,,---,1.36,VWS V14.00,2013-05-31 04:03:00,
2013-05-30 23:04:00,64.3,61.3,29.83,SSW,207,2.0,3.0,90,0.66,,---,1.37,VWS V14.00,2013-05-31 04:04:00,
2013-05-30 23:05:00,64.2,61.2,29.82,SSW,207,2.0,3.0,90,0.67,,---,1.38,VWS V14.00,2013-05-31 04:05:00,
2013-05-30 23:06:00,64.2,61.2,29.82,SSW,207,1.0,2.0,90,0.66,,---,1.37,VWS V14.00,2013-05-31 04:06:00,
2013-05-30 23:07:00,64.2,61.2,29.80,SE,128,10.0,10.0,90,0.70,,---,1.41,VWS V14.00,2013-05-31 04:07:00,
2013-05-30 23:08:00,64.2,61.5,29.80,SE,124,9.0,13.0,91,0.70,,---,1.41,VWS V14.00,2013-05-31 04:08:00,
2013-05-30 23:09:00,64.3,61.6,29.80,SE,124,12.0,14.0,91,0.72,,---,1.43,VWS V14.00,2013-05-31 04:09:00,
2013-05-30 23:10:00,64.5,61.8,29.80,SE,136,9.0,13.0,91,0.73,,---,1.44,VWS V14.00,2013-05-31 04:10:00,
2013-05-30 23:11:00,64.5,61.8,29.80,ESE,123,6.0,13.0,91,0.72,,---,1.43,VWS V14.00,2013-05-31 04:11:00,
2013-05-30 23:12:00,64.5,61.8,29.80,SE,135,15.0,15.0,91,0.74,,---,1.45,VWS V14.00,2013-05-31 04:12:00,
2013-05-30 23:13:00,64.5,61.8,29.79,SE,135,13.0,15.0,91,0.75,,---,1.46,VWS V14.00,2013-05-31 04:13:00,
2013-05-30 23:14:00,64.5,61.8,29.79,ESE,116,9.0,17.0,91,0.76,,---,1.47,VWS V14.00,2013-05-31 04:14:00,
2013-05-30 23:15:00,64.7,62.0,29.80,South,173,1.0,11.0,91,0.76,,---,1.47,VWS V14.00,2013-05-31 04:15:00,
2013-05-30 23:16:00,64.5,61.8,29.80,SE,136,6.0,11.0,91,0.76,,---,1.47,VWS V14.00,2013-05-31 04:16:00,
2013-05-30 23:17:00,64.7,62.0,29.82,SSW,195,2.0,9.0,91,0.77,,---,1.48,VWS V14.00,2013-05-31 04:17:00,
2013-05-30 23:18:00,64.8,62.1,29.82,South,190,6.0,9.0,91,0.77,,---,1.48,VWS V14.00,2013-05-31 04:18:00,
2013-05-30 23:19:00,64.8,62.1,29.82,South,191,0.0,12.0,91,0.77,,---,1.48,VWS V14.00,2013-05-31 04:19:00,
2013-05-30 23:20:00,64.8,62.1,29.83,South,190,8.0,8.0,91,0.77,,---,1.48,VWS V14.00,2013-05-31 04:20:00,
2013-05-30 23:21:00,64.8,62.1,29.83,South,191,4.0,5.0,91,0.77,,---,1.48,VWS V14.00,2013-05-31 04:21:00,
2013-05-30 23:22:00,64.8,62.1,29.84,SE,134,11.0,17.0,91,0.78,,---,1.49,VWS V14.00,2013-05-31 04:22:00,
2013-05-30 23:23:00,65.0,62.3,29.84,South,177,5.0,13.0,91,0.78,,---,1.49,VWS V14.00,2013-05-31 04:23:00,
2013-05-30 23:24:00,65.2,62.5,29.84,South,187,5.0,10.0,91,0.78,,---,1.49,VWS V14.00,2013-05-31 04:24:00,
2013-05-30 23:25:00,65.3,62.6,29.84,South,186,3.0,7.0,91,0.78,,---,1.49,VWS V14.00,2013-05-31 04:25:00,
2013-05-30 23:26:00,65.3,62.6,29.84,South,187,3.0,5.0,91,0.78,,---,1.49,VWS V14.00,2013-05-31 04:26:00,
2013-05-30 23:27:00,65.6,62.9,29.85,SSW,212,5.0,10.0,91,0.78,,---,1.49,VWS V14.00,2013-05-31 04:27:00,
2013-05-30 23:28:00,65.6,62.6,29.85,SSW,209,13.0,14.0,90,0.78,,---,1.49,VWS V14.00,2013-05-31 04:28:00,
2013-05-30 23:29:00,65.6,62.6,29.85,SSE,158,5.0,13.0,90,0.78,,---,1.49,VWS V14.00,2013-05-31 04:29:00,
2013-05-30 23:30:00,65.6,62.6,29.85,SSE,164,2.0,12.0,90,0.78,,---,1.49,VWS V14.00,2013-05-31 04:30:00,
2013-05-30 23:31:00,65.6,62.6,29.85,SSE,165,1.0,12.0,90,0.78,,---,1.49,VWS V14.00,2013-05-31 04:31:00,
2013-05-30 23:32:00,65.5,62.5,29.85,SSE,163,0.0,5.0,90,0.80,,---,1.51,VWS V14.00,2013-05-31 04:32:00,
2013-05-30 23:33:00,65.5,62.5,29.84,SSE,162,6.0,9.0,90,0.81,,---,1.52,VWS V14.00,2013-05-31 04:33:00,
2013-05-30 23:34:00,65.5,62.5,29.83,SSE,154,12.0,12.0,90,0.82,,---,1.53,VWS V14.00,2013-05-31 04:34:00,
2013-05-30 23:35:00,65.3,62.3,29.82,SE,137,15.0,18.0,90,0.82,,---,1.53,VWS V14.00,2013-05-31 04:35:00,
2013-05-30 23:36:00,65.3,62.3,29.82,SSE,164,15.0,18.0,90,0.82,,---,1.53,VWS V14.00,2013-05-31 04:36:00,
2013-05-30 23:37:00,65.2,62.2,29.81,SSE,150,10.0,14.0,90,0.84,,---,1.55,VWS V14.00,2013-05-31 04:37:00,
2013-05-30 23:38:00,65.0,62.0,29.80,SE,146,7.0,16.0,90,0.84,,---,1.55,VWS V14.00,2013-05-31 04:38:00,
2013-05-30 23:39:00,65.0,62.0,29.80,SE,138,10.0,14.0,90,0.85,,---,1.56,VWS V14.00,2013-05-31 04:39:00,
2013-05-30 23:40:00,64.8,61.8,29.80,South,175,8.0,12.0,90,0.85,,---,1.56,VWS V14.00,2013-05-31 04:40:00,
2013-05-30 23:41:00,65.0,62.0,29.80,South,189,11.0,11.0,90,0.85,,---,1.56,VWS V14.00,2013-05-31 04:41:00,
2013-05-30 23:42:00,64.7,61.7,29.80,SE,146,11.0,20.0,90,0.83,,---,1.57,VWS V14.00,2013-05-31 04:42:00,
2013-05-30 23:43:00,64.5,61.5,29.79,SSE,163,13.0,15.0,90,0.79,,---,1.57,VWS V14.00,2013-05-31 04:43:00,
2013-05-30 23:44:00,64.5,61.2,29.79,SSE,151,18.0,18.0,89,0.75,,---,1.57,VWS V14.00,2013-05-31 04:44:00,
2013-05-30 23:45:00,64.3,61.0,29.79,SSE,150,4.0,18.0,89,0.71,,---,1.57,VWS V14.00,2013-05-31 04:45:00,
2013-05-30 23:46:00,64.3,61.0,29.79,SSE,150,16.0,18.0,89,0.71,,---,1.57,VWS V14.00,2013-05-31 04:46:00,
2013-05-30 23:47:00,64.2,60.9,29.80,SSE,152,2.0,4.0,89,0.63,,---,1.57,VWS V14.00,2013-05-31 04:47:00,
2013-05-30 23:48:00,64.2,60.9,29.80,SSE,156,1.0,7.0,89,0.61,,---,1.57,VWS V14.00,2013-05-31 04:48:00,
2013-05-30 23:49:00,64.0,60.7,29.82,SSE,156,2.0,4.0,89,0.59,,---,1.57,VWS V14.00,2013-05-31 04:49:00,
2013-05-30 23:50:00,63.9,60.3,29.81,SSE,156,6.0,6.0,88,0.57,,---,1.57,VWS V14.00,2013-05-31 04:50:00,
2013-05-30 23:51:00,63.9,60.3,29.81,SSE,156,4.0,5.0,88,0.57,,---,1.57,VWS V14.00,2013-05-31 04:51:00,
2013-05-30 23:52:00,63.9,60.3,29.80,SSE,154,7.0,10.0,88,0.52,,---,1.57,VWS V14.00,2013-05-31 04:52:00,
2013-05-30 23:53:00,63.9,60.3,29.79,SSE,154,5.0,10.0,88,0.49,,---,1.57,VWS V14.00,2013-05-31 04:53:00,
2013-05-30 23:54:00,63.9,60.0,29.80,SSE,154,2.0,6.0,87,0.45,,---,1.57,VWS V14.00,2013-05-31 04:54:00,
2013-05-30 23:55:00,63.9,60.0,29.80,SSE,154,3.0,5.0,87,0.42,,---,1.57,VWS V14.00,2013-05-31 04:55:00,
2013-05-30 23:56:00,63.9,60.0,29.80,SSE,154,1.0,4.0,87,0.42,,---,1.57,VWS V14.00,2013-05-31 04:56:00,
2013-05-30 23:57:00,63.7,59.8,29.79,SSE,154,0.0,3.0,87,0.36,,---,1.57,VWS V14.00,2013-05-31 04:57:00,
2013-05-30 23:58:00,63.7,60.1,29.79,SSE,154,1.0,2.0,88,0.30,,---,1.57,VWS V14.00,2013-05-31 04:58:00,
2013-05-30 23:59:00,63.5,59.9,29.79,SSE,160,2.0,9.0,88,0.24,,---,1.57,VWS V14.00,2013-05-31 04:59:00,